<?xml version="1.0" encoding="UTF-8" standalone="no" ?>
<gpx xmlns="http://www.topografix.com/GPX/1/1" xmlns:xsi="http://www.w3.org/2001/XMLSchema-instance" xsi:schemaLocation="http://www.topografix.com/GPX/1/1 http://www.topografix.com/GPX/1/1/gpx.xsd" version="1.1" creator="VisuGPX - https://www.visugpx.com">
  <metadata>
    <name>colbalafrasse20101211.gpx</name>
  </metadata>
  <trk>
    <name><![CDATA[Talamarche, combe Nord]]></name>
    <trkseg>
      <trkpt lat="45.97859" lon="6.4681">
        <ele>1428</ele>
        <time>2010-12-11 08:57:55Z</time>
      </trkpt>
      <trkpt lat="45.97859" lon="6.4681">
        <ele>1428</ele>
        <time>2010-12-11 08:57:59Z</time>
      </trkpt>
      <trkpt lat="45.97859" lon="6.4681">
        <ele>1428</ele>
        <time>2010-12-11 08:58:03Z</time>
      </trkpt>
      <trkpt lat="45.9785" lon="6.46805">
        <ele>1436</ele>
        <time>2010-12-11 08:58:07Z</time>
      </trkpt>
      <trkpt lat="45.97852" lon="6.46802">
        <ele>1436</ele>
        <time>2010-12-11 08:58:11Z</time>
      </trkpt>
      <trkpt lat="45.97852" lon="6.46802">
        <ele>1436</ele>
        <time>2010-12-11 08:58:15Z</time>
      </trkpt>
      <trkpt lat="45.97857" lon="6.46784">
        <ele>1439</ele>
        <time>2010-12-11 08:58:19Z</time>
      </trkpt>
      <trkpt lat="45.97862" lon="6.46769">
        <ele>1440</ele>
        <time>2010-12-11 08:58:23Z</time>
      </trkpt>
      <trkpt lat="45.97866" lon="6.4676">
        <ele>1441</ele>
        <time>2010-12-11 08:58:27Z</time>
      </trkpt>
      <trkpt lat="45.97868" lon="6.46754">
        <ele>1441</ele>
        <time>2010-12-11 08:58:31Z</time>
      </trkpt>
      <trkpt lat="45.97868" lon="6.46754">
        <ele>1441</ele>
        <time>2010-12-11 08:58:35Z</time>
      </trkpt>
      <trkpt lat="45.97875" lon="6.46738">
        <ele>1442</ele>
        <time>2010-12-11 08:58:39Z</time>
      </trkpt>
      <trkpt lat="45.97875" lon="6.46738">
        <ele>1442</ele>
        <time>2010-12-11 08:58:43Z</time>
      </trkpt>
      <trkpt lat="45.97875" lon="6.46738">
        <ele>1442</ele>
        <time>2010-12-11 08:58:47Z</time>
      </trkpt>
      <trkpt lat="45.97875" lon="6.46738">
        <ele>1442</ele>
        <time>2010-12-11 08:58:51Z</time>
      </trkpt>
      <trkpt lat="45.97881" lon="6.4672">
        <ele>1445</ele>
        <time>2010-12-11 08:58:55Z</time>
      </trkpt>
      <trkpt lat="45.97884" lon="6.46715">
        <ele>1446</ele>
        <time>2010-12-11 08:58:59Z</time>
      </trkpt>
      <trkpt lat="45.97884" lon="6.46715">
        <ele>1446</ele>
        <time>2010-12-11 08:59:03Z</time>
      </trkpt>
      <trkpt lat="45.97891" lon="6.46705">
        <ele>1448</ele>
        <time>2010-12-11 08:59:07Z</time>
      </trkpt>
      <trkpt lat="45.97891" lon="6.46705">
        <ele>1448</ele>
        <time>2010-12-11 08:59:11Z</time>
      </trkpt>
      <trkpt lat="45.97891" lon="6.46705">
        <ele>1448</ele>
        <time>2010-12-11 08:59:15Z</time>
      </trkpt>
      <trkpt lat="45.97906" lon="6.46692">
        <ele>1451</ele>
        <time>2010-12-11 08:59:19Z</time>
      </trkpt>
      <trkpt lat="45.97906" lon="6.46692">
        <ele>1451</ele>
        <time>2010-12-11 08:59:23Z</time>
      </trkpt>
      <trkpt lat="45.97906" lon="6.46692">
        <ele>1451</ele>
        <time>2010-12-11 08:59:27Z</time>
      </trkpt>
      <trkpt lat="45.97921" lon="6.46682">
        <ele>1452</ele>
        <time>2010-12-11 08:59:31Z</time>
      </trkpt>
      <trkpt lat="45.97921" lon="6.46682">
        <ele>1452</ele>
        <time>2010-12-11 08:59:35Z</time>
      </trkpt>
      <trkpt lat="45.97927" lon="6.46677">
        <ele>1452</ele>
        <time>2010-12-11 08:59:39Z</time>
      </trkpt>
      <trkpt lat="45.97928" lon="6.46677">
        <ele>1452</ele>
        <time>2010-12-11 08:59:43Z</time>
      </trkpt>
      <trkpt lat="45.97928" lon="6.46677">
        <ele>1452</ele>
        <time>2010-12-11 08:59:47Z</time>
      </trkpt>
      <trkpt lat="45.97938" lon="6.46668">
        <ele>1455</ele>
        <time>2010-12-11 08:59:51Z</time>
      </trkpt>
      <trkpt lat="45.97944" lon="6.46663">
        <ele>1455</ele>
        <time>2010-12-11 08:59:55Z</time>
      </trkpt>
      <trkpt lat="45.9795" lon="6.46657">
        <ele>1457</ele>
        <time>2010-12-11 08:59:59Z</time>
      </trkpt>
      <trkpt lat="45.97957" lon="6.4665">
        <ele>1457</ele>
        <time>2010-12-11 09:00:03Z</time>
      </trkpt>
      <trkpt lat="45.97963" lon="6.46645">
        <ele>1458</ele>
        <time>2010-12-11 09:00:07Z</time>
      </trkpt>
      <trkpt lat="45.97966" lon="6.46642">
        <ele>1458</ele>
        <time>2010-12-11 09:00:11Z</time>
      </trkpt>
      <trkpt lat="45.97966" lon="6.46642">
        <ele>1458</ele>
        <time>2010-12-11 09:00:15Z</time>
      </trkpt>
      <trkpt lat="45.97966" lon="6.46642">
        <ele>1458</ele>
        <time>2010-12-11 09:00:19Z</time>
      </trkpt>
      <trkpt lat="45.97966" lon="6.46642">
        <ele>1458</ele>
        <time>2010-12-11 09:00:23Z</time>
      </trkpt>
      <trkpt lat="45.97988" lon="6.4662">
        <ele>1461</ele>
        <time>2010-12-11 09:00:27Z</time>
      </trkpt>
      <trkpt lat="45.97988" lon="6.4662">
        <ele>1461</ele>
        <time>2010-12-11 09:00:31Z</time>
      </trkpt>
      <trkpt lat="45.97988" lon="6.4662">
        <ele>1461</ele>
        <time>2010-12-11 09:00:35Z</time>
      </trkpt>
      <trkpt lat="45.97988" lon="6.4662">
        <ele>1461</ele>
        <time>2010-12-11 09:00:39Z</time>
      </trkpt>
      <trkpt lat="45.98013" lon="6.46602">
        <ele>1461</ele>
        <time>2010-12-11 09:00:43Z</time>
      </trkpt>
      <trkpt lat="45.98017" lon="6.46601">
        <ele>1462</ele>
        <time>2010-12-11 09:00:47Z</time>
      </trkpt>
      <trkpt lat="45.98017" lon="6.46601">
        <ele>1462</ele>
        <time>2010-12-11 09:00:51Z</time>
      </trkpt>
      <trkpt lat="45.98031" lon="6.46597">
        <ele>1465</ele>
        <time>2010-12-11 09:00:55Z</time>
      </trkpt>
      <trkpt lat="45.98038" lon="6.46594">
        <ele>1468</ele>
        <time>2010-12-11 09:00:59Z</time>
      </trkpt>
      <trkpt lat="45.98038" lon="6.46594">
        <ele>1468</ele>
        <time>2010-12-11 09:01:03Z</time>
      </trkpt>
      <trkpt lat="45.98044" lon="6.4659">
        <ele>1469</ele>
        <time>2010-12-11 09:01:07Z</time>
      </trkpt>
      <trkpt lat="45.98047" lon="6.46589">
        <ele>1470</ele>
        <time>2010-12-11 09:01:11Z</time>
      </trkpt>
      <trkpt lat="45.98047" lon="6.46589">
        <ele>1470</ele>
        <time>2010-12-11 09:01:15Z</time>
      </trkpt>
      <trkpt lat="45.98052" lon="6.46587">
        <ele>1471</ele>
        <time>2010-12-11 09:01:19Z</time>
      </trkpt>
      <trkpt lat="45.98058" lon="6.46585">
        <ele>1472</ele>
        <time>2010-12-11 09:01:23Z</time>
      </trkpt>
      <trkpt lat="45.98058" lon="6.46585">
        <ele>1472</ele>
        <time>2010-12-11 09:01:27Z</time>
      </trkpt>
      <trkpt lat="45.98058" lon="6.46585">
        <ele>1472</ele>
        <time>2010-12-11 09:01:31Z</time>
      </trkpt>
      <trkpt lat="45.98058" lon="6.46585">
        <ele>1472</ele>
        <time>2010-12-11 09:01:35Z</time>
      </trkpt>
      <trkpt lat="45.98074" lon="6.4658">
        <ele>1475</ele>
        <time>2010-12-11 09:01:39Z</time>
      </trkpt>
      <trkpt lat="45.98074" lon="6.4658">
        <ele>1475</ele>
        <time>2010-12-11 09:01:43Z</time>
      </trkpt>
      <trkpt lat="45.98074" lon="6.4658">
        <ele>1475</ele>
        <time>2010-12-11 09:01:47Z</time>
      </trkpt>
      <trkpt lat="45.98074" lon="6.4658">
        <ele>1475</ele>
        <time>2010-12-11 09:01:51Z</time>
      </trkpt>
      <trkpt lat="45.98088" lon="6.46574">
        <ele>1476</ele>
        <time>2010-12-11 09:01:55Z</time>
      </trkpt>
      <trkpt lat="45.98091" lon="6.46573">
        <ele>1476</ele>
        <time>2010-12-11 09:01:59Z</time>
      </trkpt>
      <trkpt lat="45.98097" lon="6.46572">
        <ele>1478</ele>
        <time>2010-12-11 09:02:03Z</time>
      </trkpt>
      <trkpt lat="45.98097" lon="6.46572">
        <ele>1478</ele>
        <time>2010-12-11 09:02:07Z</time>
      </trkpt>
      <trkpt lat="45.98105" lon="6.46569">
        <ele>1479</ele>
        <time>2010-12-11 09:02:11Z</time>
      </trkpt>
      <trkpt lat="45.9811" lon="6.46568">
        <ele>1479</ele>
        <time>2010-12-11 09:02:15Z</time>
      </trkpt>
      <trkpt lat="45.98114" lon="6.46568">
        <ele>1480</ele>
        <time>2010-12-11 09:02:19Z</time>
      </trkpt>
      <trkpt lat="45.98121" lon="6.46567">
        <ele>1481</ele>
        <time>2010-12-11 09:02:23Z</time>
      </trkpt>
      <trkpt lat="45.98129" lon="6.46565">
        <ele>1482</ele>
        <time>2010-12-11 09:02:27Z</time>
      </trkpt>
      <trkpt lat="45.98136" lon="6.46564">
        <ele>1483</ele>
        <time>2010-12-11 09:02:31Z</time>
      </trkpt>
      <trkpt lat="45.98144" lon="6.46563">
        <ele>1482</ele>
        <time>2010-12-11 09:02:35Z</time>
      </trkpt>
      <trkpt lat="45.98151" lon="6.46562">
        <ele>1484</ele>
        <time>2010-12-11 09:02:39Z</time>
      </trkpt>
      <trkpt lat="45.98158" lon="6.46561">
        <ele>1484</ele>
        <time>2010-12-11 09:02:43Z</time>
      </trkpt>
      <trkpt lat="45.98159" lon="6.46561">
        <ele>1484</ele>
        <time>2010-12-11 09:02:47Z</time>
      </trkpt>
      <trkpt lat="45.98165" lon="6.46559">
        <ele>1486</ele>
        <time>2010-12-11 09:02:51Z</time>
      </trkpt>
      <trkpt lat="45.9817" lon="6.46558">
        <ele>1486</ele>
        <time>2010-12-11 09:02:55Z</time>
      </trkpt>
      <trkpt lat="45.98176" lon="6.46557">
        <ele>1486</ele>
        <time>2010-12-11 09:02:59Z</time>
      </trkpt>
      <trkpt lat="45.98182" lon="6.46556">
        <ele>1486</ele>
        <time>2010-12-11 09:03:03Z</time>
      </trkpt>
      <trkpt lat="45.98187" lon="6.46553">
        <ele>1488</ele>
        <time>2010-12-11 09:03:07Z</time>
      </trkpt>
      <trkpt lat="45.98193" lon="6.46551">
        <ele>1489</ele>
        <time>2010-12-11 09:03:11Z</time>
      </trkpt>
      <trkpt lat="45.98199" lon="6.46549">
        <ele>1490</ele>
        <time>2010-12-11 09:03:15Z</time>
      </trkpt>
      <trkpt lat="45.98205" lon="6.46547">
        <ele>1492</ele>
        <time>2010-12-11 09:03:19Z</time>
      </trkpt>
      <trkpt lat="45.98205" lon="6.46547">
        <ele>1492</ele>
        <time>2010-12-11 09:03:23Z</time>
      </trkpt>
      <trkpt lat="45.98216" lon="6.46543">
        <ele>1493</ele>
        <time>2010-12-11 09:03:27Z</time>
      </trkpt>
      <trkpt lat="45.98217" lon="6.46543">
        <ele>1493</ele>
        <time>2010-12-11 09:03:31Z</time>
      </trkpt>
      <trkpt lat="45.98217" lon="6.46543">
        <ele>1493</ele>
        <time>2010-12-11 09:03:35Z</time>
      </trkpt>
      <trkpt lat="45.98217" lon="6.46543">
        <ele>1493</ele>
        <time>2010-12-11 09:03:39Z</time>
      </trkpt>
      <trkpt lat="45.98217" lon="6.46543">
        <ele>1493</ele>
        <time>2010-12-11 09:03:43Z</time>
      </trkpt>
      <trkpt lat="45.98217" lon="6.46543">
        <ele>1493</ele>
        <time>2010-12-11 09:03:47Z</time>
      </trkpt>
      <trkpt lat="45.98234" lon="6.46537">
        <ele>1493</ele>
        <time>2010-12-11 09:03:51Z</time>
      </trkpt>
      <trkpt lat="45.98238" lon="6.46536">
        <ele>1493</ele>
        <time>2010-12-11 09:03:55Z</time>
      </trkpt>
      <trkpt lat="45.98239" lon="6.46536">
        <ele>1493</ele>
        <time>2010-12-11 09:03:59Z</time>
      </trkpt>
      <trkpt lat="45.98239" lon="6.46536">
        <ele>1493</ele>
        <time>2010-12-11 09:04:03Z</time>
      </trkpt>
      <trkpt lat="45.98254" lon="6.46531">
        <ele>1496</ele>
        <time>2010-12-11 09:04:07Z</time>
      </trkpt>
      <trkpt lat="45.98256" lon="6.46531">
        <ele>1496</ele>
        <time>2010-12-11 09:04:11Z</time>
      </trkpt>
      <trkpt lat="45.98256" lon="6.46531">
        <ele>1496</ele>
        <time>2010-12-11 09:04:15Z</time>
      </trkpt>
      <trkpt lat="45.98272" lon="6.46528">
        <ele>1497</ele>
        <time>2010-12-11 09:04:19Z</time>
      </trkpt>
      <trkpt lat="45.98275" lon="6.46527">
        <ele>1498</ele>
        <time>2010-12-11 09:04:23Z</time>
      </trkpt>
      <trkpt lat="45.98282" lon="6.46525">
        <ele>1498</ele>
        <time>2010-12-11 09:04:27Z</time>
      </trkpt>
      <trkpt lat="45.98284" lon="6.46525">
        <ele>1499</ele>
        <time>2010-12-11 09:04:31Z</time>
      </trkpt>
      <trkpt lat="45.98291" lon="6.46524">
        <ele>1499</ele>
        <time>2010-12-11 09:04:35Z</time>
      </trkpt>
      <trkpt lat="45.98297" lon="6.46523">
        <ele>1501</ele>
        <time>2010-12-11 09:04:39Z</time>
      </trkpt>
      <trkpt lat="45.98304" lon="6.46524">
        <ele>1501</ele>
        <time>2010-12-11 09:04:43Z</time>
      </trkpt>
      <trkpt lat="45.98304" lon="6.46524">
        <ele>1501</ele>
        <time>2010-12-11 09:04:47Z</time>
      </trkpt>
      <trkpt lat="45.98312" lon="6.46526">
        <ele>1504</ele>
        <time>2010-12-11 09:04:51Z</time>
      </trkpt>
      <trkpt lat="45.98316" lon="6.46526">
        <ele>1503</ele>
        <time>2010-12-11 09:04:55Z</time>
      </trkpt>
      <trkpt lat="45.98321" lon="6.46527">
        <ele>1503</ele>
        <time>2010-12-11 09:04:59Z</time>
      </trkpt>
      <trkpt lat="45.98325" lon="6.46527">
        <ele>1503</ele>
        <time>2010-12-11 09:05:03Z</time>
      </trkpt>
      <trkpt lat="45.98327" lon="6.46528">
        <ele>1503</ele>
        <time>2010-12-11 09:05:07Z</time>
      </trkpt>
      <trkpt lat="45.98332" lon="6.4653">
        <ele>1503</ele>
        <time>2010-12-11 09:05:11Z</time>
      </trkpt>
      <trkpt lat="45.98335" lon="6.46532">
        <ele>1503</ele>
        <time>2010-12-11 09:05:15Z</time>
      </trkpt>
      <trkpt lat="45.9834" lon="6.46534">
        <ele>1505</ele>
        <time>2010-12-11 09:05:19Z</time>
      </trkpt>
      <trkpt lat="45.98341" lon="6.46534">
        <ele>1505</ele>
        <time>2010-12-11 09:05:23Z</time>
      </trkpt>
      <trkpt lat="45.98346" lon="6.46535">
        <ele>1509</ele>
        <time>2010-12-11 09:05:27Z</time>
      </trkpt>
      <trkpt lat="45.98347" lon="6.46536">
        <ele>1510</ele>
        <time>2010-12-11 09:05:31Z</time>
      </trkpt>
      <trkpt lat="45.98347" lon="6.46536">
        <ele>1510</ele>
        <time>2010-12-11 09:05:35Z</time>
      </trkpt>
      <trkpt lat="45.98348" lon="6.46536">
        <ele>1511</ele>
        <time>2010-12-11 09:05:39Z</time>
      </trkpt>
      <trkpt lat="45.98349" lon="6.46537">
        <ele>1513</ele>
        <time>2010-12-11 09:05:43Z</time>
      </trkpt>
      <trkpt lat="45.98349" lon="6.46537">
        <ele>1513</ele>
        <time>2010-12-11 09:05:47Z</time>
      </trkpt>
      <trkpt lat="45.98349" lon="6.46537">
        <ele>1513</ele>
        <time>2010-12-11 09:05:51Z</time>
      </trkpt>
      <trkpt lat="45.98349" lon="6.46537">
        <ele>1513</ele>
        <time>2010-12-11 09:05:55Z</time>
      </trkpt>
      <trkpt lat="45.98348" lon="6.46537">
        <ele>1511</ele>
        <time>2010-12-11 09:05:59Z</time>
      </trkpt>
      <trkpt lat="45.98348" lon="6.46538">
        <ele>1512</ele>
        <time>2010-12-11 09:06:03Z</time>
      </trkpt>
      <trkpt lat="45.98348" lon="6.46538">
        <ele>1512</ele>
        <time>2010-12-11 09:06:07Z</time>
      </trkpt>
      <trkpt lat="45.98348" lon="6.46537">
        <ele>1514</ele>
        <time>2010-12-11 09:06:11Z</time>
      </trkpt>
      <trkpt lat="45.98348" lon="6.46537">
        <ele>1515</ele>
        <time>2010-12-11 09:06:15Z</time>
      </trkpt>
      <trkpt lat="45.98348" lon="6.46537">
        <ele>1514</ele>
        <time>2010-12-11 09:06:19Z</time>
      </trkpt>
      <trkpt lat="45.98349" lon="6.4654">
        <ele>1514</ele>
        <time>2010-12-11 09:06:23Z</time>
      </trkpt>
      <trkpt lat="45.98351" lon="6.46542">
        <ele>1515</ele>
        <time>2010-12-11 09:06:27Z</time>
      </trkpt>
      <trkpt lat="45.98356" lon="6.46545">
        <ele>1515</ele>
        <time>2010-12-11 09:06:31Z</time>
      </trkpt>
      <trkpt lat="45.98357" lon="6.46546">
        <ele>1515</ele>
        <time>2010-12-11 09:06:35Z</time>
      </trkpt>
      <trkpt lat="45.98363" lon="6.46549">
        <ele>1514</ele>
        <time>2010-12-11 09:06:39Z</time>
      </trkpt>
      <trkpt lat="45.98372" lon="6.46554">
        <ele>1514</ele>
        <time>2010-12-11 09:06:43Z</time>
      </trkpt>
      <trkpt lat="45.98375" lon="6.46556">
        <ele>1514</ele>
        <time>2010-12-11 09:06:47Z</time>
      </trkpt>
      <trkpt lat="45.98379" lon="6.46558">
        <ele>1515</ele>
        <time>2010-12-11 09:06:51Z</time>
      </trkpt>
      <trkpt lat="45.98381" lon="6.46559">
        <ele>1515</ele>
        <time>2010-12-11 09:06:55Z</time>
      </trkpt>
      <trkpt lat="45.98389" lon="6.4656">
        <ele>1517</ele>
        <time>2010-12-11 09:06:59Z</time>
      </trkpt>
      <trkpt lat="45.98394" lon="6.46561">
        <ele>1516</ele>
        <time>2010-12-11 09:07:03Z</time>
      </trkpt>
      <trkpt lat="45.984" lon="6.46562">
        <ele>1517</ele>
        <time>2010-12-11 09:07:07Z</time>
      </trkpt>
      <trkpt lat="45.98404" lon="6.46562">
        <ele>1517</ele>
        <time>2010-12-11 09:07:11Z</time>
      </trkpt>
      <trkpt lat="45.98409" lon="6.46562">
        <ele>1518</ele>
        <time>2010-12-11 09:07:15Z</time>
      </trkpt>
      <trkpt lat="45.98414" lon="6.46564">
        <ele>1518</ele>
        <time>2010-12-11 09:07:19Z</time>
      </trkpt>
      <trkpt lat="45.98417" lon="6.46565">
        <ele>1519</ele>
        <time>2010-12-11 09:07:23Z</time>
      </trkpt>
      <trkpt lat="45.98423" lon="6.46567">
        <ele>1520</ele>
        <time>2010-12-11 09:07:27Z</time>
      </trkpt>
      <trkpt lat="45.98428" lon="6.46569">
        <ele>1520</ele>
        <time>2010-12-11 09:07:31Z</time>
      </trkpt>
      <trkpt lat="45.98434" lon="6.46572">
        <ele>1521</ele>
        <time>2010-12-11 09:07:35Z</time>
      </trkpt>
      <trkpt lat="45.98441" lon="6.46574">
        <ele>1522</ele>
        <time>2010-12-11 09:07:39Z</time>
      </trkpt>
      <trkpt lat="45.98446" lon="6.46576">
        <ele>1521</ele>
        <time>2010-12-11 09:07:43Z</time>
      </trkpt>
      <trkpt lat="45.9845" lon="6.46577">
        <ele>1522</ele>
        <time>2010-12-11 09:07:47Z</time>
      </trkpt>
      <trkpt lat="45.98456" lon="6.4658">
        <ele>1522</ele>
        <time>2010-12-11 09:07:51Z</time>
      </trkpt>
      <trkpt lat="45.98462" lon="6.46583">
        <ele>1524</ele>
        <time>2010-12-11 09:07:55Z</time>
      </trkpt>
      <trkpt lat="45.98468" lon="6.46586">
        <ele>1524</ele>
        <time>2010-12-11 09:07:59Z</time>
      </trkpt>
      <trkpt lat="45.98472" lon="6.46589">
        <ele>1523</ele>
        <time>2010-12-11 09:08:03Z</time>
      </trkpt>
      <trkpt lat="45.98477" lon="6.46591">
        <ele>1523</ele>
        <time>2010-12-11 09:08:07Z</time>
      </trkpt>
      <trkpt lat="45.98481" lon="6.46591">
        <ele>1523</ele>
        <time>2010-12-11 09:08:11Z</time>
      </trkpt>
      <trkpt lat="45.98486" lon="6.46592">
        <ele>1524</ele>
        <time>2010-12-11 09:08:15Z</time>
      </trkpt>
      <trkpt lat="45.98488" lon="6.46593">
        <ele>1523</ele>
        <time>2010-12-11 09:08:19Z</time>
      </trkpt>
      <trkpt lat="45.98493" lon="6.46594">
        <ele>1523</ele>
        <time>2010-12-11 09:08:23Z</time>
      </trkpt>
      <trkpt lat="45.98498" lon="6.46595">
        <ele>1524</ele>
        <time>2010-12-11 09:08:27Z</time>
      </trkpt>
      <trkpt lat="45.98504" lon="6.46597">
        <ele>1525</ele>
        <time>2010-12-11 09:08:31Z</time>
      </trkpt>
      <trkpt lat="45.98509" lon="6.46599">
        <ele>1527</ele>
        <time>2010-12-11 09:08:35Z</time>
      </trkpt>
      <trkpt lat="45.98513" lon="6.466">
        <ele>1527</ele>
        <time>2010-12-11 09:08:39Z</time>
      </trkpt>
      <trkpt lat="45.98518" lon="6.46602">
        <ele>1527</ele>
        <time>2010-12-11 09:08:43Z</time>
      </trkpt>
      <trkpt lat="45.9852" lon="6.46603">
        <ele>1528</ele>
        <time>2010-12-11 09:08:47Z</time>
      </trkpt>
      <trkpt lat="45.9852" lon="6.46603">
        <ele>1528</ele>
        <time>2010-12-11 09:08:51Z</time>
      </trkpt>
      <trkpt lat="45.98529" lon="6.46609">
        <ele>1528</ele>
        <time>2010-12-11 09:08:55Z</time>
      </trkpt>
      <trkpt lat="45.98532" lon="6.46611">
        <ele>1529</ele>
        <time>2010-12-11 09:08:59Z</time>
      </trkpt>
      <trkpt lat="45.98537" lon="6.46616">
        <ele>1529</ele>
        <time>2010-12-11 09:09:03Z</time>
      </trkpt>
      <trkpt lat="45.98542" lon="6.4662">
        <ele>1530</ele>
        <time>2010-12-11 09:09:07Z</time>
      </trkpt>
      <trkpt lat="45.98546" lon="6.46625">
        <ele>1531</ele>
        <time>2010-12-11 09:09:11Z</time>
      </trkpt>
      <trkpt lat="45.98551" lon="6.4663">
        <ele>1529</ele>
        <time>2010-12-11 09:09:15Z</time>
      </trkpt>
      <trkpt lat="45.98555" lon="6.46634">
        <ele>1530</ele>
        <time>2010-12-11 09:09:19Z</time>
      </trkpt>
      <trkpt lat="45.98559" lon="6.46638">
        <ele>1529</ele>
        <time>2010-12-11 09:09:23Z</time>
      </trkpt>
      <trkpt lat="45.98563" lon="6.46642">
        <ele>1530</ele>
        <time>2010-12-11 09:09:27Z</time>
      </trkpt>
      <trkpt lat="45.98567" lon="6.46645">
        <ele>1531</ele>
        <time>2010-12-11 09:09:31Z</time>
      </trkpt>
      <trkpt lat="45.98571" lon="6.4665">
        <ele>1531</ele>
        <time>2010-12-11 09:09:35Z</time>
      </trkpt>
      <trkpt lat="45.98574" lon="6.46654">
        <ele>1530</ele>
        <time>2010-12-11 09:09:39Z</time>
      </trkpt>
      <trkpt lat="45.98579" lon="6.46659">
        <ele>1531</ele>
        <time>2010-12-11 09:09:43Z</time>
      </trkpt>
      <trkpt lat="45.98583" lon="6.46664">
        <ele>1531</ele>
        <time>2010-12-11 09:09:47Z</time>
      </trkpt>
      <trkpt lat="45.98586" lon="6.46667">
        <ele>1532</ele>
        <time>2010-12-11 09:09:51Z</time>
      </trkpt>
      <trkpt lat="45.98589" lon="6.46672">
        <ele>1529</ele>
        <time>2010-12-11 09:09:55Z</time>
      </trkpt>
      <trkpt lat="45.98592" lon="6.46676">
        <ele>1529</ele>
        <time>2010-12-11 09:09:59Z</time>
      </trkpt>
      <trkpt lat="45.98596" lon="6.46681">
        <ele>1531</ele>
        <time>2010-12-11 09:10:03Z</time>
      </trkpt>
      <trkpt lat="45.98599" lon="6.46685">
        <ele>1531</ele>
        <time>2010-12-11 09:10:07Z</time>
      </trkpt>
      <trkpt lat="45.98601" lon="6.4669">
        <ele>1532</ele>
        <time>2010-12-11 09:10:11Z</time>
      </trkpt>
      <trkpt lat="45.98604" lon="6.46695">
        <ele>1531</ele>
        <time>2010-12-11 09:10:15Z</time>
      </trkpt>
      <trkpt lat="45.98606" lon="6.46699">
        <ele>1531</ele>
        <time>2010-12-11 09:10:19Z</time>
      </trkpt>
      <trkpt lat="45.9861" lon="6.46705">
        <ele>1533</ele>
        <time>2010-12-11 09:10:23Z</time>
      </trkpt>
      <trkpt lat="45.98614" lon="6.46712">
        <ele>1530</ele>
        <time>2010-12-11 09:10:27Z</time>
      </trkpt>
      <trkpt lat="45.98618" lon="6.46719">
        <ele>1532</ele>
        <time>2010-12-11 09:10:31Z</time>
      </trkpt>
      <trkpt lat="45.98621" lon="6.46725">
        <ele>1534</ele>
        <time>2010-12-11 09:10:35Z</time>
      </trkpt>
      <trkpt lat="45.98622" lon="6.46728">
        <ele>1534</ele>
        <time>2010-12-11 09:10:39Z</time>
      </trkpt>
      <trkpt lat="45.98624" lon="6.46735">
        <ele>1536</ele>
        <time>2010-12-11 09:10:43Z</time>
      </trkpt>
      <trkpt lat="45.98626" lon="6.46739">
        <ele>1536</ele>
        <time>2010-12-11 09:10:47Z</time>
      </trkpt>
      <trkpt lat="45.98627" lon="6.46741">
        <ele>1535</ele>
        <time>2010-12-11 09:10:51Z</time>
      </trkpt>
      <trkpt lat="45.9863" lon="6.46751">
        <ele>1535</ele>
        <time>2010-12-11 09:10:55Z</time>
      </trkpt>
      <trkpt lat="45.98633" lon="6.46757">
        <ele>1536</ele>
        <time>2010-12-11 09:10:59Z</time>
      </trkpt>
      <trkpt lat="45.98636" lon="6.46762">
        <ele>1537</ele>
        <time>2010-12-11 09:11:03Z</time>
      </trkpt>
      <trkpt lat="45.98638" lon="6.46767">
        <ele>1539</ele>
        <time>2010-12-11 09:11:07Z</time>
      </trkpt>
      <trkpt lat="45.9864" lon="6.46772">
        <ele>1540</ele>
        <time>2010-12-11 09:11:11Z</time>
      </trkpt>
      <trkpt lat="45.98642" lon="6.46776">
        <ele>1540</ele>
        <time>2010-12-11 09:11:15Z</time>
      </trkpt>
      <trkpt lat="45.98646" lon="6.46783">
        <ele>1540</ele>
        <time>2010-12-11 09:11:19Z</time>
      </trkpt>
      <trkpt lat="45.98649" lon="6.4679">
        <ele>1541</ele>
        <time>2010-12-11 09:11:23Z</time>
      </trkpt>
      <trkpt lat="45.98651" lon="6.46795">
        <ele>1542</ele>
        <time>2010-12-11 09:11:27Z</time>
      </trkpt>
      <trkpt lat="45.98653" lon="6.46802">
        <ele>1543</ele>
        <time>2010-12-11 09:11:31Z</time>
      </trkpt>
      <trkpt lat="45.98654" lon="6.46805">
        <ele>1542</ele>
        <time>2010-12-11 09:11:35Z</time>
      </trkpt>
      <trkpt lat="45.98657" lon="6.46814">
        <ele>1543</ele>
        <time>2010-12-11 09:11:39Z</time>
      </trkpt>
      <trkpt lat="45.98659" lon="6.46821">
        <ele>1545</ele>
        <time>2010-12-11 09:11:43Z</time>
      </trkpt>
      <trkpt lat="45.98661" lon="6.46826">
        <ele>1545</ele>
        <time>2010-12-11 09:11:47Z</time>
      </trkpt>
      <trkpt lat="45.98664" lon="6.46833">
        <ele>1545</ele>
        <time>2010-12-11 09:11:51Z</time>
      </trkpt>
      <trkpt lat="45.98666" lon="6.46842">
        <ele>1546</ele>
        <time>2010-12-11 09:11:55Z</time>
      </trkpt>
      <trkpt lat="45.98668" lon="6.46849">
        <ele>1548</ele>
        <time>2010-12-11 09:11:59Z</time>
      </trkpt>
      <trkpt lat="45.9867" lon="6.46854">
        <ele>1549</ele>
        <time>2010-12-11 09:12:03Z</time>
      </trkpt>
      <trkpt lat="45.98672" lon="6.46861">
        <ele>1548</ele>
        <time>2010-12-11 09:12:07Z</time>
      </trkpt>
      <trkpt lat="45.98674" lon="6.46865">
        <ele>1547</ele>
        <time>2010-12-11 09:12:11Z</time>
      </trkpt>
      <trkpt lat="45.98677" lon="6.46872">
        <ele>1545</ele>
        <time>2010-12-11 09:12:15Z</time>
      </trkpt>
      <trkpt lat="45.98681" lon="6.46879">
        <ele>1546</ele>
        <time>2010-12-11 09:12:19Z</time>
      </trkpt>
      <trkpt lat="45.98683" lon="6.46886">
        <ele>1547</ele>
        <time>2010-12-11 09:12:23Z</time>
      </trkpt>
      <trkpt lat="45.98686" lon="6.46893">
        <ele>1546</ele>
        <time>2010-12-11 09:12:27Z</time>
      </trkpt>
      <trkpt lat="45.98689" lon="6.46898">
        <ele>1546</ele>
        <time>2010-12-11 09:12:31Z</time>
      </trkpt>
      <trkpt lat="45.98692" lon="6.46905">
        <ele>1548</ele>
        <time>2010-12-11 09:12:35Z</time>
      </trkpt>
      <trkpt lat="45.98694" lon="6.46912">
        <ele>1548</ele>
        <time>2010-12-11 09:12:39Z</time>
      </trkpt>
      <trkpt lat="45.98695" lon="6.46913">
        <ele>1548</ele>
        <time>2010-12-11 09:12:43Z</time>
      </trkpt>
      <trkpt lat="45.98695" lon="6.46913">
        <ele>1548</ele>
        <time>2010-12-11 09:12:47Z</time>
      </trkpt>
      <trkpt lat="45.987" lon="6.46924">
        <ele>1548</ele>
        <time>2010-12-11 09:12:51Z</time>
      </trkpt>
      <trkpt lat="45.987" lon="6.46924">
        <ele>1548</ele>
        <time>2010-12-11 09:12:55Z</time>
      </trkpt>
      <trkpt lat="45.98705" lon="6.46936">
        <ele>1549</ele>
        <time>2010-12-11 09:12:59Z</time>
      </trkpt>
      <trkpt lat="45.98709" lon="6.46943">
        <ele>1551</ele>
        <time>2010-12-11 09:13:03Z</time>
      </trkpt>
      <trkpt lat="45.98712" lon="6.46948">
        <ele>1551</ele>
        <time>2010-12-11 09:13:07Z</time>
      </trkpt>
      <trkpt lat="45.98714" lon="6.46952">
        <ele>1551</ele>
        <time>2010-12-11 09:13:11Z</time>
      </trkpt>
      <trkpt lat="45.98718" lon="6.46959">
        <ele>1552</ele>
        <time>2010-12-11 09:13:15Z</time>
      </trkpt>
      <trkpt lat="45.98721" lon="6.46965">
        <ele>1553</ele>
        <time>2010-12-11 09:13:19Z</time>
      </trkpt>
      <trkpt lat="45.98724" lon="6.46971">
        <ele>1554</ele>
        <time>2010-12-11 09:13:23Z</time>
      </trkpt>
      <trkpt lat="45.98727" lon="6.46976">
        <ele>1553</ele>
        <time>2010-12-11 09:13:27Z</time>
      </trkpt>
      <trkpt lat="45.9873" lon="6.46981">
        <ele>1552</ele>
        <time>2010-12-11 09:13:31Z</time>
      </trkpt>
      <trkpt lat="45.98732" lon="6.46987">
        <ele>1553</ele>
        <time>2010-12-11 09:13:35Z</time>
      </trkpt>
      <trkpt lat="45.98734" lon="6.46991">
        <ele>1551</ele>
        <time>2010-12-11 09:13:39Z</time>
      </trkpt>
      <trkpt lat="45.98737" lon="6.46997">
        <ele>1552</ele>
        <time>2010-12-11 09:13:43Z</time>
      </trkpt>
      <trkpt lat="45.9874" lon="6.47002">
        <ele>1552</ele>
        <time>2010-12-11 09:13:47Z</time>
      </trkpt>
      <trkpt lat="45.98743" lon="6.47007">
        <ele>1554</ele>
        <time>2010-12-11 09:13:51Z</time>
      </trkpt>
      <trkpt lat="45.98746" lon="6.47013">
        <ele>1556</ele>
        <time>2010-12-11 09:13:55Z</time>
      </trkpt>
      <trkpt lat="45.98748" lon="6.47017">
        <ele>1557</ele>
        <time>2010-12-11 09:13:59Z</time>
      </trkpt>
      <trkpt lat="45.98752" lon="6.47022">
        <ele>1556</ele>
        <time>2010-12-11 09:14:03Z</time>
      </trkpt>
      <trkpt lat="45.98755" lon="6.47028">
        <ele>1556</ele>
        <time>2010-12-11 09:14:07Z</time>
      </trkpt>
      <trkpt lat="45.98757" lon="6.47032">
        <ele>1557</ele>
        <time>2010-12-11 09:14:11Z</time>
      </trkpt>
      <trkpt lat="45.9876" lon="6.47036">
        <ele>1557</ele>
        <time>2010-12-11 09:14:15Z</time>
      </trkpt>
      <trkpt lat="45.98764" lon="6.47042">
        <ele>1557</ele>
        <time>2010-12-11 09:14:19Z</time>
      </trkpt>
      <trkpt lat="45.98768" lon="6.47048">
        <ele>1556</ele>
        <time>2010-12-11 09:14:23Z</time>
      </trkpt>
      <trkpt lat="45.9877" lon="6.47051">
        <ele>1556</ele>
        <time>2010-12-11 09:14:27Z</time>
      </trkpt>
      <trkpt lat="45.98774" lon="6.47057">
        <ele>1557</ele>
        <time>2010-12-11 09:14:31Z</time>
      </trkpt>
      <trkpt lat="45.98778" lon="6.47061">
        <ele>1557</ele>
        <time>2010-12-11 09:14:35Z</time>
      </trkpt>
      <trkpt lat="45.98782" lon="6.47065">
        <ele>1557</ele>
        <time>2010-12-11 09:14:39Z</time>
      </trkpt>
      <trkpt lat="45.98785" lon="6.47068">
        <ele>1558</ele>
        <time>2010-12-11 09:14:43Z</time>
      </trkpt>
      <trkpt lat="45.98789" lon="6.47073">
        <ele>1560</ele>
        <time>2010-12-11 09:14:47Z</time>
      </trkpt>
      <trkpt lat="45.98791" lon="6.47075">
        <ele>1560</ele>
        <time>2010-12-11 09:14:51Z</time>
      </trkpt>
      <trkpt lat="45.98795" lon="6.47082">
        <ele>1561</ele>
        <time>2010-12-11 09:14:55Z</time>
      </trkpt>
      <trkpt lat="45.98798" lon="6.47087">
        <ele>1562</ele>
        <time>2010-12-11 09:14:59Z</time>
      </trkpt>
      <trkpt lat="45.98801" lon="6.47092">
        <ele>1564</ele>
        <time>2010-12-11 09:15:03Z</time>
      </trkpt>
      <trkpt lat="45.98803" lon="6.47096">
        <ele>1564</ele>
        <time>2010-12-11 09:15:07Z</time>
      </trkpt>
      <trkpt lat="45.98803" lon="6.47096">
        <ele>1564</ele>
        <time>2010-12-11 09:15:11Z</time>
      </trkpt>
      <trkpt lat="45.98803" lon="6.47096">
        <ele>1564</ele>
        <time>2010-12-11 09:15:15Z</time>
      </trkpt>
      <trkpt lat="45.98805" lon="6.47108">
        <ele>1564</ele>
        <time>2010-12-11 09:15:19Z</time>
      </trkpt>
      <trkpt lat="45.98804" lon="6.47111">
        <ele>1565</ele>
        <time>2010-12-11 09:15:23Z</time>
      </trkpt>
      <trkpt lat="45.98803" lon="6.47114">
        <ele>1565</ele>
        <time>2010-12-11 09:15:27Z</time>
      </trkpt>
      <trkpt lat="45.98805" lon="6.47119">
        <ele>1565</ele>
        <time>2010-12-11 09:15:31Z</time>
      </trkpt>
      <trkpt lat="45.98806" lon="6.47125">
        <ele>1565</ele>
        <time>2010-12-11 09:15:35Z</time>
      </trkpt>
      <trkpt lat="45.98807" lon="6.47131">
        <ele>1566</ele>
        <time>2010-12-11 09:15:39Z</time>
      </trkpt>
      <trkpt lat="45.98808" lon="6.47137">
        <ele>1565</ele>
        <time>2010-12-11 09:15:43Z</time>
      </trkpt>
      <trkpt lat="45.98809" lon="6.47143">
        <ele>1566</ele>
        <time>2010-12-11 09:15:47Z</time>
      </trkpt>
      <trkpt lat="45.9881" lon="6.47147">
        <ele>1566</ele>
        <time>2010-12-11 09:15:51Z</time>
      </trkpt>
      <trkpt lat="45.98811" lon="6.47153">
        <ele>1569</ele>
        <time>2010-12-11 09:15:55Z</time>
      </trkpt>
      <trkpt lat="45.98812" lon="6.47158">
        <ele>1573</ele>
        <time>2010-12-11 09:15:59Z</time>
      </trkpt>
      <trkpt lat="45.98813" lon="6.47162">
        <ele>1575</ele>
        <time>2010-12-11 09:16:03Z</time>
      </trkpt>
      <trkpt lat="45.98814" lon="6.47166">
        <ele>1575</ele>
        <time>2010-12-11 09:16:07Z</time>
      </trkpt>
      <trkpt lat="45.98814" lon="6.47166">
        <ele>1577</ele>
        <time>2010-12-11 09:16:11Z</time>
      </trkpt>
      <trkpt lat="45.98814" lon="6.47166">
        <ele>1578</ele>
        <time>2010-12-11 09:16:15Z</time>
      </trkpt>
      <trkpt lat="45.98814" lon="6.47166">
        <ele>1578</ele>
        <time>2010-12-11 09:16:19Z</time>
      </trkpt>
      <trkpt lat="45.98813" lon="6.47167">
        <ele>1577</ele>
        <time>2010-12-11 09:16:23Z</time>
      </trkpt>
      <trkpt lat="45.98813" lon="6.47167">
        <ele>1577</ele>
        <time>2010-12-11 09:16:27Z</time>
      </trkpt>
      <trkpt lat="45.98813" lon="6.4717">
        <ele>1578</ele>
        <time>2010-12-11 09:16:31Z</time>
      </trkpt>
      <trkpt lat="45.98814" lon="6.47173">
        <ele>1578</ele>
        <time>2010-12-11 09:16:35Z</time>
      </trkpt>
      <trkpt lat="45.98815" lon="6.47179">
        <ele>1578</ele>
        <time>2010-12-11 09:16:39Z</time>
      </trkpt>
      <trkpt lat="45.98816" lon="6.47184">
        <ele>1578</ele>
        <time>2010-12-11 09:16:43Z</time>
      </trkpt>
      <trkpt lat="45.98817" lon="6.47191">
        <ele>1578</ele>
        <time>2010-12-11 09:16:47Z</time>
      </trkpt>
      <trkpt lat="45.98817" lon="6.47196">
        <ele>1578</ele>
        <time>2010-12-11 09:16:51Z</time>
      </trkpt>
      <trkpt lat="45.98817" lon="6.47202">
        <ele>1579</ele>
        <time>2010-12-11 09:16:55Z</time>
      </trkpt>
      <trkpt lat="45.98817" lon="6.47208">
        <ele>1580</ele>
        <time>2010-12-11 09:16:59Z</time>
      </trkpt>
      <trkpt lat="45.98817" lon="6.47211">
        <ele>1581</ele>
        <time>2010-12-11 09:17:03Z</time>
      </trkpt>
      <trkpt lat="45.98817" lon="6.47217">
        <ele>1581</ele>
        <time>2010-12-11 09:17:07Z</time>
      </trkpt>
      <trkpt lat="45.98817" lon="6.47217">
        <ele>1581</ele>
        <time>2010-12-11 09:17:11Z</time>
      </trkpt>
      <trkpt lat="45.98818" lon="6.47222">
        <ele>1579</ele>
        <time>2010-12-11 09:17:15Z</time>
      </trkpt>
      <trkpt lat="45.98821" lon="6.47222">
        <ele>1580</ele>
        <time>2010-12-11 09:17:19Z</time>
      </trkpt>
      <trkpt lat="45.98822" lon="6.47222">
        <ele>1580</ele>
        <time>2010-12-11 09:17:23Z</time>
      </trkpt>
      <trkpt lat="45.98826" lon="6.47219">
        <ele>1581</ele>
        <time>2010-12-11 09:17:27Z</time>
      </trkpt>
      <trkpt lat="45.98829" lon="6.47217">
        <ele>1581</ele>
        <time>2010-12-11 09:17:31Z</time>
      </trkpt>
      <trkpt lat="45.98833" lon="6.47215">
        <ele>1581</ele>
        <time>2010-12-11 09:17:35Z</time>
      </trkpt>
      <trkpt lat="45.98837" lon="6.47212">
        <ele>1584</ele>
        <time>2010-12-11 09:17:39Z</time>
      </trkpt>
      <trkpt lat="45.98843" lon="6.47209">
        <ele>1587</ele>
        <time>2010-12-11 09:17:43Z</time>
      </trkpt>
      <trkpt lat="45.98848" lon="6.47208">
        <ele>1589</ele>
        <time>2010-12-11 09:17:47Z</time>
      </trkpt>
      <trkpt lat="45.98851" lon="6.47208">
        <ele>1590</ele>
        <time>2010-12-11 09:17:51Z</time>
      </trkpt>
      <trkpt lat="45.98856" lon="6.47208">
        <ele>1592</ele>
        <time>2010-12-11 09:17:55Z</time>
      </trkpt>
      <trkpt lat="45.98858" lon="6.4721">
        <ele>1591</ele>
        <time>2010-12-11 09:17:59Z</time>
      </trkpt>
      <trkpt lat="45.9886" lon="6.47211">
        <ele>1592</ele>
        <time>2010-12-11 09:18:03Z</time>
      </trkpt>
      <trkpt lat="45.98863" lon="6.47215">
        <ele>1591</ele>
        <time>2010-12-11 09:18:07Z</time>
      </trkpt>
      <trkpt lat="45.98865" lon="6.47218">
        <ele>1592</ele>
        <time>2010-12-11 09:18:11Z</time>
      </trkpt>
      <trkpt lat="45.98868" lon="6.47222">
        <ele>1594</ele>
        <time>2010-12-11 09:18:15Z</time>
      </trkpt>
      <trkpt lat="45.9887" lon="6.47226">
        <ele>1595</ele>
        <time>2010-12-11 09:18:19Z</time>
      </trkpt>
      <trkpt lat="45.98871" lon="6.47229">
        <ele>1594</ele>
        <time>2010-12-11 09:18:23Z</time>
      </trkpt>
      <trkpt lat="45.98873" lon="6.47234">
        <ele>1594</ele>
        <time>2010-12-11 09:18:27Z</time>
      </trkpt>
      <trkpt lat="45.98875" lon="6.47237">
        <ele>1596</ele>
        <time>2010-12-11 09:18:31Z</time>
      </trkpt>
      <trkpt lat="45.98877" lon="6.47241">
        <ele>1597</ele>
        <time>2010-12-11 09:18:35Z</time>
      </trkpt>
      <trkpt lat="45.98879" lon="6.47246">
        <ele>1597</ele>
        <time>2010-12-11 09:18:39Z</time>
      </trkpt>
      <trkpt lat="45.9888" lon="6.4725">
        <ele>1598</ele>
        <time>2010-12-11 09:18:43Z</time>
      </trkpt>
      <trkpt lat="45.98882" lon="6.47254">
        <ele>1599</ele>
        <time>2010-12-11 09:18:47Z</time>
      </trkpt>
      <trkpt lat="45.98883" lon="6.47257">
        <ele>1599</ele>
        <time>2010-12-11 09:18:51Z</time>
      </trkpt>
      <trkpt lat="45.98884" lon="6.47262">
        <ele>1601</ele>
        <time>2010-12-11 09:18:55Z</time>
      </trkpt>
      <trkpt lat="45.98884" lon="6.47265">
        <ele>1602</ele>
        <time>2010-12-11 09:18:59Z</time>
      </trkpt>
      <trkpt lat="45.98885" lon="6.4727">
        <ele>1604</ele>
        <time>2010-12-11 09:19:03Z</time>
      </trkpt>
      <trkpt lat="45.98886" lon="6.47272">
        <ele>1606</ele>
        <time>2010-12-11 09:19:07Z</time>
      </trkpt>
      <trkpt lat="45.98886" lon="6.47271">
        <ele>1606</ele>
        <time>2010-12-11 09:19:11Z</time>
      </trkpt>
      <trkpt lat="45.98887" lon="6.4727">
        <ele>1607</ele>
        <time>2010-12-11 09:19:15Z</time>
      </trkpt>
      <trkpt lat="45.98887" lon="6.47269">
        <ele>1608</ele>
        <time>2010-12-11 09:19:19Z</time>
      </trkpt>
      <trkpt lat="45.98888" lon="6.47269">
        <ele>1608</ele>
        <time>2010-12-11 09:19:23Z</time>
      </trkpt>
      <trkpt lat="45.98888" lon="6.47268">
        <ele>1609</ele>
        <time>2010-12-11 09:19:27Z</time>
      </trkpt>
      <trkpt lat="45.98888" lon="6.47267">
        <ele>1611</ele>
        <time>2010-12-11 09:19:31Z</time>
      </trkpt>
      <trkpt lat="45.98889" lon="6.47267">
        <ele>1609</ele>
        <time>2010-12-11 09:19:35Z</time>
      </trkpt>
      <trkpt lat="45.98889" lon="6.47267">
        <ele>1608</ele>
        <time>2010-12-11 09:19:39Z</time>
      </trkpt>
      <trkpt lat="45.9889" lon="6.47267">
        <ele>1607</ele>
        <time>2010-12-11 09:19:43Z</time>
      </trkpt>
      <trkpt lat="45.9889" lon="6.47267">
        <ele>1607</ele>
        <time>2010-12-11 09:19:47Z</time>
      </trkpt>
      <trkpt lat="45.9889" lon="6.47268">
        <ele>1607</ele>
        <time>2010-12-11 09:19:51Z</time>
      </trkpt>
      <trkpt lat="45.98891" lon="6.47269">
        <ele>1607</ele>
        <time>2010-12-11 09:19:55Z</time>
      </trkpt>
      <trkpt lat="45.98891" lon="6.47269">
        <ele>1607</ele>
        <time>2010-12-11 09:19:59Z</time>
      </trkpt>
      <trkpt lat="45.98894" lon="6.47276">
        <ele>1608</ele>
        <time>2010-12-11 09:20:03Z</time>
      </trkpt>
      <trkpt lat="45.98896" lon="6.4728">
        <ele>1609</ele>
        <time>2010-12-11 09:20:07Z</time>
      </trkpt>
      <trkpt lat="45.98898" lon="6.47285">
        <ele>1610</ele>
        <time>2010-12-11 09:20:11Z</time>
      </trkpt>
      <trkpt lat="45.98901" lon="6.47291">
        <ele>1611</ele>
        <time>2010-12-11 09:20:15Z</time>
      </trkpt>
      <trkpt lat="45.98903" lon="6.47294">
        <ele>1611</ele>
        <time>2010-12-11 09:20:19Z</time>
      </trkpt>
      <trkpt lat="45.98905" lon="6.47298">
        <ele>1611</ele>
        <time>2010-12-11 09:20:23Z</time>
      </trkpt>
      <trkpt lat="45.98907" lon="6.47302">
        <ele>1613</ele>
        <time>2010-12-11 09:20:27Z</time>
      </trkpt>
      <trkpt lat="45.9891" lon="6.47307">
        <ele>1614</ele>
        <time>2010-12-11 09:20:31Z</time>
      </trkpt>
      <trkpt lat="45.98912" lon="6.47311">
        <ele>1615</ele>
        <time>2010-12-11 09:20:35Z</time>
      </trkpt>
      <trkpt lat="45.98914" lon="6.47314">
        <ele>1615</ele>
        <time>2010-12-11 09:20:39Z</time>
      </trkpt>
      <trkpt lat="45.98916" lon="6.47317">
        <ele>1617</ele>
        <time>2010-12-11 09:20:43Z</time>
      </trkpt>
      <trkpt lat="45.98917" lon="6.47319">
        <ele>1619</ele>
        <time>2010-12-11 09:20:47Z</time>
      </trkpt>
      <trkpt lat="45.98918" lon="6.47323">
        <ele>1619</ele>
        <time>2010-12-11 09:20:51Z</time>
      </trkpt>
      <trkpt lat="45.98918" lon="6.47323">
        <ele>1619</ele>
        <time>2010-12-11 09:20:55Z</time>
      </trkpt>
      <trkpt lat="45.98924" lon="6.4733">
        <ele>1619</ele>
        <time>2010-12-11 09:20:59Z</time>
      </trkpt>
      <trkpt lat="45.98927" lon="6.47333">
        <ele>1619</ele>
        <time>2010-12-11 09:21:03Z</time>
      </trkpt>
      <trkpt lat="45.98929" lon="6.47337">
        <ele>1619</ele>
        <time>2010-12-11 09:21:07Z</time>
      </trkpt>
      <trkpt lat="45.98932" lon="6.4734">
        <ele>1618</ele>
        <time>2010-12-11 09:21:11Z</time>
      </trkpt>
      <trkpt lat="45.98934" lon="6.47343">
        <ele>1619</ele>
        <time>2010-12-11 09:21:15Z</time>
      </trkpt>
      <trkpt lat="45.98937" lon="6.47347">
        <ele>1619</ele>
        <time>2010-12-11 09:21:19Z</time>
      </trkpt>
      <trkpt lat="45.98937" lon="6.47347">
        <ele>1619</ele>
        <time>2010-12-11 09:21:23Z</time>
      </trkpt>
      <trkpt lat="45.98941" lon="6.47353">
        <ele>1619</ele>
        <time>2010-12-11 09:21:27Z</time>
      </trkpt>
      <trkpt lat="45.98943" lon="6.47355">
        <ele>1619</ele>
        <time>2010-12-11 09:21:31Z</time>
      </trkpt>
      <trkpt lat="45.98943" lon="6.47356">
        <ele>1619</ele>
        <time>2010-12-11 09:21:35Z</time>
      </trkpt>
      <trkpt lat="45.98943" lon="6.47356">
        <ele>1619</ele>
        <time>2010-12-11 09:21:39Z</time>
      </trkpt>
      <trkpt lat="45.98943" lon="6.47356">
        <ele>1619</ele>
        <time>2010-12-11 09:21:43Z</time>
      </trkpt>
      <trkpt lat="45.98943" lon="6.47356">
        <ele>1619</ele>
        <time>2010-12-11 09:21:47Z</time>
      </trkpt>
      <trkpt lat="45.98943" lon="6.47356">
        <ele>1619</ele>
        <time>2010-12-11 09:21:51Z</time>
      </trkpt>
      <trkpt lat="45.98943" lon="6.47356">
        <ele>1619</ele>
        <time>2010-12-11 09:21:55Z</time>
      </trkpt>
      <trkpt lat="45.98955" lon="6.47369">
        <ele>1616</ele>
        <time>2010-12-11 09:21:59Z</time>
      </trkpt>
      <trkpt lat="45.98959" lon="6.47368">
        <ele>1615</ele>
        <time>2010-12-11 09:22:03Z</time>
      </trkpt>
      <trkpt lat="45.98961" lon="6.47367">
        <ele>1613</ele>
        <time>2010-12-11 09:22:07Z</time>
      </trkpt>
      <trkpt lat="45.98964" lon="6.47365">
        <ele>1612</ele>
        <time>2010-12-11 09:22:11Z</time>
      </trkpt>
      <trkpt lat="45.98972" lon="6.4736">
        <ele>1610</ele>
        <time>2010-12-11 09:22:15Z</time>
      </trkpt>
      <trkpt lat="45.98977" lon="6.47358">
        <ele>1611</ele>
        <time>2010-12-11 09:22:19Z</time>
      </trkpt>
      <trkpt lat="45.98983" lon="6.47355">
        <ele>1611</ele>
        <time>2010-12-11 09:22:23Z</time>
      </trkpt>
      <trkpt lat="45.98988" lon="6.47353">
        <ele>1611</ele>
        <time>2010-12-11 09:22:27Z</time>
      </trkpt>
      <trkpt lat="45.98988" lon="6.47353">
        <ele>1611</ele>
        <time>2010-12-11 09:22:31Z</time>
      </trkpt>
      <trkpt lat="45.98995" lon="6.4735">
        <ele>1611</ele>
        <time>2010-12-11 09:22:35Z</time>
      </trkpt>
      <trkpt lat="45.98999" lon="6.47351">
        <ele>1611</ele>
        <time>2010-12-11 09:22:39Z</time>
      </trkpt>
      <trkpt lat="45.99002" lon="6.47351">
        <ele>1611</ele>
        <time>2010-12-11 09:22:43Z</time>
      </trkpt>
      <trkpt lat="45.99005" lon="6.47351">
        <ele>1612</ele>
        <time>2010-12-11 09:22:47Z</time>
      </trkpt>
      <trkpt lat="45.99009" lon="6.4735">
        <ele>1612</ele>
        <time>2010-12-11 09:22:51Z</time>
      </trkpt>
      <trkpt lat="45.99009" lon="6.4735">
        <ele>1612</ele>
        <time>2010-12-11 09:22:55Z</time>
      </trkpt>
      <trkpt lat="45.99013" lon="6.47347">
        <ele>1611</ele>
        <time>2010-12-11 09:22:59Z</time>
      </trkpt>
      <trkpt lat="45.99014" lon="6.47346">
        <ele>1610</ele>
        <time>2010-12-11 09:23:03Z</time>
      </trkpt>
      <trkpt lat="45.99014" lon="6.47346">
        <ele>1610</ele>
        <time>2010-12-11 09:23:07Z</time>
      </trkpt>
      <trkpt lat="45.99022" lon="6.47344">
        <ele>1607</ele>
        <time>2010-12-11 09:23:11Z</time>
      </trkpt>
      <trkpt lat="45.99026" lon="6.47345">
        <ele>1605</ele>
        <time>2010-12-11 09:23:15Z</time>
      </trkpt>
      <trkpt lat="45.99031" lon="6.47346">
        <ele>1608</ele>
        <time>2010-12-11 09:23:19Z</time>
      </trkpt>
      <trkpt lat="45.99033" lon="6.47346">
        <ele>1608</ele>
        <time>2010-12-11 09:23:23Z</time>
      </trkpt>
      <trkpt lat="45.99039" lon="6.47349">
        <ele>1610</ele>
        <time>2010-12-11 09:23:27Z</time>
      </trkpt>
      <trkpt lat="45.99042" lon="6.47351">
        <ele>1612</ele>
        <time>2010-12-11 09:23:31Z</time>
      </trkpt>
      <trkpt lat="45.99044" lon="6.47353">
        <ele>1613</ele>
        <time>2010-12-11 09:23:35Z</time>
      </trkpt>
      <trkpt lat="45.99044" lon="6.47353">
        <ele>1613</ele>
        <time>2010-12-11 09:23:39Z</time>
      </trkpt>
      <trkpt lat="45.9905" lon="6.47358">
        <ele>1611</ele>
        <time>2010-12-11 09:23:43Z</time>
      </trkpt>
      <trkpt lat="45.99053" lon="6.47362">
        <ele>1610</ele>
        <time>2010-12-11 09:23:47Z</time>
      </trkpt>
      <trkpt lat="45.99054" lon="6.47363">
        <ele>1610</ele>
        <time>2010-12-11 09:23:51Z</time>
      </trkpt>
      <trkpt lat="45.99054" lon="6.47363">
        <ele>1610</ele>
        <time>2010-12-11 09:23:55Z</time>
      </trkpt>
      <trkpt lat="45.99065" lon="6.47372">
        <ele>1613</ele>
        <time>2010-12-11 09:23:59Z</time>
      </trkpt>
      <trkpt lat="45.9907" lon="6.47377">
        <ele>1615</ele>
        <time>2010-12-11 09:24:03Z</time>
      </trkpt>
      <trkpt lat="45.99072" lon="6.47378">
        <ele>1615</ele>
        <time>2010-12-11 09:24:07Z</time>
      </trkpt>
      <trkpt lat="45.9908" lon="6.47387">
        <ele>1616</ele>
        <time>2010-12-11 09:24:11Z</time>
      </trkpt>
      <trkpt lat="45.99083" lon="6.4739">
        <ele>1615</ele>
        <time>2010-12-11 09:24:15Z</time>
      </trkpt>
      <trkpt lat="45.99085" lon="6.47391">
        <ele>1614</ele>
        <time>2010-12-11 09:24:19Z</time>
      </trkpt>
      <trkpt lat="45.99091" lon="6.47397">
        <ele>1612</ele>
        <time>2010-12-11 09:24:23Z</time>
      </trkpt>
      <trkpt lat="45.99095" lon="6.474">
        <ele>1611</ele>
        <time>2010-12-11 09:24:27Z</time>
      </trkpt>
      <trkpt lat="45.99098" lon="6.47405">
        <ele>1612</ele>
        <time>2010-12-11 09:24:31Z</time>
      </trkpt>
      <trkpt lat="45.99099" lon="6.47407">
        <ele>1611</ele>
        <time>2010-12-11 09:24:35Z</time>
      </trkpt>
      <trkpt lat="45.99103" lon="6.47412">
        <ele>1612</ele>
        <time>2010-12-11 09:24:39Z</time>
      </trkpt>
      <trkpt lat="45.99107" lon="6.47417">
        <ele>1612</ele>
        <time>2010-12-11 09:24:43Z</time>
      </trkpt>
      <trkpt lat="45.99109" lon="6.47419">
        <ele>1612</ele>
        <time>2010-12-11 09:24:47Z</time>
      </trkpt>
      <trkpt lat="45.99112" lon="6.47428">
        <ele>1611</ele>
        <time>2010-12-11 09:24:51Z</time>
      </trkpt>
      <trkpt lat="45.99115" lon="6.47432">
        <ele>1613</ele>
        <time>2010-12-11 09:24:55Z</time>
      </trkpt>
      <trkpt lat="45.99118" lon="6.47435">
        <ele>1613</ele>
        <time>2010-12-11 09:24:59Z</time>
      </trkpt>
      <trkpt lat="45.9912" lon="6.47437">
        <ele>1613</ele>
        <time>2010-12-11 09:25:03Z</time>
      </trkpt>
      <trkpt lat="45.99124" lon="6.47441">
        <ele>1613</ele>
        <time>2010-12-11 09:25:07Z</time>
      </trkpt>
      <trkpt lat="45.9913" lon="6.47445">
        <ele>1610</ele>
        <time>2010-12-11 09:25:11Z</time>
      </trkpt>
      <trkpt lat="45.99134" lon="6.47449">
        <ele>1608</ele>
        <time>2010-12-11 09:25:15Z</time>
      </trkpt>
      <trkpt lat="45.99139" lon="6.47453">
        <ele>1608</ele>
        <time>2010-12-11 09:25:19Z</time>
      </trkpt>
      <trkpt lat="45.99143" lon="6.47458">
        <ele>1608</ele>
        <time>2010-12-11 09:25:23Z</time>
      </trkpt>
      <trkpt lat="45.99145" lon="6.47462">
        <ele>1608</ele>
        <time>2010-12-11 09:25:27Z</time>
      </trkpt>
      <trkpt lat="45.99147" lon="6.47466">
        <ele>1608</ele>
        <time>2010-12-11 09:25:31Z</time>
      </trkpt>
      <trkpt lat="45.99147" lon="6.47466">
        <ele>1608</ele>
        <time>2010-12-11 09:25:35Z</time>
      </trkpt>
      <trkpt lat="45.99147" lon="6.47466">
        <ele>1608</ele>
        <time>2010-12-11 09:25:39Z</time>
      </trkpt>
      <trkpt lat="45.99147" lon="6.47466">
        <ele>1608</ele>
        <time>2010-12-11 09:25:43Z</time>
      </trkpt>
      <trkpt lat="45.99147" lon="6.47466">
        <ele>1608</ele>
        <time>2010-12-11 09:25:47Z</time>
      </trkpt>
      <trkpt lat="45.99147" lon="6.47466">
        <ele>1608</ele>
        <time>2010-12-11 09:25:51Z</time>
      </trkpt>
      <trkpt lat="45.99147" lon="6.47466">
        <ele>1608</ele>
        <time>2010-12-11 09:25:55Z</time>
      </trkpt>
      <trkpt lat="45.99147" lon="6.47466">
        <ele>1608</ele>
        <time>2010-12-11 09:25:59Z</time>
      </trkpt>
      <trkpt lat="45.99146" lon="6.47476">
        <ele>1621</ele>
        <time>2010-12-11 09:26:03Z</time>
      </trkpt>
      <trkpt lat="45.99146" lon="6.47476">
        <ele>1621</ele>
        <time>2010-12-11 09:26:07Z</time>
      </trkpt>
      <trkpt lat="45.99146" lon="6.47476">
        <ele>1621</ele>
        <time>2010-12-11 09:26:11Z</time>
      </trkpt>
      <trkpt lat="45.99149" lon="6.47479">
        <ele>1621</ele>
        <time>2010-12-11 09:26:15Z</time>
      </trkpt>
      <trkpt lat="45.99152" lon="6.47481">
        <ele>1623</ele>
        <time>2010-12-11 09:26:19Z</time>
      </trkpt>
      <trkpt lat="45.99157" lon="6.47484">
        <ele>1627</ele>
        <time>2010-12-11 09:26:23Z</time>
      </trkpt>
      <trkpt lat="45.99163" lon="6.47488">
        <ele>1630</ele>
        <time>2010-12-11 09:26:27Z</time>
      </trkpt>
      <trkpt lat="45.99168" lon="6.4749">
        <ele>1632</ele>
        <time>2010-12-11 09:26:31Z</time>
      </trkpt>
      <trkpt lat="45.99174" lon="6.47493">
        <ele>1633</ele>
        <time>2010-12-11 09:26:35Z</time>
      </trkpt>
      <trkpt lat="45.99178" lon="6.47495">
        <ele>1634</ele>
        <time>2010-12-11 09:26:39Z</time>
      </trkpt>
      <trkpt lat="45.9918" lon="6.47496">
        <ele>1635</ele>
        <time>2010-12-11 09:26:43Z</time>
      </trkpt>
      <trkpt lat="45.99183" lon="6.47497">
        <ele>1638</ele>
        <time>2010-12-11 09:26:47Z</time>
      </trkpt>
      <trkpt lat="45.99188" lon="6.47498">
        <ele>1640</ele>
        <time>2010-12-11 09:26:51Z</time>
      </trkpt>
      <trkpt lat="45.99191" lon="6.47498">
        <ele>1642</ele>
        <time>2010-12-11 09:26:55Z</time>
      </trkpt>
      <trkpt lat="45.99194" lon="6.47499">
        <ele>1643</ele>
        <time>2010-12-11 09:26:59Z</time>
      </trkpt>
      <trkpt lat="45.99196" lon="6.475">
        <ele>1644</ele>
        <time>2010-12-11 09:27:03Z</time>
      </trkpt>
      <trkpt lat="45.99199" lon="6.47502">
        <ele>1645</ele>
        <time>2010-12-11 09:27:07Z</time>
      </trkpt>
      <trkpt lat="45.99201" lon="6.47505">
        <ele>1646</ele>
        <time>2010-12-11 09:27:11Z</time>
      </trkpt>
      <trkpt lat="45.99204" lon="6.47508">
        <ele>1647</ele>
        <time>2010-12-11 09:27:15Z</time>
      </trkpt>
      <trkpt lat="45.99207" lon="6.47516">
        <ele>1649</ele>
        <time>2010-12-11 09:27:19Z</time>
      </trkpt>
      <trkpt lat="45.99208" lon="6.47519">
        <ele>1650</ele>
        <time>2010-12-11 09:27:23Z</time>
      </trkpt>
      <trkpt lat="45.99212" lon="6.47525">
        <ele>1651</ele>
        <time>2010-12-11 09:27:27Z</time>
      </trkpt>
      <trkpt lat="45.99213" lon="6.47528">
        <ele>1651</ele>
        <time>2010-12-11 09:27:31Z</time>
      </trkpt>
      <trkpt lat="45.99216" lon="6.47531">
        <ele>1650</ele>
        <time>2010-12-11 09:27:35Z</time>
      </trkpt>
      <trkpt lat="45.99216" lon="6.47531">
        <ele>1650</ele>
        <time>2010-12-11 09:27:39Z</time>
      </trkpt>
      <trkpt lat="45.99218" lon="6.47536">
        <ele>1649</ele>
        <time>2010-12-11 09:27:43Z</time>
      </trkpt>
      <trkpt lat="45.99218" lon="6.47536">
        <ele>1649</ele>
        <time>2010-12-11 09:27:47Z</time>
      </trkpt>
      <trkpt lat="45.99218" lon="6.47536">
        <ele>1649</ele>
        <time>2010-12-11 09:27:51Z</time>
      </trkpt>
      <trkpt lat="45.99218" lon="6.47536">
        <ele>1649</ele>
        <time>2010-12-11 09:27:55Z</time>
      </trkpt>
      <trkpt lat="45.99218" lon="6.47536">
        <ele>1649</ele>
        <time>2010-12-11 09:27:59Z</time>
      </trkpt>
      <trkpt lat="45.99218" lon="6.47534">
        <ele>1653</ele>
        <time>2010-12-11 09:28:03Z</time>
      </trkpt>
      <trkpt lat="45.99218" lon="6.47534">
        <ele>1653</ele>
        <time>2010-12-11 09:28:07Z</time>
      </trkpt>
      <trkpt lat="45.99218" lon="6.47534">
        <ele>1653</ele>
        <time>2010-12-11 09:28:11Z</time>
      </trkpt>
      <trkpt lat="45.99218" lon="6.47534">
        <ele>1653</ele>
        <time>2010-12-11 09:28:15Z</time>
      </trkpt>
      <trkpt lat="45.99218" lon="6.47534">
        <ele>1653</ele>
        <time>2010-12-11 09:28:19Z</time>
      </trkpt>
      <trkpt lat="45.99218" lon="6.47534">
        <ele>1653</ele>
        <time>2010-12-11 09:28:23Z</time>
      </trkpt>
      <trkpt lat="45.99218" lon="6.47534">
        <ele>1653</ele>
        <time>2010-12-11 09:28:27Z</time>
      </trkpt>
      <trkpt lat="45.99216" lon="6.4753">
        <ele>1654</ele>
        <time>2010-12-11 09:28:31Z</time>
      </trkpt>
      <trkpt lat="45.99216" lon="6.4753">
        <ele>1654</ele>
        <time>2010-12-11 09:28:35Z</time>
      </trkpt>
      <trkpt lat="45.99216" lon="6.4753">
        <ele>1654</ele>
        <time>2010-12-11 09:28:39Z</time>
      </trkpt>
      <trkpt lat="45.99216" lon="6.47533">
        <ele>1652</ele>
        <time>2010-12-11 09:28:43Z</time>
      </trkpt>
      <trkpt lat="45.99216" lon="6.47533">
        <ele>1653</ele>
        <time>2010-12-11 09:28:47Z</time>
      </trkpt>
      <trkpt lat="45.99216" lon="6.47533">
        <ele>1653</ele>
        <time>2010-12-11 09:28:51Z</time>
      </trkpt>
      <trkpt lat="45.99216" lon="6.47533">
        <ele>1653</ele>
        <time>2010-12-11 09:28:55Z</time>
      </trkpt>
      <trkpt lat="45.99217" lon="6.47534">
        <ele>1657</ele>
        <time>2010-12-11 09:28:59Z</time>
      </trkpt>
      <trkpt lat="45.99217" lon="6.47534">
        <ele>1657</ele>
        <time>2010-12-11 09:29:03Z</time>
      </trkpt>
      <trkpt lat="45.99215" lon="6.47531">
        <ele>1653</ele>
        <time>2010-12-11 09:29:07Z</time>
      </trkpt>
      <trkpt lat="45.99215" lon="6.47531">
        <ele>1653</ele>
        <time>2010-12-11 09:29:11Z</time>
      </trkpt>
      <trkpt lat="45.99215" lon="6.47533">
        <ele>1654</ele>
        <time>2010-12-11 09:29:15Z</time>
      </trkpt>
      <trkpt lat="45.99216" lon="6.47534">
        <ele>1653</ele>
        <time>2010-12-11 09:29:19Z</time>
      </trkpt>
      <trkpt lat="45.99216" lon="6.47534">
        <ele>1653</ele>
        <time>2010-12-11 09:29:23Z</time>
      </trkpt>
      <trkpt lat="45.99216" lon="6.47534">
        <ele>1653</ele>
        <time>2010-12-11 09:29:27Z</time>
      </trkpt>
      <trkpt lat="45.99219" lon="6.47535">
        <ele>1652</ele>
        <time>2010-12-11 09:29:31Z</time>
      </trkpt>
      <trkpt lat="45.9922" lon="6.47535">
        <ele>1652</ele>
        <time>2010-12-11 09:29:35Z</time>
      </trkpt>
      <trkpt lat="45.9922" lon="6.47536">
        <ele>1652</ele>
        <time>2010-12-11 09:29:39Z</time>
      </trkpt>
      <trkpt lat="45.99222" lon="6.47538">
        <ele>1653</ele>
        <time>2010-12-11 09:29:43Z</time>
      </trkpt>
      <trkpt lat="45.99223" lon="6.47538">
        <ele>1652</ele>
        <time>2010-12-11 09:29:47Z</time>
      </trkpt>
      <trkpt lat="45.99224" lon="6.47535">
        <ele>1653</ele>
        <time>2010-12-11 09:29:51Z</time>
      </trkpt>
      <trkpt lat="45.99225" lon="6.47531">
        <ele>1653</ele>
        <time>2010-12-11 09:29:55Z</time>
      </trkpt>
      <trkpt lat="45.99225" lon="6.47531">
        <ele>1653</ele>
        <time>2010-12-11 09:29:59Z</time>
      </trkpt>
      <trkpt lat="45.99227" lon="6.47519">
        <ele>1655</ele>
        <time>2010-12-11 09:30:03Z</time>
      </trkpt>
      <trkpt lat="45.99228" lon="6.47511">
        <ele>1656</ele>
        <time>2010-12-11 09:30:07Z</time>
      </trkpt>
      <trkpt lat="45.99229" lon="6.47506">
        <ele>1655</ele>
        <time>2010-12-11 09:30:11Z</time>
      </trkpt>
      <trkpt lat="45.9923" lon="6.47498">
        <ele>1656</ele>
        <time>2010-12-11 09:30:15Z</time>
      </trkpt>
      <trkpt lat="45.99229" lon="6.4749">
        <ele>1659</ele>
        <time>2010-12-11 09:30:19Z</time>
      </trkpt>
      <trkpt lat="45.99229" lon="6.47483">
        <ele>1661</ele>
        <time>2010-12-11 09:30:23Z</time>
      </trkpt>
      <trkpt lat="45.99229" lon="6.47477">
        <ele>1661</ele>
        <time>2010-12-11 09:30:27Z</time>
      </trkpt>
      <trkpt lat="45.99229" lon="6.4747">
        <ele>1660</ele>
        <time>2010-12-11 09:30:31Z</time>
      </trkpt>
      <trkpt lat="45.99228" lon="6.47463">
        <ele>1660</ele>
        <time>2010-12-11 09:30:35Z</time>
      </trkpt>
      <trkpt lat="45.99228" lon="6.47457">
        <ele>1662</ele>
        <time>2010-12-11 09:30:39Z</time>
      </trkpt>
      <trkpt lat="45.99229" lon="6.47451">
        <ele>1662</ele>
        <time>2010-12-11 09:30:43Z</time>
      </trkpt>
      <trkpt lat="45.99229" lon="6.47451">
        <ele>1662</ele>
        <time>2010-12-11 09:30:47Z</time>
      </trkpt>
      <trkpt lat="45.99229" lon="6.47451">
        <ele>1662</ele>
        <time>2010-12-11 09:30:51Z</time>
      </trkpt>
      <trkpt lat="45.9923" lon="6.47454">
        <ele>1661</ele>
        <time>2010-12-11 09:30:55Z</time>
      </trkpt>
      <trkpt lat="45.99232" lon="6.47467">
        <ele>1662</ele>
        <time>2010-12-11 09:30:59Z</time>
      </trkpt>
      <trkpt lat="45.99232" lon="6.47468">
        <ele>1662</ele>
        <time>2010-12-11 09:31:03Z</time>
      </trkpt>
      <trkpt lat="45.99236" lon="6.47479">
        <ele>1661</ele>
        <time>2010-12-11 09:31:07Z</time>
      </trkpt>
      <trkpt lat="45.99236" lon="6.47479">
        <ele>1661</ele>
        <time>2010-12-11 09:31:11Z</time>
      </trkpt>
      <trkpt lat="45.99238" lon="6.47483">
        <ele>1663</ele>
        <time>2010-12-11 09:31:15Z</time>
      </trkpt>
      <trkpt lat="45.99241" lon="6.47488">
        <ele>1663</ele>
        <time>2010-12-11 09:31:19Z</time>
      </trkpt>
      <trkpt lat="45.99243" lon="6.47492">
        <ele>1665</ele>
        <time>2010-12-11 09:31:23Z</time>
      </trkpt>
      <trkpt lat="45.99244" lon="6.47495">
        <ele>1666</ele>
        <time>2010-12-11 09:31:27Z</time>
      </trkpt>
      <trkpt lat="45.99246" lon="6.47497">
        <ele>1666</ele>
        <time>2010-12-11 09:31:31Z</time>
      </trkpt>
      <trkpt lat="45.99248" lon="6.47501">
        <ele>1667</ele>
        <time>2010-12-11 09:31:35Z</time>
      </trkpt>
      <trkpt lat="45.99248" lon="6.47501">
        <ele>1667</ele>
        <time>2010-12-11 09:31:39Z</time>
      </trkpt>
      <trkpt lat="45.99254" lon="6.47514">
        <ele>1668</ele>
        <time>2010-12-11 09:31:43Z</time>
      </trkpt>
      <trkpt lat="45.99255" lon="6.47517">
        <ele>1668</ele>
        <time>2010-12-11 09:31:47Z</time>
      </trkpt>
      <trkpt lat="45.99258" lon="6.4752">
        <ele>1669</ele>
        <time>2010-12-11 09:31:51Z</time>
      </trkpt>
      <trkpt lat="45.9926" lon="6.47521">
        <ele>1670</ele>
        <time>2010-12-11 09:31:55Z</time>
      </trkpt>
      <trkpt lat="45.99263" lon="6.47528">
        <ele>1672</ele>
        <time>2010-12-11 09:31:59Z</time>
      </trkpt>
      <trkpt lat="45.99265" lon="6.47533">
        <ele>1672</ele>
        <time>2010-12-11 09:32:03Z</time>
      </trkpt>
      <trkpt lat="45.99267" lon="6.47536">
        <ele>1672</ele>
        <time>2010-12-11 09:32:07Z</time>
      </trkpt>
      <trkpt lat="45.99269" lon="6.47539">
        <ele>1671</ele>
        <time>2010-12-11 09:32:11Z</time>
      </trkpt>
      <trkpt lat="45.99272" lon="6.47544">
        <ele>1672</ele>
        <time>2010-12-11 09:32:15Z</time>
      </trkpt>
      <trkpt lat="45.99274" lon="6.47547">
        <ele>1673</ele>
        <time>2010-12-11 09:32:19Z</time>
      </trkpt>
      <trkpt lat="45.99278" lon="6.47551">
        <ele>1674</ele>
        <time>2010-12-11 09:32:23Z</time>
      </trkpt>
      <trkpt lat="45.99281" lon="6.47557">
        <ele>1675</ele>
        <time>2010-12-11 09:32:27Z</time>
      </trkpt>
      <trkpt lat="45.99285" lon="6.47561">
        <ele>1677</ele>
        <time>2010-12-11 09:32:31Z</time>
      </trkpt>
      <trkpt lat="45.99285" lon="6.47561">
        <ele>1677</ele>
        <time>2010-12-11 09:32:35Z</time>
      </trkpt>
      <trkpt lat="45.9929" lon="6.47568">
        <ele>1674</ele>
        <time>2010-12-11 09:32:39Z</time>
      </trkpt>
      <trkpt lat="45.9929" lon="6.47568">
        <ele>1674</ele>
        <time>2010-12-11 09:32:43Z</time>
      </trkpt>
      <trkpt lat="45.99295" lon="6.47574">
        <ele>1675</ele>
        <time>2010-12-11 09:32:47Z</time>
      </trkpt>
      <trkpt lat="45.99298" lon="6.47578">
        <ele>1675</ele>
        <time>2010-12-11 09:32:51Z</time>
      </trkpt>
      <trkpt lat="45.99301" lon="6.47584">
        <ele>1676</ele>
        <time>2010-12-11 09:32:55Z</time>
      </trkpt>
      <trkpt lat="45.99303" lon="6.47586">
        <ele>1676</ele>
        <time>2010-12-11 09:32:59Z</time>
      </trkpt>
      <trkpt lat="45.99306" lon="6.47591">
        <ele>1679</ele>
        <time>2010-12-11 09:33:03Z</time>
      </trkpt>
      <trkpt lat="45.99307" lon="6.47594">
        <ele>1681</ele>
        <time>2010-12-11 09:33:07Z</time>
      </trkpt>
      <trkpt lat="45.99309" lon="6.47599">
        <ele>1681</ele>
        <time>2010-12-11 09:33:11Z</time>
      </trkpt>
      <trkpt lat="45.99309" lon="6.47599">
        <ele>1681</ele>
        <time>2010-12-11 09:33:15Z</time>
      </trkpt>
      <trkpt lat="45.99313" lon="6.47607">
        <ele>1682</ele>
        <time>2010-12-11 09:33:19Z</time>
      </trkpt>
      <trkpt lat="45.99317" lon="6.47614">
        <ele>1683</ele>
        <time>2010-12-11 09:33:23Z</time>
      </trkpt>
      <trkpt lat="45.9932" lon="6.47618">
        <ele>1684</ele>
        <time>2010-12-11 09:33:27Z</time>
      </trkpt>
      <trkpt lat="45.9932" lon="6.47618">
        <ele>1684</ele>
        <time>2010-12-11 09:33:31Z</time>
      </trkpt>
      <trkpt lat="45.99324" lon="6.47626">
        <ele>1685</ele>
        <time>2010-12-11 09:33:35Z</time>
      </trkpt>
      <trkpt lat="45.99324" lon="6.47626">
        <ele>1685</ele>
        <time>2010-12-11 09:33:39Z</time>
      </trkpt>
      <trkpt lat="45.99328" lon="6.47637">
        <ele>1686</ele>
        <time>2010-12-11 09:33:43Z</time>
      </trkpt>
      <trkpt lat="45.99329" lon="6.47639">
        <ele>1686</ele>
        <time>2010-12-11 09:33:47Z</time>
      </trkpt>
      <trkpt lat="45.99332" lon="6.47647">
        <ele>1686</ele>
        <time>2010-12-11 09:33:51Z</time>
      </trkpt>
      <trkpt lat="45.99335" lon="6.47651">
        <ele>1686</ele>
        <time>2010-12-11 09:33:55Z</time>
      </trkpt>
      <trkpt lat="45.99337" lon="6.47654">
        <ele>1687</ele>
        <time>2010-12-11 09:33:59Z</time>
      </trkpt>
      <trkpt lat="45.9934" lon="6.47658">
        <ele>1689</ele>
        <time>2010-12-11 09:34:03Z</time>
      </trkpt>
      <trkpt lat="45.99342" lon="6.47661">
        <ele>1691</ele>
        <time>2010-12-11 09:34:07Z</time>
      </trkpt>
      <trkpt lat="45.99344" lon="6.47665">
        <ele>1692</ele>
        <time>2010-12-11 09:34:11Z</time>
      </trkpt>
      <trkpt lat="45.99345" lon="6.47668">
        <ele>1693</ele>
        <time>2010-12-11 09:34:15Z</time>
      </trkpt>
      <trkpt lat="45.99348" lon="6.47673">
        <ele>1695</ele>
        <time>2010-12-11 09:34:19Z</time>
      </trkpt>
      <trkpt lat="45.99352" lon="6.47677">
        <ele>1694</ele>
        <time>2010-12-11 09:34:23Z</time>
      </trkpt>
      <trkpt lat="45.99356" lon="6.4768">
        <ele>1694</ele>
        <time>2010-12-11 09:34:27Z</time>
      </trkpt>
      <trkpt lat="45.99357" lon="6.47681">
        <ele>1694</ele>
        <time>2010-12-11 09:34:31Z</time>
      </trkpt>
      <trkpt lat="45.99363" lon="6.47681">
        <ele>1696</ele>
        <time>2010-12-11 09:34:35Z</time>
      </trkpt>
      <trkpt lat="45.99368" lon="6.47682">
        <ele>1698</ele>
        <time>2010-12-11 09:34:39Z</time>
      </trkpt>
      <trkpt lat="45.9937" lon="6.47682">
        <ele>1698</ele>
        <time>2010-12-11 09:34:43Z</time>
      </trkpt>
      <trkpt lat="45.9937" lon="6.47682">
        <ele>1698</ele>
        <time>2010-12-11 09:34:47Z</time>
      </trkpt>
      <trkpt lat="45.9937" lon="6.47682">
        <ele>1698</ele>
        <time>2010-12-11 09:34:51Z</time>
      </trkpt>
      <trkpt lat="45.99374" lon="6.47681">
        <ele>1700</ele>
        <time>2010-12-11 09:34:55Z</time>
      </trkpt>
      <trkpt lat="45.99375" lon="6.4768">
        <ele>1700</ele>
        <time>2010-12-11 09:34:59Z</time>
      </trkpt>
      <trkpt lat="45.99375" lon="6.47678">
        <ele>1701</ele>
        <time>2010-12-11 09:35:03Z</time>
      </trkpt>
      <trkpt lat="45.99376" lon="6.47674">
        <ele>1703</ele>
        <time>2010-12-11 09:35:07Z</time>
      </trkpt>
      <trkpt lat="45.99376" lon="6.4767">
        <ele>1704</ele>
        <time>2010-12-11 09:35:11Z</time>
      </trkpt>
      <trkpt lat="45.99376" lon="6.47666">
        <ele>1705</ele>
        <time>2010-12-11 09:35:15Z</time>
      </trkpt>
      <trkpt lat="45.99375" lon="6.47658">
        <ele>1706</ele>
        <time>2010-12-11 09:35:19Z</time>
      </trkpt>
      <trkpt lat="45.99374" lon="6.47652">
        <ele>1707</ele>
        <time>2010-12-11 09:35:23Z</time>
      </trkpt>
      <trkpt lat="45.99373" lon="6.47645">
        <ele>1707</ele>
        <time>2010-12-11 09:35:27Z</time>
      </trkpt>
      <trkpt lat="45.99372" lon="6.4764">
        <ele>1707</ele>
        <time>2010-12-11 09:35:31Z</time>
      </trkpt>
      <trkpt lat="45.99371" lon="6.47634">
        <ele>1707</ele>
        <time>2010-12-11 09:35:35Z</time>
      </trkpt>
      <trkpt lat="45.9937" lon="6.47629">
        <ele>1707</ele>
        <time>2010-12-11 09:35:39Z</time>
      </trkpt>
      <trkpt lat="45.99369" lon="6.47622">
        <ele>1708</ele>
        <time>2010-12-11 09:35:43Z</time>
      </trkpt>
      <trkpt lat="45.99371" lon="6.47617">
        <ele>1710</ele>
        <time>2010-12-11 09:35:47Z</time>
      </trkpt>
      <trkpt lat="45.99372" lon="6.47615">
        <ele>1711</ele>
        <time>2010-12-11 09:35:51Z</time>
      </trkpt>
      <trkpt lat="45.99374" lon="6.47616">
        <ele>1712</ele>
        <time>2010-12-11 09:35:55Z</time>
      </trkpt>
      <trkpt lat="45.99375" lon="6.47616">
        <ele>1713</ele>
        <time>2010-12-11 09:35:59Z</time>
      </trkpt>
      <trkpt lat="45.99377" lon="6.47622">
        <ele>1715</ele>
        <time>2010-12-11 09:36:03Z</time>
      </trkpt>
      <trkpt lat="45.99377" lon="6.47624">
        <ele>1715</ele>
        <time>2010-12-11 09:36:07Z</time>
      </trkpt>
      <trkpt lat="45.99379" lon="6.4763">
        <ele>1717</ele>
        <time>2010-12-11 09:36:11Z</time>
      </trkpt>
      <trkpt lat="45.99381" lon="6.47636">
        <ele>1718</ele>
        <time>2010-12-11 09:36:15Z</time>
      </trkpt>
      <trkpt lat="45.99383" lon="6.47641">
        <ele>1720</ele>
        <time>2010-12-11 09:36:19Z</time>
      </trkpt>
      <trkpt lat="45.99386" lon="6.47646">
        <ele>1720</ele>
        <time>2010-12-11 09:36:23Z</time>
      </trkpt>
      <trkpt lat="45.99388" lon="6.47649">
        <ele>1720</ele>
        <time>2010-12-11 09:36:27Z</time>
      </trkpt>
      <trkpt lat="45.99391" lon="6.47653">
        <ele>1719</ele>
        <time>2010-12-11 09:36:31Z</time>
      </trkpt>
      <trkpt lat="45.99393" lon="6.47656">
        <ele>1720</ele>
        <time>2010-12-11 09:36:35Z</time>
      </trkpt>
      <trkpt lat="45.99395" lon="6.4766">
        <ele>1719</ele>
        <time>2010-12-11 09:36:39Z</time>
      </trkpt>
      <trkpt lat="45.99398" lon="6.47666">
        <ele>1719</ele>
        <time>2010-12-11 09:36:43Z</time>
      </trkpt>
      <trkpt lat="45.99402" lon="6.47673">
        <ele>1719</ele>
        <time>2010-12-11 09:36:47Z</time>
      </trkpt>
      <trkpt lat="45.99404" lon="6.47677">
        <ele>1720</ele>
        <time>2010-12-11 09:36:51Z</time>
      </trkpt>
      <trkpt lat="45.99408" lon="6.47684">
        <ele>1721</ele>
        <time>2010-12-11 09:36:55Z</time>
      </trkpt>
      <trkpt lat="45.99411" lon="6.47686">
        <ele>1721</ele>
        <time>2010-12-11 09:36:59Z</time>
      </trkpt>
      <trkpt lat="45.99414" lon="6.47689">
        <ele>1721</ele>
        <time>2010-12-11 09:37:03Z</time>
      </trkpt>
      <trkpt lat="45.99418" lon="6.47689">
        <ele>1722</ele>
        <time>2010-12-11 09:37:07Z</time>
      </trkpt>
      <trkpt lat="45.99421" lon="6.47686">
        <ele>1721</ele>
        <time>2010-12-11 09:37:11Z</time>
      </trkpt>
      <trkpt lat="45.99423" lon="6.47688">
        <ele>1723</ele>
        <time>2010-12-11 09:37:15Z</time>
      </trkpt>
      <trkpt lat="45.99424" lon="6.47689">
        <ele>1723</ele>
        <time>2010-12-11 09:37:19Z</time>
      </trkpt>
      <trkpt lat="45.99423" lon="6.47688">
        <ele>1723</ele>
        <time>2010-12-11 09:37:23Z</time>
      </trkpt>
      <trkpt lat="45.99423" lon="6.47689">
        <ele>1723</ele>
        <time>2010-12-11 09:37:27Z</time>
      </trkpt>
      <trkpt lat="45.99423" lon="6.47689">
        <ele>1724</ele>
        <time>2010-12-11 09:37:31Z</time>
      </trkpt>
      <trkpt lat="45.99423" lon="6.47689">
        <ele>1723</ele>
        <time>2010-12-11 09:37:35Z</time>
      </trkpt>
      <trkpt lat="45.99423" lon="6.47689">
        <ele>1722</ele>
        <time>2010-12-11 09:37:39Z</time>
      </trkpt>
      <trkpt lat="45.99424" lon="6.47689">
        <ele>1727</ele>
        <time>2010-12-11 09:37:43Z</time>
      </trkpt>
      <trkpt lat="45.99424" lon="6.47689">
        <ele>1728</ele>
        <time>2010-12-11 09:37:47Z</time>
      </trkpt>
      <trkpt lat="45.99424" lon="6.47689">
        <ele>1728</ele>
        <time>2010-12-11 09:37:51Z</time>
      </trkpt>
      <trkpt lat="45.99424" lon="6.47689">
        <ele>1728</ele>
        <time>2010-12-11 09:37:55Z</time>
      </trkpt>
      <trkpt lat="45.99424" lon="6.47689">
        <ele>1728</ele>
        <time>2010-12-11 09:37:59Z</time>
      </trkpt>
      <trkpt lat="45.99424" lon="6.4769">
        <ele>1728</ele>
        <time>2010-12-11 09:38:03Z</time>
      </trkpt>
      <trkpt lat="45.99424" lon="6.47691">
        <ele>1727</ele>
        <time>2010-12-11 09:38:07Z</time>
      </trkpt>
      <trkpt lat="45.99424" lon="6.47692">
        <ele>1728</ele>
        <time>2010-12-11 09:38:11Z</time>
      </trkpt>
      <trkpt lat="45.99424" lon="6.47693">
        <ele>1728</ele>
        <time>2010-12-11 09:38:15Z</time>
      </trkpt>
      <trkpt lat="45.99424" lon="6.47693">
        <ele>1727</ele>
        <time>2010-12-11 09:38:19Z</time>
      </trkpt>
      <trkpt lat="45.99424" lon="6.47692">
        <ele>1727</ele>
        <time>2010-12-11 09:38:23Z</time>
      </trkpt>
      <trkpt lat="45.99423" lon="6.4769">
        <ele>1727</ele>
        <time>2010-12-11 09:38:27Z</time>
      </trkpt>
      <trkpt lat="45.99421" lon="6.47689">
        <ele>1728</ele>
        <time>2010-12-11 09:38:31Z</time>
      </trkpt>
      <trkpt lat="45.99419" lon="6.47684">
        <ele>1730</ele>
        <time>2010-12-11 09:38:35Z</time>
      </trkpt>
      <trkpt lat="45.99419" lon="6.47682">
        <ele>1730</ele>
        <time>2010-12-11 09:38:39Z</time>
      </trkpt>
      <trkpt lat="45.99424" lon="6.4768">
        <ele>1729</ele>
        <time>2010-12-11 09:38:43Z</time>
      </trkpt>
      <trkpt lat="45.99426" lon="6.47679">
        <ele>1728</ele>
        <time>2010-12-11 09:38:47Z</time>
      </trkpt>
      <trkpt lat="45.99428" lon="6.47678">
        <ele>1729</ele>
        <time>2010-12-11 09:38:51Z</time>
      </trkpt>
      <trkpt lat="45.99429" lon="6.47676">
        <ele>1728</ele>
        <time>2010-12-11 09:38:55Z</time>
      </trkpt>
      <trkpt lat="45.9943" lon="6.47674">
        <ele>1728</ele>
        <time>2010-12-11 09:38:59Z</time>
      </trkpt>
      <trkpt lat="45.9943" lon="6.47671">
        <ele>1729</ele>
        <time>2010-12-11 09:39:03Z</time>
      </trkpt>
      <trkpt lat="45.99429" lon="6.47668">
        <ele>1730</ele>
        <time>2010-12-11 09:39:07Z</time>
      </trkpt>
      <trkpt lat="45.99429" lon="6.47668">
        <ele>1730</ele>
        <time>2010-12-11 09:39:11Z</time>
      </trkpt>
      <trkpt lat="45.99428" lon="6.47665">
        <ele>1731</ele>
        <time>2010-12-11 09:39:15Z</time>
      </trkpt>
      <trkpt lat="45.99428" lon="6.47664">
        <ele>1733</ele>
        <time>2010-12-11 09:39:19Z</time>
      </trkpt>
      <trkpt lat="45.99428" lon="6.47662">
        <ele>1734</ele>
        <time>2010-12-11 09:39:23Z</time>
      </trkpt>
      <trkpt lat="45.99429" lon="6.47663">
        <ele>1735</ele>
        <time>2010-12-11 09:39:27Z</time>
      </trkpt>
      <trkpt lat="45.99431" lon="6.47664">
        <ele>1735</ele>
        <time>2010-12-11 09:39:31Z</time>
      </trkpt>
      <trkpt lat="45.99433" lon="6.47665">
        <ele>1737</ele>
        <time>2010-12-11 09:39:35Z</time>
      </trkpt>
      <trkpt lat="45.99435" lon="6.47665">
        <ele>1736</ele>
        <time>2010-12-11 09:39:39Z</time>
      </trkpt>
      <trkpt lat="45.99438" lon="6.47663">
        <ele>1739</ele>
        <time>2010-12-11 09:39:43Z</time>
      </trkpt>
      <trkpt lat="45.99439" lon="6.4766">
        <ele>1740</ele>
        <time>2010-12-11 09:39:47Z</time>
      </trkpt>
      <trkpt lat="45.99439" lon="6.47658">
        <ele>1741</ele>
        <time>2010-12-11 09:39:51Z</time>
      </trkpt>
      <trkpt lat="45.9944" lon="6.47655">
        <ele>1743</ele>
        <time>2010-12-11 09:39:55Z</time>
      </trkpt>
      <trkpt lat="45.99442" lon="6.47653">
        <ele>1745</ele>
        <time>2010-12-11 09:39:59Z</time>
      </trkpt>
      <trkpt lat="45.99443" lon="6.47651">
        <ele>1745</ele>
        <time>2010-12-11 09:40:03Z</time>
      </trkpt>
      <trkpt lat="45.99446" lon="6.47648">
        <ele>1745</ele>
        <time>2010-12-11 09:40:07Z</time>
      </trkpt>
      <trkpt lat="45.99448" lon="6.47645">
        <ele>1746</ele>
        <time>2010-12-11 09:40:11Z</time>
      </trkpt>
      <trkpt lat="45.9945" lon="6.47641">
        <ele>1743</ele>
        <time>2010-12-11 09:40:15Z</time>
      </trkpt>
      <trkpt lat="45.99451" lon="6.47638">
        <ele>1741</ele>
        <time>2010-12-11 09:40:19Z</time>
      </trkpt>
      <trkpt lat="45.99452" lon="6.47638">
        <ele>1741</ele>
        <time>2010-12-11 09:40:23Z</time>
      </trkpt>
      <trkpt lat="45.99453" lon="6.47637">
        <ele>1742</ele>
        <time>2010-12-11 09:40:27Z</time>
      </trkpt>
      <trkpt lat="45.99452" lon="6.47637">
        <ele>1742</ele>
        <time>2010-12-11 09:40:31Z</time>
      </trkpt>
      <trkpt lat="45.9945" lon="6.47637">
        <ele>1742</ele>
        <time>2010-12-11 09:40:35Z</time>
      </trkpt>
      <trkpt lat="45.99451" lon="6.47635">
        <ele>1742</ele>
        <time>2010-12-11 09:40:39Z</time>
      </trkpt>
      <trkpt lat="45.99454" lon="6.47634">
        <ele>1743</ele>
        <time>2010-12-11 09:40:43Z</time>
      </trkpt>
      <trkpt lat="45.99457" lon="6.47632">
        <ele>1744</ele>
        <time>2010-12-11 09:40:47Z</time>
      </trkpt>
      <trkpt lat="45.9946" lon="6.47631">
        <ele>1744</ele>
        <time>2010-12-11 09:40:51Z</time>
      </trkpt>
      <trkpt lat="45.99463" lon="6.4763">
        <ele>1745</ele>
        <time>2010-12-11 09:40:55Z</time>
      </trkpt>
      <trkpt lat="45.99465" lon="6.47627">
        <ele>1746</ele>
        <time>2010-12-11 09:40:59Z</time>
      </trkpt>
      <trkpt lat="45.99467" lon="6.47622">
        <ele>1746</ele>
        <time>2010-12-11 09:41:03Z</time>
      </trkpt>
      <trkpt lat="45.99469" lon="6.4762">
        <ele>1747</ele>
        <time>2010-12-11 09:41:07Z</time>
      </trkpt>
      <trkpt lat="45.99472" lon="6.47617">
        <ele>1749</ele>
        <time>2010-12-11 09:41:11Z</time>
      </trkpt>
      <trkpt lat="45.99476" lon="6.47613">
        <ele>1748</ele>
        <time>2010-12-11 09:41:15Z</time>
      </trkpt>
      <trkpt lat="45.99477" lon="6.47609">
        <ele>1747</ele>
        <time>2010-12-11 09:41:19Z</time>
      </trkpt>
      <trkpt lat="45.9948" lon="6.47605">
        <ele>1749</ele>
        <time>2010-12-11 09:41:23Z</time>
      </trkpt>
      <trkpt lat="45.99482" lon="6.47604">
        <ele>1749</ele>
        <time>2010-12-11 09:41:27Z</time>
      </trkpt>
      <trkpt lat="45.99484" lon="6.47604">
        <ele>1749</ele>
        <time>2010-12-11 09:41:31Z</time>
      </trkpt>
      <trkpt lat="45.99484" lon="6.47603">
        <ele>1750</ele>
        <time>2010-12-11 09:41:35Z</time>
      </trkpt>
      <trkpt lat="45.99484" lon="6.47599">
        <ele>1750</ele>
        <time>2010-12-11 09:41:39Z</time>
      </trkpt>
      <trkpt lat="45.99484" lon="6.47596">
        <ele>1752</ele>
        <time>2010-12-11 09:41:43Z</time>
      </trkpt>
      <trkpt lat="45.99485" lon="6.47592">
        <ele>1753</ele>
        <time>2010-12-11 09:41:47Z</time>
      </trkpt>
      <trkpt lat="45.99486" lon="6.47589">
        <ele>1754</ele>
        <time>2010-12-11 09:41:51Z</time>
      </trkpt>
      <trkpt lat="45.99488" lon="6.47586">
        <ele>1754</ele>
        <time>2010-12-11 09:41:55Z</time>
      </trkpt>
      <trkpt lat="45.9949" lon="6.47585">
        <ele>1755</ele>
        <time>2010-12-11 09:41:59Z</time>
      </trkpt>
      <trkpt lat="45.99493" lon="6.47585">
        <ele>1756</ele>
        <time>2010-12-11 09:42:03Z</time>
      </trkpt>
      <trkpt lat="45.99497" lon="6.47584">
        <ele>1757</ele>
        <time>2010-12-11 09:42:07Z</time>
      </trkpt>
      <trkpt lat="45.995" lon="6.47584">
        <ele>1759</ele>
        <time>2010-12-11 09:42:11Z</time>
      </trkpt>
      <trkpt lat="45.99503" lon="6.47585">
        <ele>1759</ele>
        <time>2010-12-11 09:42:15Z</time>
      </trkpt>
      <trkpt lat="45.99506" lon="6.47586">
        <ele>1761</ele>
        <time>2010-12-11 09:42:19Z</time>
      </trkpt>
      <trkpt lat="45.99509" lon="6.47586">
        <ele>1762</ele>
        <time>2010-12-11 09:42:23Z</time>
      </trkpt>
      <trkpt lat="45.99511" lon="6.47585">
        <ele>1764</ele>
        <time>2010-12-11 09:42:27Z</time>
      </trkpt>
      <trkpt lat="45.99512" lon="6.47584">
        <ele>1764</ele>
        <time>2010-12-11 09:42:31Z</time>
      </trkpt>
      <trkpt lat="45.99513" lon="6.47584">
        <ele>1764</ele>
        <time>2010-12-11 09:42:35Z</time>
      </trkpt>
      <trkpt lat="45.99515" lon="6.47584">
        <ele>1765</ele>
        <time>2010-12-11 09:42:39Z</time>
      </trkpt>
      <trkpt lat="45.99516" lon="6.47584">
        <ele>1765</ele>
        <time>2010-12-11 09:42:43Z</time>
      </trkpt>
      <trkpt lat="45.99519" lon="6.47585">
        <ele>1765</ele>
        <time>2010-12-11 09:42:47Z</time>
      </trkpt>
      <trkpt lat="45.99521" lon="6.47584">
        <ele>1767</ele>
        <time>2010-12-11 09:42:51Z</time>
      </trkpt>
      <trkpt lat="45.99523" lon="6.47582">
        <ele>1769</ele>
        <time>2010-12-11 09:42:55Z</time>
      </trkpt>
      <trkpt lat="45.99524" lon="6.47581">
        <ele>1769</ele>
        <time>2010-12-11 09:42:59Z</time>
      </trkpt>
      <trkpt lat="45.99524" lon="6.47579">
        <ele>1769</ele>
        <time>2010-12-11 09:43:03Z</time>
      </trkpt>
      <trkpt lat="45.99526" lon="6.47578">
        <ele>1771</ele>
        <time>2010-12-11 09:43:07Z</time>
      </trkpt>
      <trkpt lat="45.99528" lon="6.47577">
        <ele>1771</ele>
        <time>2010-12-11 09:43:11Z</time>
      </trkpt>
      <trkpt lat="45.99531" lon="6.47576">
        <ele>1771</ele>
        <time>2010-12-11 09:43:15Z</time>
      </trkpt>
      <trkpt lat="45.99534" lon="6.47575">
        <ele>1773</ele>
        <time>2010-12-11 09:43:19Z</time>
      </trkpt>
      <trkpt lat="45.99537" lon="6.47573">
        <ele>1775</ele>
        <time>2010-12-11 09:43:23Z</time>
      </trkpt>
      <trkpt lat="45.9954" lon="6.47571">
        <ele>1776</ele>
        <time>2010-12-11 09:43:27Z</time>
      </trkpt>
      <trkpt lat="45.99544" lon="6.47568">
        <ele>1777</ele>
        <time>2010-12-11 09:43:31Z</time>
      </trkpt>
      <trkpt lat="45.99546" lon="6.47566">
        <ele>1777</ele>
        <time>2010-12-11 09:43:35Z</time>
      </trkpt>
      <trkpt lat="45.99553" lon="6.47559">
        <ele>1777</ele>
        <time>2010-12-11 09:43:39Z</time>
      </trkpt>
      <trkpt lat="45.99556" lon="6.47553">
        <ele>1778</ele>
        <time>2010-12-11 09:43:43Z</time>
      </trkpt>
      <trkpt lat="45.99558" lon="6.47549">
        <ele>1779</ele>
        <time>2010-12-11 09:43:47Z</time>
      </trkpt>
      <trkpt lat="45.99561" lon="6.47543">
        <ele>1778</ele>
        <time>2010-12-11 09:43:51Z</time>
      </trkpt>
      <trkpt lat="45.99564" lon="6.47539">
        <ele>1779</ele>
        <time>2010-12-11 09:43:55Z</time>
      </trkpt>
      <trkpt lat="45.99568" lon="6.47534">
        <ele>1778</ele>
        <time>2010-12-11 09:43:59Z</time>
      </trkpt>
      <trkpt lat="45.9957" lon="6.47533">
        <ele>1778</ele>
        <time>2010-12-11 09:44:03Z</time>
      </trkpt>
      <trkpt lat="45.9957" lon="6.47533">
        <ele>1778</ele>
        <time>2010-12-11 09:44:07Z</time>
      </trkpt>
      <trkpt lat="45.99578" lon="6.47526">
        <ele>1779</ele>
        <time>2010-12-11 09:44:11Z</time>
      </trkpt>
      <trkpt lat="45.9958" lon="6.47524">
        <ele>1780</ele>
        <time>2010-12-11 09:44:15Z</time>
      </trkpt>
      <trkpt lat="45.99586" lon="6.4752">
        <ele>1780</ele>
        <time>2010-12-11 09:44:19Z</time>
      </trkpt>
      <trkpt lat="45.99589" lon="6.47518">
        <ele>1781</ele>
        <time>2010-12-11 09:44:23Z</time>
      </trkpt>
      <trkpt lat="45.99591" lon="6.47516">
        <ele>1782</ele>
        <time>2010-12-11 09:44:27Z</time>
      </trkpt>
      <trkpt lat="45.99592" lon="6.47516">
        <ele>1781</ele>
        <time>2010-12-11 09:44:31Z</time>
      </trkpt>
      <trkpt lat="45.99593" lon="6.47514">
        <ele>1781</ele>
        <time>2010-12-11 09:44:35Z</time>
      </trkpt>
      <trkpt lat="45.99596" lon="6.47511">
        <ele>1781</ele>
        <time>2010-12-11 09:44:39Z</time>
      </trkpt>
      <trkpt lat="45.99601" lon="6.47509">
        <ele>1778</ele>
        <time>2010-12-11 09:44:43Z</time>
      </trkpt>
      <trkpt lat="45.9961" lon="6.47518">
        <ele>1778</ele>
        <time>2010-12-11 09:44:47Z</time>
      </trkpt>
      <trkpt lat="45.99619" lon="6.47535">
        <ele>1777</ele>
        <time>2010-12-11 09:44:51Z</time>
      </trkpt>
      <trkpt lat="45.99631" lon="6.4758">
        <ele>1774</ele>
        <time>2010-12-11 09:44:55Z</time>
      </trkpt>
      <trkpt lat="45.99632" lon="6.47591">
        <ele>1774</ele>
        <time>2010-12-11 09:44:59Z</time>
      </trkpt>
      <trkpt lat="45.99633" lon="6.47605">
        <ele>1773</ele>
        <time>2010-12-11 09:45:03Z</time>
      </trkpt>
      <trkpt lat="45.99633" lon="6.47605">
        <ele>1773</ele>
        <time>2010-12-11 09:45:07Z</time>
      </trkpt>
      <trkpt lat="45.99633" lon="6.47605">
        <ele>1773</ele>
        <time>2010-12-11 09:45:11Z</time>
      </trkpt>
      <trkpt lat="45.99633" lon="6.47605">
        <ele>1773</ele>
        <time>2010-12-11 09:45:15Z</time>
      </trkpt>
      <trkpt lat="45.99641" lon="6.4761">
        <ele>1777</ele>
        <time>2010-12-11 09:45:19Z</time>
      </trkpt>
      <trkpt lat="45.99641" lon="6.4761">
        <ele>1777</ele>
        <time>2010-12-11 09:45:23Z</time>
      </trkpt>
      <trkpt lat="45.99641" lon="6.4761">
        <ele>1777</ele>
        <time>2010-12-11 09:45:27Z</time>
      </trkpt>
      <trkpt lat="45.99641" lon="6.4761">
        <ele>1777</ele>
        <time>2010-12-11 09:45:31Z</time>
      </trkpt>
      <trkpt lat="45.99651" lon="6.47614">
        <ele>1777</ele>
        <time>2010-12-11 09:45:35Z</time>
      </trkpt>
      <trkpt lat="45.99651" lon="6.47614">
        <ele>1777</ele>
        <time>2010-12-11 09:45:39Z</time>
      </trkpt>
      <trkpt lat="45.99651" lon="6.47614">
        <ele>1777</ele>
        <time>2010-12-11 09:45:43Z</time>
      </trkpt>
      <trkpt lat="45.99659" lon="6.47618">
        <ele>1778</ele>
        <time>2010-12-11 09:45:47Z</time>
      </trkpt>
      <trkpt lat="45.99659" lon="6.47618">
        <ele>1778</ele>
        <time>2010-12-11 09:45:51Z</time>
      </trkpt>
      <trkpt lat="45.99659" lon="6.47618">
        <ele>1778</ele>
        <time>2010-12-11 09:45:55Z</time>
      </trkpt>
      <trkpt lat="45.99659" lon="6.47618">
        <ele>1778</ele>
        <time>2010-12-11 09:45:59Z</time>
      </trkpt>
      <trkpt lat="45.99667" lon="6.47626">
        <ele>1780</ele>
        <time>2010-12-11 09:46:03Z</time>
      </trkpt>
      <trkpt lat="45.99667" lon="6.47626">
        <ele>1780</ele>
        <time>2010-12-11 09:46:07Z</time>
      </trkpt>
      <trkpt lat="45.99667" lon="6.47626">
        <ele>1780</ele>
        <time>2010-12-11 09:46:11Z</time>
      </trkpt>
      <trkpt lat="45.99667" lon="6.47626">
        <ele>1780</ele>
        <time>2010-12-11 09:46:15Z</time>
      </trkpt>
      <trkpt lat="45.99675" lon="6.47634">
        <ele>1783</ele>
        <time>2010-12-11 09:46:19Z</time>
      </trkpt>
      <trkpt lat="45.99675" lon="6.47634">
        <ele>1783</ele>
        <time>2010-12-11 09:46:23Z</time>
      </trkpt>
      <trkpt lat="45.99684" lon="6.47639">
        <ele>1782</ele>
        <time>2010-12-11 09:46:27Z</time>
      </trkpt>
      <trkpt lat="45.99693" lon="6.47643">
        <ele>1781</ele>
        <time>2010-12-11 09:46:31Z</time>
      </trkpt>
      <trkpt lat="45.99693" lon="6.47643">
        <ele>1781</ele>
        <time>2010-12-11 09:46:35Z</time>
      </trkpt>
      <trkpt lat="45.99701" lon="6.47644">
        <ele>1780</ele>
        <time>2010-12-11 09:46:39Z</time>
      </trkpt>
      <trkpt lat="45.99701" lon="6.47644">
        <ele>1780</ele>
        <time>2010-12-11 09:46:43Z</time>
      </trkpt>
      <trkpt lat="45.99701" lon="6.47644">
        <ele>1780</ele>
        <time>2010-12-11 09:46:47Z</time>
      </trkpt>
      <trkpt lat="45.99701" lon="6.47644">
        <ele>1780</ele>
        <time>2010-12-11 09:46:51Z</time>
      </trkpt>
      <trkpt lat="45.99709" lon="6.47636">
        <ele>1782</ele>
        <time>2010-12-11 09:46:55Z</time>
      </trkpt>
      <trkpt lat="45.99709" lon="6.47636">
        <ele>1782</ele>
        <time>2010-12-11 09:46:59Z</time>
      </trkpt>
      <trkpt lat="45.99709" lon="6.47636">
        <ele>1782</ele>
        <time>2010-12-11 09:47:03Z</time>
      </trkpt>
      <trkpt lat="45.99715" lon="6.47627">
        <ele>1786</ele>
        <time>2010-12-11 09:47:07Z</time>
      </trkpt>
      <trkpt lat="45.99715" lon="6.47627">
        <ele>1786</ele>
        <time>2010-12-11 09:47:11Z</time>
      </trkpt>
      <trkpt lat="45.99715" lon="6.47627">
        <ele>1786</ele>
        <time>2010-12-11 09:47:15Z</time>
      </trkpt>
      <trkpt lat="45.99715" lon="6.47627">
        <ele>1786</ele>
        <time>2010-12-11 09:47:19Z</time>
      </trkpt>
      <trkpt lat="45.99725" lon="6.47625">
        <ele>1790</ele>
        <time>2010-12-11 09:47:23Z</time>
      </trkpt>
      <trkpt lat="45.99725" lon="6.47625">
        <ele>1790</ele>
        <time>2010-12-11 09:47:27Z</time>
      </trkpt>
      <trkpt lat="45.99725" lon="6.47625">
        <ele>1790</ele>
        <time>2010-12-11 09:47:31Z</time>
      </trkpt>
      <trkpt lat="45.99725" lon="6.47625">
        <ele>1790</ele>
        <time>2010-12-11 09:47:35Z</time>
      </trkpt>
      <trkpt lat="45.99738" lon="6.47626">
        <ele>1790</ele>
        <time>2010-12-11 09:47:39Z</time>
      </trkpt>
      <trkpt lat="45.99738" lon="6.47626">
        <ele>1790</ele>
        <time>2010-12-11 09:47:43Z</time>
      </trkpt>
      <trkpt lat="45.99744" lon="6.47626">
        <ele>1791</ele>
        <time>2010-12-11 09:47:47Z</time>
      </trkpt>
      <trkpt lat="45.99746" lon="6.47626">
        <ele>1791</ele>
        <time>2010-12-11 09:47:51Z</time>
      </trkpt>
      <trkpt lat="45.9975" lon="6.47626">
        <ele>1791</ele>
        <time>2010-12-11 09:47:55Z</time>
      </trkpt>
      <trkpt lat="45.99757" lon="6.47625">
        <ele>1791</ele>
        <time>2010-12-11 09:47:59Z</time>
      </trkpt>
      <trkpt lat="45.99757" lon="6.47625">
        <ele>1791</ele>
        <time>2010-12-11 09:48:03Z</time>
      </trkpt>
      <trkpt lat="45.9976" lon="6.47624">
        <ele>1792</ele>
        <time>2010-12-11 09:48:07Z</time>
      </trkpt>
      <trkpt lat="45.99762" lon="6.47623">
        <ele>1794</ele>
        <time>2010-12-11 09:48:11Z</time>
      </trkpt>
      <trkpt lat="45.99764" lon="6.47623">
        <ele>1794</ele>
        <time>2010-12-11 09:48:15Z</time>
      </trkpt>
      <trkpt lat="45.99767" lon="6.47622">
        <ele>1797</ele>
        <time>2010-12-11 09:48:19Z</time>
      </trkpt>
      <trkpt lat="45.99768" lon="6.47622">
        <ele>1797</ele>
        <time>2010-12-11 09:48:23Z</time>
      </trkpt>
      <trkpt lat="45.99773" lon="6.47621">
        <ele>1797</ele>
        <time>2010-12-11 09:48:27Z</time>
      </trkpt>
      <trkpt lat="45.99777" lon="6.47621">
        <ele>1798</ele>
        <time>2010-12-11 09:48:31Z</time>
      </trkpt>
      <trkpt lat="45.99778" lon="6.4762">
        <ele>1798</ele>
        <time>2010-12-11 09:48:35Z</time>
      </trkpt>
      <trkpt lat="45.99782" lon="6.4762">
        <ele>1799</ele>
        <time>2010-12-11 09:48:39Z</time>
      </trkpt>
      <trkpt lat="45.99785" lon="6.47619">
        <ele>1800</ele>
        <time>2010-12-11 09:48:43Z</time>
      </trkpt>
      <trkpt lat="45.99785" lon="6.47619">
        <ele>1800</ele>
        <time>2010-12-11 09:48:47Z</time>
      </trkpt>
      <trkpt lat="45.9979" lon="6.47618">
        <ele>1800</ele>
        <time>2010-12-11 09:48:51Z</time>
      </trkpt>
      <trkpt lat="45.99792" lon="6.47618">
        <ele>1800</ele>
        <time>2010-12-11 09:48:55Z</time>
      </trkpt>
      <trkpt lat="45.99798" lon="6.47619">
        <ele>1800</ele>
        <time>2010-12-11 09:48:59Z</time>
      </trkpt>
      <trkpt lat="45.99801" lon="6.47619">
        <ele>1801</ele>
        <time>2010-12-11 09:49:03Z</time>
      </trkpt>
      <trkpt lat="45.99801" lon="6.47619">
        <ele>1801</ele>
        <time>2010-12-11 09:49:07Z</time>
      </trkpt>
      <trkpt lat="45.99807" lon="6.47621">
        <ele>1807</ele>
        <time>2010-12-11 09:49:11Z</time>
      </trkpt>
      <trkpt lat="45.9981" lon="6.47622">
        <ele>1808</ele>
        <time>2010-12-11 09:49:15Z</time>
      </trkpt>
      <trkpt lat="45.99815" lon="6.47625">
        <ele>1807</ele>
        <time>2010-12-11 09:49:19Z</time>
      </trkpt>
      <trkpt lat="45.99818" lon="6.47628">
        <ele>1806</ele>
        <time>2010-12-11 09:49:23Z</time>
      </trkpt>
      <trkpt lat="45.99821" lon="6.47629">
        <ele>1805</ele>
        <time>2010-12-11 09:49:27Z</time>
      </trkpt>
      <trkpt lat="45.99823" lon="6.47631">
        <ele>1805</ele>
        <time>2010-12-11 09:49:31Z</time>
      </trkpt>
      <trkpt lat="45.99826" lon="6.47633">
        <ele>1807</ele>
        <time>2010-12-11 09:49:35Z</time>
      </trkpt>
      <trkpt lat="45.99828" lon="6.47635">
        <ele>1807</ele>
        <time>2010-12-11 09:49:39Z</time>
      </trkpt>
      <trkpt lat="45.99834" lon="6.47638">
        <ele>1806</ele>
        <time>2010-12-11 09:49:43Z</time>
      </trkpt>
      <trkpt lat="45.99836" lon="6.47638">
        <ele>1807</ele>
        <time>2010-12-11 09:49:47Z</time>
      </trkpt>
      <trkpt lat="45.99836" lon="6.47638">
        <ele>1807</ele>
        <time>2010-12-11 09:49:51Z</time>
      </trkpt>
      <trkpt lat="45.99838" lon="6.47636">
        <ele>1808</ele>
        <time>2010-12-11 09:49:55Z</time>
      </trkpt>
      <trkpt lat="45.99838" lon="6.47635">
        <ele>1807</ele>
        <time>2010-12-11 09:49:59Z</time>
      </trkpt>
      <trkpt lat="45.99837" lon="6.47634">
        <ele>1809</ele>
        <time>2010-12-11 09:50:03Z</time>
      </trkpt>
      <trkpt lat="45.99836" lon="6.47633">
        <ele>1817</ele>
        <time>2010-12-11 09:50:07Z</time>
      </trkpt>
      <trkpt lat="45.99836" lon="6.47633">
        <ele>1818</ele>
        <time>2010-12-11 09:50:11Z</time>
      </trkpt>
      <trkpt lat="45.99836" lon="6.47633">
        <ele>1818</ele>
        <time>2010-12-11 09:50:15Z</time>
      </trkpt>
      <trkpt lat="45.99834" lon="6.47628">
        <ele>1823</ele>
        <time>2010-12-11 09:50:19Z</time>
      </trkpt>
      <trkpt lat="45.99834" lon="6.47627">
        <ele>1823</ele>
        <time>2010-12-11 09:50:23Z</time>
      </trkpt>
      <trkpt lat="45.99834" lon="6.47626">
        <ele>1824</ele>
        <time>2010-12-11 09:50:27Z</time>
      </trkpt>
      <trkpt lat="45.99837" lon="6.47625">
        <ele>1824</ele>
        <time>2010-12-11 09:50:31Z</time>
      </trkpt>
      <trkpt lat="45.99839" lon="6.47625">
        <ele>1824</ele>
        <time>2010-12-11 09:50:35Z</time>
      </trkpt>
      <trkpt lat="45.99844" lon="6.47626">
        <ele>1824</ele>
        <time>2010-12-11 09:50:39Z</time>
      </trkpt>
      <trkpt lat="45.99846" lon="6.47629">
        <ele>1824</ele>
        <time>2010-12-11 09:50:43Z</time>
      </trkpt>
      <trkpt lat="45.99848" lon="6.47631">
        <ele>1824</ele>
        <time>2010-12-11 09:50:47Z</time>
      </trkpt>
      <trkpt lat="45.99849" lon="6.47632">
        <ele>1823</ele>
        <time>2010-12-11 09:50:51Z</time>
      </trkpt>
      <trkpt lat="45.99849" lon="6.47632">
        <ele>1821</ele>
        <time>2010-12-11 09:50:55Z</time>
      </trkpt>
      <trkpt lat="45.99849" lon="6.47631">
        <ele>1821</ele>
        <time>2010-12-11 09:50:59Z</time>
      </trkpt>
      <trkpt lat="45.9985" lon="6.47628">
        <ele>1821</ele>
        <time>2010-12-11 09:51:03Z</time>
      </trkpt>
      <trkpt lat="45.9985" lon="6.47628">
        <ele>1821</ele>
        <time>2010-12-11 09:51:07Z</time>
      </trkpt>
      <trkpt lat="45.99852" lon="6.47623">
        <ele>1823</ele>
        <time>2010-12-11 09:51:11Z</time>
      </trkpt>
      <trkpt lat="45.99854" lon="6.47621">
        <ele>1823</ele>
        <time>2010-12-11 09:51:15Z</time>
      </trkpt>
      <trkpt lat="45.99855" lon="6.47617">
        <ele>1824</ele>
        <time>2010-12-11 09:51:19Z</time>
      </trkpt>
      <trkpt lat="45.99855" lon="6.47613">
        <ele>1824</ele>
        <time>2010-12-11 09:51:23Z</time>
      </trkpt>
      <trkpt lat="45.99855" lon="6.47611">
        <ele>1826</ele>
        <time>2010-12-11 09:51:27Z</time>
      </trkpt>
      <trkpt lat="45.99854" lon="6.47605">
        <ele>1827</ele>
        <time>2010-12-11 09:51:31Z</time>
      </trkpt>
      <trkpt lat="45.99853" lon="6.47602">
        <ele>1830</ele>
        <time>2010-12-11 09:51:35Z</time>
      </trkpt>
      <trkpt lat="45.99852" lon="6.47601">
        <ele>1830</ele>
        <time>2010-12-11 09:51:39Z</time>
      </trkpt>
      <trkpt lat="45.99851" lon="6.47598">
        <ele>1829</ele>
        <time>2010-12-11 09:51:43Z</time>
      </trkpt>
      <trkpt lat="45.99848" lon="6.47597">
        <ele>1830</ele>
        <time>2010-12-11 09:51:47Z</time>
      </trkpt>
      <trkpt lat="45.99848" lon="6.47597">
        <ele>1830</ele>
        <time>2010-12-11 09:51:51Z</time>
      </trkpt>
      <trkpt lat="45.99847" lon="6.47597">
        <ele>1830</ele>
        <time>2010-12-11 09:51:55Z</time>
      </trkpt>
      <trkpt lat="45.99847" lon="6.47596">
        <ele>1831</ele>
        <time>2010-12-11 09:51:59Z</time>
      </trkpt>
      <trkpt lat="45.99848" lon="6.47594">
        <ele>1832</ele>
        <time>2010-12-11 09:52:03Z</time>
      </trkpt>
      <trkpt lat="45.99849" lon="6.47593">
        <ele>1832</ele>
        <time>2010-12-11 09:52:07Z</time>
      </trkpt>
      <trkpt lat="45.99849" lon="6.47593">
        <ele>1832</ele>
        <time>2010-12-11 09:52:11Z</time>
      </trkpt>
      <trkpt lat="45.99851" lon="6.47591">
        <ele>1835</ele>
        <time>2010-12-11 09:52:15Z</time>
      </trkpt>
      <trkpt lat="45.99851" lon="6.47591">
        <ele>1835</ele>
        <time>2010-12-11 09:52:19Z</time>
      </trkpt>
      <trkpt lat="45.99851" lon="6.47591">
        <ele>1835</ele>
        <time>2010-12-11 09:52:23Z</time>
      </trkpt>
      <trkpt lat="45.99851" lon="6.47591">
        <ele>1835</ele>
        <time>2010-12-11 09:52:27Z</time>
      </trkpt>
      <trkpt lat="45.99857" lon="6.4759">
        <ele>1835</ele>
        <time>2010-12-11 09:52:31Z</time>
      </trkpt>
      <trkpt lat="45.99857" lon="6.47585">
        <ele>1836</ele>
        <time>2010-12-11 09:52:35Z</time>
      </trkpt>
      <trkpt lat="45.99857" lon="6.47581">
        <ele>1837</ele>
        <time>2010-12-11 09:52:39Z</time>
      </trkpt>
      <trkpt lat="45.99856" lon="6.47578">
        <ele>1838</ele>
        <time>2010-12-11 09:52:43Z</time>
      </trkpt>
      <trkpt lat="45.99857" lon="6.47576">
        <ele>1838</ele>
        <time>2010-12-11 09:52:47Z</time>
      </trkpt>
      <trkpt lat="45.99858" lon="6.47576">
        <ele>1837</ele>
        <time>2010-12-11 09:52:51Z</time>
      </trkpt>
      <trkpt lat="45.99859" lon="6.47576">
        <ele>1837</ele>
        <time>2010-12-11 09:52:55Z</time>
      </trkpt>
      <trkpt lat="45.9986" lon="6.47577">
        <ele>1837</ele>
        <time>2010-12-11 09:52:59Z</time>
      </trkpt>
      <trkpt lat="45.99862" lon="6.47578">
        <ele>1838</ele>
        <time>2010-12-11 09:53:03Z</time>
      </trkpt>
      <trkpt lat="45.99862" lon="6.47578">
        <ele>1838</ele>
        <time>2010-12-11 09:53:07Z</time>
      </trkpt>
      <trkpt lat="45.99863" lon="6.47578">
        <ele>1836</ele>
        <time>2010-12-11 09:53:11Z</time>
      </trkpt>
      <trkpt lat="45.99864" lon="6.47577">
        <ele>1835</ele>
        <time>2010-12-11 09:53:15Z</time>
      </trkpt>
      <trkpt lat="45.99865" lon="6.47575">
        <ele>1837</ele>
        <time>2010-12-11 09:53:19Z</time>
      </trkpt>
      <trkpt lat="45.99865" lon="6.47572">
        <ele>1837</ele>
        <time>2010-12-11 09:53:23Z</time>
      </trkpt>
      <trkpt lat="45.99865" lon="6.47568">
        <ele>1837</ele>
        <time>2010-12-11 09:53:27Z</time>
      </trkpt>
      <trkpt lat="45.99867" lon="6.47567">
        <ele>1838</ele>
        <time>2010-12-11 09:53:31Z</time>
      </trkpt>
      <trkpt lat="45.99868" lon="6.47567">
        <ele>1838</ele>
        <time>2010-12-11 09:53:35Z</time>
      </trkpt>
      <trkpt lat="45.99868" lon="6.47567">
        <ele>1839</ele>
        <time>2010-12-11 09:53:39Z</time>
      </trkpt>
      <trkpt lat="45.99868" lon="6.47567">
        <ele>1839</ele>
        <time>2010-12-11 09:53:43Z</time>
      </trkpt>
      <trkpt lat="45.99871" lon="6.47565">
        <ele>1837</ele>
        <time>2010-12-11 09:53:47Z</time>
      </trkpt>
      <trkpt lat="45.99871" lon="6.47563">
        <ele>1837</ele>
        <time>2010-12-11 09:53:51Z</time>
      </trkpt>
      <trkpt lat="45.9987" lon="6.47558">
        <ele>1840</ele>
        <time>2010-12-11 09:53:55Z</time>
      </trkpt>
      <trkpt lat="45.9987" lon="6.47554">
        <ele>1841</ele>
        <time>2010-12-11 09:53:59Z</time>
      </trkpt>
      <trkpt lat="45.99869" lon="6.47548">
        <ele>1845</ele>
        <time>2010-12-11 09:54:03Z</time>
      </trkpt>
      <trkpt lat="45.99868" lon="6.47546">
        <ele>1847</ele>
        <time>2010-12-11 09:54:07Z</time>
      </trkpt>
      <trkpt lat="45.99866" lon="6.47542">
        <ele>1850</ele>
        <time>2010-12-11 09:54:11Z</time>
      </trkpt>
      <trkpt lat="45.99864" lon="6.4754">
        <ele>1852</ele>
        <time>2010-12-11 09:54:15Z</time>
      </trkpt>
      <trkpt lat="45.99863" lon="6.47537">
        <ele>1853</ele>
        <time>2010-12-11 09:54:19Z</time>
      </trkpt>
      <trkpt lat="45.99863" lon="6.47535">
        <ele>1853</ele>
        <time>2010-12-11 09:54:23Z</time>
      </trkpt>
      <trkpt lat="45.99865" lon="6.47533">
        <ele>1854</ele>
        <time>2010-12-11 09:54:27Z</time>
      </trkpt>
      <trkpt lat="45.99868" lon="6.47531">
        <ele>1853</ele>
        <time>2010-12-11 09:54:31Z</time>
      </trkpt>
      <trkpt lat="45.99872" lon="6.4753">
        <ele>1854</ele>
        <time>2010-12-11 09:54:35Z</time>
      </trkpt>
      <trkpt lat="45.99874" lon="6.47529">
        <ele>1855</ele>
        <time>2010-12-11 09:54:39Z</time>
      </trkpt>
      <trkpt lat="45.99876" lon="6.4753">
        <ele>1855</ele>
        <time>2010-12-11 09:54:43Z</time>
      </trkpt>
      <trkpt lat="45.99879" lon="6.47531">
        <ele>1856</ele>
        <time>2010-12-11 09:54:47Z</time>
      </trkpt>
      <trkpt lat="45.99882" lon="6.47533">
        <ele>1856</ele>
        <time>2010-12-11 09:54:51Z</time>
      </trkpt>
      <trkpt lat="45.99883" lon="6.47533">
        <ele>1857</ele>
        <time>2010-12-11 09:54:55Z</time>
      </trkpt>
      <trkpt lat="45.99884" lon="6.47534">
        <ele>1858</ele>
        <time>2010-12-11 09:54:59Z</time>
      </trkpt>
      <trkpt lat="45.99886" lon="6.47538">
        <ele>1858</ele>
        <time>2010-12-11 09:55:03Z</time>
      </trkpt>
      <trkpt lat="45.99888" lon="6.4754">
        <ele>1858</ele>
        <time>2010-12-11 09:55:07Z</time>
      </trkpt>
      <trkpt lat="45.99888" lon="6.4754">
        <ele>1858</ele>
        <time>2010-12-11 09:55:11Z</time>
      </trkpt>
      <trkpt lat="45.99892" lon="6.47546">
        <ele>1861</ele>
        <time>2010-12-11 09:55:15Z</time>
      </trkpt>
      <trkpt lat="45.99896" lon="6.47548">
        <ele>1861</ele>
        <time>2010-12-11 09:55:19Z</time>
      </trkpt>
      <trkpt lat="45.99899" lon="6.47551">
        <ele>1861</ele>
        <time>2010-12-11 09:55:23Z</time>
      </trkpt>
      <trkpt lat="45.99901" lon="6.47553">
        <ele>1861</ele>
        <time>2010-12-11 09:55:27Z</time>
      </trkpt>
      <trkpt lat="45.99902" lon="6.47555">
        <ele>1862</ele>
        <time>2010-12-11 09:55:31Z</time>
      </trkpt>
      <trkpt lat="45.99904" lon="6.47554">
        <ele>1862</ele>
        <time>2010-12-11 09:55:35Z</time>
      </trkpt>
      <trkpt lat="45.99904" lon="6.47552">
        <ele>1862</ele>
        <time>2010-12-11 09:55:39Z</time>
      </trkpt>
      <trkpt lat="45.99905" lon="6.47547">
        <ele>1860</ele>
        <time>2010-12-11 09:55:43Z</time>
      </trkpt>
      <trkpt lat="45.99906" lon="6.47545">
        <ele>1861</ele>
        <time>2010-12-11 09:55:47Z</time>
      </trkpt>
      <trkpt lat="45.99907" lon="6.47544">
        <ele>1862</ele>
        <time>2010-12-11 09:55:51Z</time>
      </trkpt>
      <trkpt lat="45.99907" lon="6.47545">
        <ele>1862</ele>
        <time>2010-12-11 09:55:55Z</time>
      </trkpt>
      <trkpt lat="45.99908" lon="6.47546">
        <ele>1864</ele>
        <time>2010-12-11 09:55:59Z</time>
      </trkpt>
      <trkpt lat="45.99908" lon="6.47546">
        <ele>1864</ele>
        <time>2010-12-11 09:56:03Z</time>
      </trkpt>
      <trkpt lat="45.9991" lon="6.47551">
        <ele>1865</ele>
        <time>2010-12-11 09:56:07Z</time>
      </trkpt>
      <trkpt lat="45.99911" lon="6.47551">
        <ele>1866</ele>
        <time>2010-12-11 09:56:11Z</time>
      </trkpt>
      <trkpt lat="45.99911" lon="6.4755">
        <ele>1867</ele>
        <time>2010-12-11 09:56:15Z</time>
      </trkpt>
      <trkpt lat="45.99912" lon="6.47548">
        <ele>1865</ele>
        <time>2010-12-11 09:56:19Z</time>
      </trkpt>
      <trkpt lat="45.99913" lon="6.47544">
        <ele>1865</ele>
        <time>2010-12-11 09:56:23Z</time>
      </trkpt>
      <trkpt lat="45.99914" lon="6.47539">
        <ele>1866</ele>
        <time>2010-12-11 09:56:27Z</time>
      </trkpt>
      <trkpt lat="45.99915" lon="6.47535">
        <ele>1865</ele>
        <time>2010-12-11 09:56:31Z</time>
      </trkpt>
      <trkpt lat="45.99917" lon="6.47531">
        <ele>1867</ele>
        <time>2010-12-11 09:56:35Z</time>
      </trkpt>
      <trkpt lat="45.99918" lon="6.47529">
        <ele>1869</ele>
        <time>2010-12-11 09:56:39Z</time>
      </trkpt>
      <trkpt lat="45.9992" lon="6.47527">
        <ele>1871</ele>
        <time>2010-12-11 09:56:43Z</time>
      </trkpt>
      <trkpt lat="45.99922" lon="6.47528">
        <ele>1871</ele>
        <time>2010-12-11 09:56:47Z</time>
      </trkpt>
      <trkpt lat="45.99922" lon="6.47528">
        <ele>1871</ele>
        <time>2010-12-11 09:56:51Z</time>
      </trkpt>
      <trkpt lat="45.99923" lon="6.47531">
        <ele>1873</ele>
        <time>2010-12-11 09:56:55Z</time>
      </trkpt>
      <trkpt lat="45.99924" lon="6.47534">
        <ele>1873</ele>
        <time>2010-12-11 09:56:59Z</time>
      </trkpt>
      <trkpt lat="45.99926" lon="6.47537">
        <ele>1873</ele>
        <time>2010-12-11 09:57:03Z</time>
      </trkpt>
      <trkpt lat="45.99927" lon="6.47537">
        <ele>1873</ele>
        <time>2010-12-11 09:57:07Z</time>
      </trkpt>
      <trkpt lat="45.99928" lon="6.47536">
        <ele>1873</ele>
        <time>2010-12-11 09:57:11Z</time>
      </trkpt>
      <trkpt lat="45.99929" lon="6.47536">
        <ele>1873</ele>
        <time>2010-12-11 09:57:15Z</time>
      </trkpt>
      <trkpt lat="45.9993" lon="6.47534">
        <ele>1874</ele>
        <time>2010-12-11 09:57:19Z</time>
      </trkpt>
      <trkpt lat="45.99931" lon="6.47531">
        <ele>1873</ele>
        <time>2010-12-11 09:57:23Z</time>
      </trkpt>
      <trkpt lat="45.99932" lon="6.47528">
        <ele>1873</ele>
        <time>2010-12-11 09:57:27Z</time>
      </trkpt>
      <trkpt lat="45.99934" lon="6.47525">
        <ele>1874</ele>
        <time>2010-12-11 09:57:31Z</time>
      </trkpt>
      <trkpt lat="45.99935" lon="6.47522">
        <ele>1875</ele>
        <time>2010-12-11 09:57:35Z</time>
      </trkpt>
      <trkpt lat="45.99937" lon="6.47518">
        <ele>1876</ele>
        <time>2010-12-11 09:57:39Z</time>
      </trkpt>
      <trkpt lat="45.99937" lon="6.47516">
        <ele>1876</ele>
        <time>2010-12-11 09:57:43Z</time>
      </trkpt>
      <trkpt lat="45.99939" lon="6.47512">
        <ele>1877</ele>
        <time>2010-12-11 09:57:47Z</time>
      </trkpt>
      <trkpt lat="45.9994" lon="6.4751">
        <ele>1879</ele>
        <time>2010-12-11 09:57:51Z</time>
      </trkpt>
      <trkpt lat="45.99941" lon="6.47508">
        <ele>1880</ele>
        <time>2010-12-11 09:57:55Z</time>
      </trkpt>
      <trkpt lat="45.99942" lon="6.47509">
        <ele>1881</ele>
        <time>2010-12-11 09:57:59Z</time>
      </trkpt>
      <trkpt lat="45.99944" lon="6.4751">
        <ele>1882</ele>
        <time>2010-12-11 09:58:03Z</time>
      </trkpt>
      <trkpt lat="45.99945" lon="6.47512">
        <ele>1882</ele>
        <time>2010-12-11 09:58:07Z</time>
      </trkpt>
      <trkpt lat="45.99945" lon="6.47514">
        <ele>1884</ele>
        <time>2010-12-11 09:58:11Z</time>
      </trkpt>
      <trkpt lat="45.99947" lon="6.47517">
        <ele>1885</ele>
        <time>2010-12-11 09:58:15Z</time>
      </trkpt>
      <trkpt lat="45.99949" lon="6.47522">
        <ele>1887</ele>
        <time>2010-12-11 09:58:19Z</time>
      </trkpt>
      <trkpt lat="45.99951" lon="6.47525">
        <ele>1888</ele>
        <time>2010-12-11 09:58:23Z</time>
      </trkpt>
      <trkpt lat="45.99952" lon="6.47529">
        <ele>1889</ele>
        <time>2010-12-11 09:58:27Z</time>
      </trkpt>
      <trkpt lat="45.99953" lon="6.47529">
        <ele>1887</ele>
        <time>2010-12-11 09:58:31Z</time>
      </trkpt>
      <trkpt lat="45.99954" lon="6.47527">
        <ele>1885</ele>
        <time>2010-12-11 09:58:35Z</time>
      </trkpt>
      <trkpt lat="45.99956" lon="6.47525">
        <ele>1885</ele>
        <time>2010-12-11 09:58:39Z</time>
      </trkpt>
      <trkpt lat="45.99957" lon="6.47523">
        <ele>1885</ele>
        <time>2010-12-11 09:58:43Z</time>
      </trkpt>
      <trkpt lat="45.99958" lon="6.4752">
        <ele>1887</ele>
        <time>2010-12-11 09:58:47Z</time>
      </trkpt>
      <trkpt lat="45.9996" lon="6.47519">
        <ele>1891</ele>
        <time>2010-12-11 09:58:51Z</time>
      </trkpt>
      <trkpt lat="45.99961" lon="6.47518">
        <ele>1892</ele>
        <time>2010-12-11 09:58:55Z</time>
      </trkpt>
      <trkpt lat="45.99962" lon="6.4752">
        <ele>1892</ele>
        <time>2010-12-11 09:58:59Z</time>
      </trkpt>
      <trkpt lat="45.99963" lon="6.47523">
        <ele>1893</ele>
        <time>2010-12-11 09:59:03Z</time>
      </trkpt>
      <trkpt lat="45.99963" lon="6.47524">
        <ele>1893</ele>
        <time>2010-12-11 09:59:07Z</time>
      </trkpt>
      <trkpt lat="45.99964" lon="6.47527">
        <ele>1893</ele>
        <time>2010-12-11 09:59:11Z</time>
      </trkpt>
      <trkpt lat="45.99964" lon="6.47532">
        <ele>1894</ele>
        <time>2010-12-11 09:59:15Z</time>
      </trkpt>
      <trkpt lat="45.99964" lon="6.47534">
        <ele>1895</ele>
        <time>2010-12-11 09:59:19Z</time>
      </trkpt>
      <trkpt lat="45.99962" lon="6.4754">
        <ele>1892</ele>
        <time>2010-12-11 09:59:23Z</time>
      </trkpt>
      <trkpt lat="45.99961" lon="6.4754">
        <ele>1886</ele>
        <time>2010-12-11 09:59:27Z</time>
      </trkpt>
      <trkpt lat="45.99961" lon="6.47538">
        <ele>1885</ele>
        <time>2010-12-11 09:59:31Z</time>
      </trkpt>
      <trkpt lat="45.99962" lon="6.47538">
        <ele>1885</ele>
        <time>2010-12-11 09:59:35Z</time>
      </trkpt>
      <trkpt lat="45.99962" lon="6.47537">
        <ele>1887</ele>
        <time>2010-12-11 09:59:39Z</time>
      </trkpt>
      <trkpt lat="45.99963" lon="6.47537">
        <ele>1889</ele>
        <time>2010-12-11 09:59:43Z</time>
      </trkpt>
      <trkpt lat="45.99964" lon="6.47537">
        <ele>1890</ele>
        <time>2010-12-11 09:59:47Z</time>
      </trkpt>
      <trkpt lat="45.99966" lon="6.47537">
        <ele>1892</ele>
        <time>2010-12-11 09:59:51Z</time>
      </trkpt>
      <trkpt lat="45.99967" lon="6.47537">
        <ele>1894</ele>
        <time>2010-12-11 09:59:55Z</time>
      </trkpt>
      <trkpt lat="45.99968" lon="6.47537">
        <ele>1895</ele>
        <time>2010-12-11 09:59:59Z</time>
      </trkpt>
      <trkpt lat="45.99968" lon="6.47537">
        <ele>1896</ele>
        <time>2010-12-11 10:00:03Z</time>
      </trkpt>
      <trkpt lat="45.99969" lon="6.47536">
        <ele>1898</ele>
        <time>2010-12-11 10:00:07Z</time>
      </trkpt>
      <trkpt lat="45.99969" lon="6.47536">
        <ele>1898</ele>
        <time>2010-12-11 10:00:11Z</time>
      </trkpt>
      <trkpt lat="45.99974" lon="6.47534">
        <ele>1896</ele>
        <time>2010-12-11 10:00:15Z</time>
      </trkpt>
      <trkpt lat="45.99975" lon="6.47533">
        <ele>1894</ele>
        <time>2010-12-11 10:00:19Z</time>
      </trkpt>
      <trkpt lat="45.99976" lon="6.47531">
        <ele>1895</ele>
        <time>2010-12-11 10:00:23Z</time>
      </trkpt>
      <trkpt lat="45.99977" lon="6.47529">
        <ele>1900</ele>
        <time>2010-12-11 10:00:27Z</time>
      </trkpt>
      <trkpt lat="45.99977" lon="6.47526">
        <ele>1904</ele>
        <time>2010-12-11 10:00:31Z</time>
      </trkpt>
      <trkpt lat="45.99978" lon="6.47526">
        <ele>1905</ele>
        <time>2010-12-11 10:00:35Z</time>
      </trkpt>
      <trkpt lat="45.99978" lon="6.47527">
        <ele>1906</ele>
        <time>2010-12-11 10:00:39Z</time>
      </trkpt>
      <trkpt lat="45.99979" lon="6.47531">
        <ele>1907</ele>
        <time>2010-12-11 10:00:43Z</time>
      </trkpt>
      <trkpt lat="45.9998" lon="6.47533">
        <ele>1908</ele>
        <time>2010-12-11 10:00:47Z</time>
      </trkpt>
      <trkpt lat="45.99981" lon="6.47533">
        <ele>1906</ele>
        <time>2010-12-11 10:00:51Z</time>
      </trkpt>
      <trkpt lat="45.99982" lon="6.47531">
        <ele>1905</ele>
        <time>2010-12-11 10:00:55Z</time>
      </trkpt>
      <trkpt lat="45.99983" lon="6.47529">
        <ele>1905</ele>
        <time>2010-12-11 10:00:59Z</time>
      </trkpt>
      <trkpt lat="45.99984" lon="6.47528">
        <ele>1905</ele>
        <time>2010-12-11 10:01:03Z</time>
      </trkpt>
      <trkpt lat="45.99985" lon="6.47525">
        <ele>1906</ele>
        <time>2010-12-11 10:01:07Z</time>
      </trkpt>
      <trkpt lat="45.99986" lon="6.47522">
        <ele>1905</ele>
        <time>2010-12-11 10:01:11Z</time>
      </trkpt>
      <trkpt lat="45.99987" lon="6.47517">
        <ele>1908</ele>
        <time>2010-12-11 10:01:15Z</time>
      </trkpt>
      <trkpt lat="45.99989" lon="6.47514">
        <ele>1909</ele>
        <time>2010-12-11 10:01:19Z</time>
      </trkpt>
      <trkpt lat="45.99991" lon="6.4751">
        <ele>1910</ele>
        <time>2010-12-11 10:01:23Z</time>
      </trkpt>
      <trkpt lat="45.99992" lon="6.47507">
        <ele>1909</ele>
        <time>2010-12-11 10:01:27Z</time>
      </trkpt>
      <trkpt lat="45.99993" lon="6.47504">
        <ele>1912</ele>
        <time>2010-12-11 10:01:31Z</time>
      </trkpt>
      <trkpt lat="45.99993" lon="6.47503">
        <ele>1914</ele>
        <time>2010-12-11 10:01:35Z</time>
      </trkpt>
      <trkpt lat="45.99994" lon="6.47504">
        <ele>1916</ele>
        <time>2010-12-11 10:01:39Z</time>
      </trkpt>
      <trkpt lat="45.99994" lon="6.47506">
        <ele>1917</ele>
        <time>2010-12-11 10:01:43Z</time>
      </trkpt>
      <trkpt lat="45.99994" lon="6.47509">
        <ele>1919</ele>
        <time>2010-12-11 10:01:47Z</time>
      </trkpt>
      <trkpt lat="45.99995" lon="6.47513">
        <ele>1920</ele>
        <time>2010-12-11 10:01:51Z</time>
      </trkpt>
      <trkpt lat="45.99995" lon="6.47517">
        <ele>1920</ele>
        <time>2010-12-11 10:01:55Z</time>
      </trkpt>
      <trkpt lat="45.99996" lon="6.4752">
        <ele>1921</ele>
        <time>2010-12-11 10:01:59Z</time>
      </trkpt>
      <trkpt lat="45.99997" lon="6.4752">
        <ele>1919</ele>
        <time>2010-12-11 10:02:03Z</time>
      </trkpt>
      <trkpt lat="45.99998" lon="6.47519">
        <ele>1917</ele>
        <time>2010-12-11 10:02:07Z</time>
      </trkpt>
      <trkpt lat="45.99999" lon="6.47516">
        <ele>1915</ele>
        <time>2010-12-11 10:02:11Z</time>
      </trkpt>
      <trkpt lat="46.00002" lon="6.47509">
        <ele>1918</ele>
        <time>2010-12-11 10:02:15Z</time>
      </trkpt>
      <trkpt lat="46.00001" lon="6.47508">
        <ele>1921</ele>
        <time>2010-12-11 10:02:19Z</time>
      </trkpt>
      <trkpt lat="46.00002" lon="6.47511">
        <ele>1922</ele>
        <time>2010-12-11 10:02:23Z</time>
      </trkpt>
      <trkpt lat="46.00002" lon="6.47514">
        <ele>1922</ele>
        <time>2010-12-11 10:02:27Z</time>
      </trkpt>
      <trkpt lat="46.00003" lon="6.47516">
        <ele>1923</ele>
        <time>2010-12-11 10:02:31Z</time>
      </trkpt>
      <trkpt lat="46.00004" lon="6.47523">
        <ele>1924</ele>
        <time>2010-12-11 10:02:35Z</time>
      </trkpt>
      <trkpt lat="46.00005" lon="6.47527">
        <ele>1925</ele>
        <time>2010-12-11 10:02:39Z</time>
      </trkpt>
      <trkpt lat="46.00005" lon="6.4753">
        <ele>1926</ele>
        <time>2010-12-11 10:02:43Z</time>
      </trkpt>
      <trkpt lat="46.00005" lon="6.47535">
        <ele>1928</ele>
        <time>2010-12-11 10:02:47Z</time>
      </trkpt>
      <trkpt lat="46.00005" lon="6.47538">
        <ele>1928</ele>
        <time>2010-12-11 10:02:51Z</time>
      </trkpt>
      <trkpt lat="46.00005" lon="6.47543">
        <ele>1931</ele>
        <time>2010-12-11 10:02:55Z</time>
      </trkpt>
      <trkpt lat="46.00005" lon="6.47545">
        <ele>1932</ele>
        <time>2010-12-11 10:02:59Z</time>
      </trkpt>
      <trkpt lat="46.00007" lon="6.47547">
        <ele>1929</ele>
        <time>2010-12-11 10:03:03Z</time>
      </trkpt>
      <trkpt lat="46.00007" lon="6.47547">
        <ele>1929</ele>
        <time>2010-12-11 10:03:07Z</time>
      </trkpt>
      <trkpt lat="46.00008" lon="6.47546">
        <ele>1929</ele>
        <time>2010-12-11 10:03:11Z</time>
      </trkpt>
      <trkpt lat="46.00009" lon="6.47546">
        <ele>1930</ele>
        <time>2010-12-11 10:03:15Z</time>
      </trkpt>
      <trkpt lat="46.0001" lon="6.47545">
        <ele>1932</ele>
        <time>2010-12-11 10:03:19Z</time>
      </trkpt>
      <trkpt lat="46.00011" lon="6.47546">
        <ele>1934</ele>
        <time>2010-12-11 10:03:23Z</time>
      </trkpt>
      <trkpt lat="46.0001" lon="6.47547">
        <ele>1935</ele>
        <time>2010-12-11 10:03:27Z</time>
      </trkpt>
      <trkpt lat="46.00011" lon="6.47549">
        <ele>1936</ele>
        <time>2010-12-11 10:03:31Z</time>
      </trkpt>
      <trkpt lat="46.00011" lon="6.47551">
        <ele>1939</ele>
        <time>2010-12-11 10:03:35Z</time>
      </trkpt>
      <trkpt lat="46.0001" lon="6.47552">
        <ele>1939</ele>
        <time>2010-12-11 10:03:39Z</time>
      </trkpt>
      <trkpt lat="46.0001" lon="6.47553">
        <ele>1939</ele>
        <time>2010-12-11 10:03:43Z</time>
      </trkpt>
      <trkpt lat="46.0001" lon="6.47553">
        <ele>1939</ele>
        <time>2010-12-11 10:03:47Z</time>
      </trkpt>
      <trkpt lat="46.00013" lon="6.47553">
        <ele>1940</ele>
        <time>2010-12-11 10:03:51Z</time>
      </trkpt>
      <trkpt lat="46.00016" lon="6.47551">
        <ele>1941</ele>
        <time>2010-12-11 10:03:55Z</time>
      </trkpt>
      <trkpt lat="46.00017" lon="6.4755">
        <ele>1940</ele>
        <time>2010-12-11 10:03:59Z</time>
      </trkpt>
      <trkpt lat="46.0002" lon="6.47548">
        <ele>1941</ele>
        <time>2010-12-11 10:04:03Z</time>
      </trkpt>
      <trkpt lat="46.00021" lon="6.47546">
        <ele>1940</ele>
        <time>2010-12-11 10:04:07Z</time>
      </trkpt>
      <trkpt lat="46.00023" lon="6.47543">
        <ele>1941</ele>
        <time>2010-12-11 10:04:11Z</time>
      </trkpt>
      <trkpt lat="46.00025" lon="6.4754">
        <ele>1942</ele>
        <time>2010-12-11 10:04:15Z</time>
      </trkpt>
      <trkpt lat="46.00026" lon="6.47538">
        <ele>1942</ele>
        <time>2010-12-11 10:04:19Z</time>
      </trkpt>
      <trkpt lat="46.00027" lon="6.47537">
        <ele>1943</ele>
        <time>2010-12-11 10:04:23Z</time>
      </trkpt>
      <trkpt lat="46.00027" lon="6.47537">
        <ele>1943</ele>
        <time>2010-12-11 10:04:27Z</time>
      </trkpt>
      <trkpt lat="46.0003" lon="6.47537">
        <ele>1947</ele>
        <time>2010-12-11 10:04:31Z</time>
      </trkpt>
      <trkpt lat="46.00031" lon="6.47537">
        <ele>1948</ele>
        <time>2010-12-11 10:04:35Z</time>
      </trkpt>
      <trkpt lat="46.00032" lon="6.47537">
        <ele>1946</ele>
        <time>2010-12-11 10:04:39Z</time>
      </trkpt>
      <trkpt lat="46.00032" lon="6.47537">
        <ele>1947</ele>
        <time>2010-12-11 10:04:43Z</time>
      </trkpt>
      <trkpt lat="46.00033" lon="6.47538">
        <ele>1947</ele>
        <time>2010-12-11 10:04:47Z</time>
      </trkpt>
      <trkpt lat="46.00034" lon="6.47538">
        <ele>1947</ele>
        <time>2010-12-11 10:04:51Z</time>
      </trkpt>
      <trkpt lat="46.00034" lon="6.47538">
        <ele>1942</ele>
        <time>2010-12-11 10:04:55Z</time>
      </trkpt>
      <trkpt lat="46.00034" lon="6.47538">
        <ele>1942</ele>
        <time>2010-12-11 10:04:59Z</time>
      </trkpt>
      <trkpt lat="46.00033" lon="6.47537">
        <ele>1934</ele>
        <time>2010-12-11 10:05:03Z</time>
      </trkpt>
      <trkpt lat="46.00033" lon="6.47537">
        <ele>1931</ele>
        <time>2010-12-11 10:05:07Z</time>
      </trkpt>
      <trkpt lat="46.00033" lon="6.47537">
        <ele>1932</ele>
        <time>2010-12-11 10:05:11Z</time>
      </trkpt>
      <trkpt lat="46.00033" lon="6.47536">
        <ele>1933</ele>
        <time>2010-12-11 10:05:15Z</time>
      </trkpt>
      <trkpt lat="46.00034" lon="6.47536">
        <ele>1936</ele>
        <time>2010-12-11 10:05:19Z</time>
      </trkpt>
      <trkpt lat="46.00034" lon="6.47536">
        <ele>1940</ele>
        <time>2010-12-11 10:05:23Z</time>
      </trkpt>
      <trkpt lat="46.00036" lon="6.47536">
        <ele>1943</ele>
        <time>2010-12-11 10:05:27Z</time>
      </trkpt>
      <trkpt lat="46.00037" lon="6.47537">
        <ele>1944</ele>
        <time>2010-12-11 10:05:31Z</time>
      </trkpt>
      <trkpt lat="46.00038" lon="6.47537">
        <ele>1946</ele>
        <time>2010-12-11 10:05:35Z</time>
      </trkpt>
      <trkpt lat="46.0004" lon="6.47536">
        <ele>1947</ele>
        <time>2010-12-11 10:05:39Z</time>
      </trkpt>
      <trkpt lat="46.00041" lon="6.47536">
        <ele>1947</ele>
        <time>2010-12-11 10:05:43Z</time>
      </trkpt>
      <trkpt lat="46.00045" lon="6.47535">
        <ele>1949</ele>
        <time>2010-12-11 10:05:47Z</time>
      </trkpt>
      <trkpt lat="46.00047" lon="6.47534">
        <ele>1951</ele>
        <time>2010-12-11 10:05:51Z</time>
      </trkpt>
      <trkpt lat="46.00048" lon="6.47533">
        <ele>1950</ele>
        <time>2010-12-11 10:05:55Z</time>
      </trkpt>
      <trkpt lat="46.00048" lon="6.47533">
        <ele>1950</ele>
        <time>2010-12-11 10:05:59Z</time>
      </trkpt>
      <trkpt lat="46.00052" lon="6.47529">
        <ele>1951</ele>
        <time>2010-12-11 10:06:03Z</time>
      </trkpt>
      <trkpt lat="46.00055" lon="6.47523">
        <ele>1953</ele>
        <time>2010-12-11 10:06:07Z</time>
      </trkpt>
      <trkpt lat="46.00055" lon="6.47523">
        <ele>1953</ele>
        <time>2010-12-11 10:06:11Z</time>
      </trkpt>
      <trkpt lat="46.00058" lon="6.47523">
        <ele>1956</ele>
        <time>2010-12-11 10:06:15Z</time>
      </trkpt>
      <trkpt lat="46.00059" lon="6.47524">
        <ele>1957</ele>
        <time>2010-12-11 10:06:19Z</time>
      </trkpt>
      <trkpt lat="46.0006" lon="6.47528">
        <ele>1958</ele>
        <time>2010-12-11 10:06:23Z</time>
      </trkpt>
      <trkpt lat="46.00062" lon="6.47531">
        <ele>1961</ele>
        <time>2010-12-11 10:06:27Z</time>
      </trkpt>
      <trkpt lat="46.00063" lon="6.47533">
        <ele>1962</ele>
        <time>2010-12-11 10:06:31Z</time>
      </trkpt>
      <trkpt lat="46.00065" lon="6.47532">
        <ele>1965</ele>
        <time>2010-12-11 10:06:35Z</time>
      </trkpt>
      <trkpt lat="46.00067" lon="6.4753">
        <ele>1965</ele>
        <time>2010-12-11 10:06:39Z</time>
      </trkpt>
      <trkpt lat="46.00069" lon="6.47528">
        <ele>1963</ele>
        <time>2010-12-11 10:06:43Z</time>
      </trkpt>
      <trkpt lat="46.00071" lon="6.47526">
        <ele>1964</ele>
        <time>2010-12-11 10:06:47Z</time>
      </trkpt>
      <trkpt lat="46.00071" lon="6.47525">
        <ele>1964</ele>
        <time>2010-12-11 10:06:51Z</time>
      </trkpt>
      <trkpt lat="46.00072" lon="6.47523">
        <ele>1965</ele>
        <time>2010-12-11 10:06:55Z</time>
      </trkpt>
      <trkpt lat="46.00071" lon="6.47521">
        <ele>1967</ele>
        <time>2010-12-11 10:06:59Z</time>
      </trkpt>
      <trkpt lat="46.00071" lon="6.47521">
        <ele>1967</ele>
        <time>2010-12-11 10:07:03Z</time>
      </trkpt>
      <trkpt lat="46.00071" lon="6.4752">
        <ele>1967</ele>
        <time>2010-12-11 10:07:07Z</time>
      </trkpt>
      <trkpt lat="46.00072" lon="6.4752">
        <ele>1967</ele>
        <time>2010-12-11 10:07:11Z</time>
      </trkpt>
      <trkpt lat="46.00072" lon="6.47521">
        <ele>1968</ele>
        <time>2010-12-11 10:07:15Z</time>
      </trkpt>
      <trkpt lat="46.00072" lon="6.47522">
        <ele>1969</ele>
        <time>2010-12-11 10:07:19Z</time>
      </trkpt>
      <trkpt lat="46.00073" lon="6.47521">
        <ele>1971</ele>
        <time>2010-12-11 10:07:23Z</time>
      </trkpt>
      <trkpt lat="46.00073" lon="6.47521">
        <ele>1971</ele>
        <time>2010-12-11 10:07:27Z</time>
      </trkpt>
      <trkpt lat="46.00074" lon="6.47515">
        <ele>1972</ele>
        <time>2010-12-11 10:07:31Z</time>
      </trkpt>
      <trkpt lat="46.00074" lon="6.47515">
        <ele>1972</ele>
        <time>2010-12-11 10:07:35Z</time>
      </trkpt>
      <trkpt lat="46.00077" lon="6.4751">
        <ele>1974</ele>
        <time>2010-12-11 10:07:39Z</time>
      </trkpt>
      <trkpt lat="46.00079" lon="6.47507">
        <ele>1975</ele>
        <time>2010-12-11 10:07:43Z</time>
      </trkpt>
      <trkpt lat="46.00081" lon="6.47504">
        <ele>1975</ele>
        <time>2010-12-11 10:07:47Z</time>
      </trkpt>
      <trkpt lat="46.00082" lon="6.475">
        <ele>1976</ele>
        <time>2010-12-11 10:07:51Z</time>
      </trkpt>
      <trkpt lat="46.00082" lon="6.47498">
        <ele>1976</ele>
        <time>2010-12-11 10:07:55Z</time>
      </trkpt>
      <trkpt lat="46.00084" lon="6.47497">
        <ele>1979</ele>
        <time>2010-12-11 10:07:59Z</time>
      </trkpt>
      <trkpt lat="46.00087" lon="6.47498">
        <ele>1979</ele>
        <time>2010-12-11 10:08:03Z</time>
      </trkpt>
      <trkpt lat="46.00087" lon="6.47499">
        <ele>1979</ele>
        <time>2010-12-11 10:08:07Z</time>
      </trkpt>
      <trkpt lat="46.00087" lon="6.47503">
        <ele>1979</ele>
        <time>2010-12-11 10:08:11Z</time>
      </trkpt>
      <trkpt lat="46.00087" lon="6.47504">
        <ele>1979</ele>
        <time>2010-12-11 10:08:15Z</time>
      </trkpt>
      <trkpt lat="46.00087" lon="6.47504">
        <ele>1979</ele>
        <time>2010-12-11 10:08:19Z</time>
      </trkpt>
      <trkpt lat="46.00087" lon="6.47504">
        <ele>1984</ele>
        <time>2010-12-11 10:08:23Z</time>
      </trkpt>
      <trkpt lat="46.00088" lon="6.47501">
        <ele>1986</ele>
        <time>2010-12-11 10:08:27Z</time>
      </trkpt>
      <trkpt lat="46.00089" lon="6.47498">
        <ele>1987</ele>
        <time>2010-12-11 10:08:31Z</time>
      </trkpt>
      <trkpt lat="46.0009" lon="6.47496">
        <ele>1987</ele>
        <time>2010-12-11 10:08:35Z</time>
      </trkpt>
      <trkpt lat="46.00091" lon="6.47493">
        <ele>1988</ele>
        <time>2010-12-11 10:08:39Z</time>
      </trkpt>
      <trkpt lat="46.00092" lon="6.47491">
        <ele>1988</ele>
        <time>2010-12-11 10:08:43Z</time>
      </trkpt>
      <trkpt lat="46.00094" lon="6.47487">
        <ele>1989</ele>
        <time>2010-12-11 10:08:47Z</time>
      </trkpt>
      <trkpt lat="46.00094" lon="6.47483">
        <ele>1989</ele>
        <time>2010-12-11 10:08:51Z</time>
      </trkpt>
      <trkpt lat="46.00094" lon="6.47483">
        <ele>1989</ele>
        <time>2010-12-11 10:08:55Z</time>
      </trkpt>
      <trkpt lat="46.00094" lon="6.47483">
        <ele>1989</ele>
        <time>2010-12-11 10:08:59Z</time>
      </trkpt>
      <trkpt lat="46.00094" lon="6.47483">
        <ele>1989</ele>
        <time>2010-12-11 10:09:03Z</time>
      </trkpt>
      <trkpt lat="46.00094" lon="6.47483">
        <ele>1989</ele>
        <time>2010-12-11 10:09:07Z</time>
      </trkpt>
      <trkpt lat="46.00102" lon="6.47472">
        <ele>1994</ele>
        <time>2010-12-11 10:09:11Z</time>
      </trkpt>
      <trkpt lat="46.00102" lon="6.47472">
        <ele>1994</ele>
        <time>2010-12-11 10:09:15Z</time>
      </trkpt>
      <trkpt lat="46.00104" lon="6.47473">
        <ele>1996</ele>
        <time>2010-12-11 10:09:19Z</time>
      </trkpt>
      <trkpt lat="46.00108" lon="6.47475">
        <ele>1996</ele>
        <time>2010-12-11 10:09:23Z</time>
      </trkpt>
      <trkpt lat="46.0011" lon="6.47476">
        <ele>1997</ele>
        <time>2010-12-11 10:09:27Z</time>
      </trkpt>
      <trkpt lat="46.00112" lon="6.47477">
        <ele>1997</ele>
        <time>2010-12-11 10:09:31Z</time>
      </trkpt>
      <trkpt lat="46.00114" lon="6.47478">
        <ele>1996</ele>
        <time>2010-12-11 10:09:35Z</time>
      </trkpt>
      <trkpt lat="46.00116" lon="6.47478">
        <ele>1997</ele>
        <time>2010-12-11 10:09:39Z</time>
      </trkpt>
      <trkpt lat="46.00118" lon="6.47479">
        <ele>1998</ele>
        <time>2010-12-11 10:09:43Z</time>
      </trkpt>
      <trkpt lat="46.0012" lon="6.47479">
        <ele>1999</ele>
        <time>2010-12-11 10:09:47Z</time>
      </trkpt>
      <trkpt lat="46.00121" lon="6.47479">
        <ele>2000</ele>
        <time>2010-12-11 10:09:51Z</time>
      </trkpt>
      <trkpt lat="46.00123" lon="6.47478">
        <ele>2001</ele>
        <time>2010-12-11 10:09:55Z</time>
      </trkpt>
      <trkpt lat="46.00123" lon="6.47477">
        <ele>2001</ele>
        <time>2010-12-11 10:09:59Z</time>
      </trkpt>
      <trkpt lat="46.00124" lon="6.47472">
        <ele>2002</ele>
        <time>2010-12-11 10:10:03Z</time>
      </trkpt>
      <trkpt lat="46.00125" lon="6.47469">
        <ele>2001</ele>
        <time>2010-12-11 10:10:07Z</time>
      </trkpt>
      <trkpt lat="46.00125" lon="6.47464">
        <ele>2003</ele>
        <time>2010-12-11 10:10:11Z</time>
      </trkpt>
      <trkpt lat="46.00125" lon="6.47464">
        <ele>2003</ele>
        <time>2010-12-11 10:10:15Z</time>
      </trkpt>
      <trkpt lat="46.00126" lon="6.47458">
        <ele>2003</ele>
        <time>2010-12-11 10:10:19Z</time>
      </trkpt>
      <trkpt lat="46.00126" lon="6.47458">
        <ele>2003</ele>
        <time>2010-12-11 10:10:23Z</time>
      </trkpt>
      <trkpt lat="46.00127" lon="6.47451">
        <ele>2004</ele>
        <time>2010-12-11 10:10:27Z</time>
      </trkpt>
      <trkpt lat="46.00128" lon="6.47449">
        <ele>2003</ele>
        <time>2010-12-11 10:10:31Z</time>
      </trkpt>
      <trkpt lat="46.00129" lon="6.47449">
        <ele>2004</ele>
        <time>2010-12-11 10:10:35Z</time>
      </trkpt>
      <trkpt lat="46.0013" lon="6.47449">
        <ele>2004</ele>
        <time>2010-12-11 10:10:39Z</time>
      </trkpt>
      <trkpt lat="46.0013" lon="6.47449">
        <ele>2004</ele>
        <time>2010-12-11 10:10:43Z</time>
      </trkpt>
      <trkpt lat="46.00134" lon="6.47449">
        <ele>2006</ele>
        <time>2010-12-11 10:10:47Z</time>
      </trkpt>
      <trkpt lat="46.00137" lon="6.47448">
        <ele>2007</ele>
        <time>2010-12-11 10:10:51Z</time>
      </trkpt>
      <trkpt lat="46.00137" lon="6.47448">
        <ele>2007</ele>
        <time>2010-12-11 10:10:55Z</time>
      </trkpt>
      <trkpt lat="46.0014" lon="6.47447">
        <ele>2009</ele>
        <time>2010-12-11 10:10:59Z</time>
      </trkpt>
      <trkpt lat="46.00142" lon="6.47448">
        <ele>2009</ele>
        <time>2010-12-11 10:11:03Z</time>
      </trkpt>
      <trkpt lat="46.00143" lon="6.47448">
        <ele>2009</ele>
        <time>2010-12-11 10:11:07Z</time>
      </trkpt>
      <trkpt lat="46.00147" lon="6.4745">
        <ele>2010</ele>
        <time>2010-12-11 10:11:11Z</time>
      </trkpt>
      <trkpt lat="46.0015" lon="6.47451">
        <ele>2010</ele>
        <time>2010-12-11 10:11:15Z</time>
      </trkpt>
      <trkpt lat="46.00151" lon="6.47452">
        <ele>2011</ele>
        <time>2010-12-11 10:11:19Z</time>
      </trkpt>
      <trkpt lat="46.00155" lon="6.47454">
        <ele>2012</ele>
        <time>2010-12-11 10:11:23Z</time>
      </trkpt>
      <trkpt lat="46.00156" lon="6.47457">
        <ele>2013</ele>
        <time>2010-12-11 10:11:27Z</time>
      </trkpt>
      <trkpt lat="46.00157" lon="6.47458">
        <ele>2013</ele>
        <time>2010-12-11 10:11:31Z</time>
      </trkpt>
      <trkpt lat="46.00158" lon="6.47457">
        <ele>2014</ele>
        <time>2010-12-11 10:11:35Z</time>
      </trkpt>
      <trkpt lat="46.0016" lon="6.47454">
        <ele>2014</ele>
        <time>2010-12-11 10:11:39Z</time>
      </trkpt>
      <trkpt lat="46.0016" lon="6.47454">
        <ele>2014</ele>
        <time>2010-12-11 10:11:43Z</time>
      </trkpt>
      <trkpt lat="46.0016" lon="6.4745">
        <ele>2015</ele>
        <time>2010-12-11 10:11:47Z</time>
      </trkpt>
      <trkpt lat="46.0016" lon="6.47448">
        <ele>2016</ele>
        <time>2010-12-11 10:11:51Z</time>
      </trkpt>
      <trkpt lat="46.0016" lon="6.47445">
        <ele>2016</ele>
        <time>2010-12-11 10:11:55Z</time>
      </trkpt>
      <trkpt lat="46.00161" lon="6.47444">
        <ele>2017</ele>
        <time>2010-12-11 10:11:59Z</time>
      </trkpt>
      <trkpt lat="46.00161" lon="6.4744">
        <ele>2017</ele>
        <time>2010-12-11 10:12:03Z</time>
      </trkpt>
      <trkpt lat="46.00161" lon="6.4744">
        <ele>2017</ele>
        <time>2010-12-11 10:12:07Z</time>
      </trkpt>
      <trkpt lat="46.00162" lon="6.47433">
        <ele>2019</ele>
        <time>2010-12-11 10:12:11Z</time>
      </trkpt>
      <trkpt lat="46.00162" lon="6.47433">
        <ele>2019</ele>
        <time>2010-12-11 10:12:15Z</time>
      </trkpt>
      <trkpt lat="46.00162" lon="6.47433">
        <ele>2019</ele>
        <time>2010-12-11 10:12:19Z</time>
      </trkpt>
      <trkpt lat="46.00163" lon="6.47423">
        <ele>2022</ele>
        <time>2010-12-11 10:12:23Z</time>
      </trkpt>
      <trkpt lat="46.00164" lon="6.47422">
        <ele>2022</ele>
        <time>2010-12-11 10:12:27Z</time>
      </trkpt>
      <trkpt lat="46.00164" lon="6.47423">
        <ele>2022</ele>
        <time>2010-12-11 10:12:31Z</time>
      </trkpt>
      <trkpt lat="46.00166" lon="6.47424">
        <ele>2022</ele>
        <time>2010-12-11 10:12:35Z</time>
      </trkpt>
      <trkpt lat="46.00168" lon="6.47426">
        <ele>2023</ele>
        <time>2010-12-11 10:12:39Z</time>
      </trkpt>
      <trkpt lat="46.0017" lon="6.47429">
        <ele>2024</ele>
        <time>2010-12-11 10:12:43Z</time>
      </trkpt>
      <trkpt lat="46.00171" lon="6.4743">
        <ele>2024</ele>
        <time>2010-12-11 10:12:47Z</time>
      </trkpt>
      <trkpt lat="46.00172" lon="6.47433">
        <ele>2025</ele>
        <time>2010-12-11 10:12:51Z</time>
      </trkpt>
      <trkpt lat="46.00175" lon="6.47435">
        <ele>2025</ele>
        <time>2010-12-11 10:12:55Z</time>
      </trkpt>
      <trkpt lat="46.00177" lon="6.47434">
        <ele>2026</ele>
        <time>2010-12-11 10:12:59Z</time>
      </trkpt>
      <trkpt lat="46.00179" lon="6.47432">
        <ele>2026</ele>
        <time>2010-12-11 10:13:03Z</time>
      </trkpt>
      <trkpt lat="46.0018" lon="6.4743">
        <ele>2026</ele>
        <time>2010-12-11 10:13:07Z</time>
      </trkpt>
      <trkpt lat="46.0018" lon="6.47428">
        <ele>2026</ele>
        <time>2010-12-11 10:13:11Z</time>
      </trkpt>
      <trkpt lat="46.00181" lon="6.47426">
        <ele>2026</ele>
        <time>2010-12-11 10:13:15Z</time>
      </trkpt>
      <trkpt lat="46.00182" lon="6.47423">
        <ele>2027</ele>
        <time>2010-12-11 10:13:19Z</time>
      </trkpt>
      <trkpt lat="46.00184" lon="6.47422">
        <ele>2028</ele>
        <time>2010-12-11 10:13:23Z</time>
      </trkpt>
      <trkpt lat="46.00185" lon="6.47421">
        <ele>2029</ele>
        <time>2010-12-11 10:13:27Z</time>
      </trkpt>
      <trkpt lat="46.00187" lon="6.47421">
        <ele>2029</ele>
        <time>2010-12-11 10:13:31Z</time>
      </trkpt>
      <trkpt lat="46.00188" lon="6.47421">
        <ele>2029</ele>
        <time>2010-12-11 10:13:35Z</time>
      </trkpt>
      <trkpt lat="46.0019" lon="6.47422">
        <ele>2030</ele>
        <time>2010-12-11 10:13:39Z</time>
      </trkpt>
      <trkpt lat="46.00191" lon="6.47424">
        <ele>2030</ele>
        <time>2010-12-11 10:13:43Z</time>
      </trkpt>
      <trkpt lat="46.00192" lon="6.47424">
        <ele>2031</ele>
        <time>2010-12-11 10:13:47Z</time>
      </trkpt>
      <trkpt lat="46.00193" lon="6.47424">
        <ele>2031</ele>
        <time>2010-12-11 10:13:51Z</time>
      </trkpt>
      <trkpt lat="46.00195" lon="6.47423">
        <ele>2032</ele>
        <time>2010-12-11 10:13:55Z</time>
      </trkpt>
      <trkpt lat="46.00195" lon="6.47422">
        <ele>2032</ele>
        <time>2010-12-11 10:13:59Z</time>
      </trkpt>
      <trkpt lat="46.00197" lon="6.47421">
        <ele>2033</ele>
        <time>2010-12-11 10:14:03Z</time>
      </trkpt>
      <trkpt lat="46.00198" lon="6.47422">
        <ele>2034</ele>
        <time>2010-12-11 10:14:07Z</time>
      </trkpt>
      <trkpt lat="46.00198" lon="6.47422">
        <ele>2036</ele>
        <time>2010-12-11 10:14:11Z</time>
      </trkpt>
      <trkpt lat="46.002" lon="6.47423">
        <ele>2038</ele>
        <time>2010-12-11 10:14:15Z</time>
      </trkpt>
      <trkpt lat="46.00201" lon="6.47423">
        <ele>2039</ele>
        <time>2010-12-11 10:14:19Z</time>
      </trkpt>
      <trkpt lat="46.00203" lon="6.47422">
        <ele>2041</ele>
        <time>2010-12-11 10:14:23Z</time>
      </trkpt>
      <trkpt lat="46.00205" lon="6.4742">
        <ele>2043</ele>
        <time>2010-12-11 10:14:27Z</time>
      </trkpt>
      <trkpt lat="46.00209" lon="6.47417">
        <ele>2045</ele>
        <time>2010-12-11 10:14:31Z</time>
      </trkpt>
      <trkpt lat="46.0021" lon="6.47415">
        <ele>2047</ele>
        <time>2010-12-11 10:14:35Z</time>
      </trkpt>
      <trkpt lat="46.00211" lon="6.47412">
        <ele>2047</ele>
        <time>2010-12-11 10:14:39Z</time>
      </trkpt>
      <trkpt lat="46.00216" lon="6.47412">
        <ele>2047</ele>
        <time>2010-12-11 10:14:43Z</time>
      </trkpt>
      <trkpt lat="46.0022" lon="6.47412">
        <ele>2049</ele>
        <time>2010-12-11 10:14:47Z</time>
      </trkpt>
      <trkpt lat="46.00222" lon="6.47412">
        <ele>2050</ele>
        <time>2010-12-11 10:14:51Z</time>
      </trkpt>
      <trkpt lat="46.00224" lon="6.47411">
        <ele>2051</ele>
        <time>2010-12-11 10:14:55Z</time>
      </trkpt>
      <trkpt lat="46.00226" lon="6.47411">
        <ele>2051</ele>
        <time>2010-12-11 10:14:59Z</time>
      </trkpt>
      <trkpt lat="46.00227" lon="6.47411">
        <ele>2050</ele>
        <time>2010-12-11 10:15:03Z</time>
      </trkpt>
      <trkpt lat="46.00231" lon="6.47412">
        <ele>2050</ele>
        <time>2010-12-11 10:15:07Z</time>
      </trkpt>
      <trkpt lat="46.00235" lon="6.47414">
        <ele>2051</ele>
        <time>2010-12-11 10:15:11Z</time>
      </trkpt>
      <trkpt lat="46.00237" lon="6.47414">
        <ele>2052</ele>
        <time>2010-12-11 10:15:15Z</time>
      </trkpt>
      <trkpt lat="46.00237" lon="6.47414">
        <ele>2052</ele>
        <time>2010-12-11 10:15:19Z</time>
      </trkpt>
      <trkpt lat="46.00242" lon="6.47415">
        <ele>2052</ele>
        <time>2010-12-11 10:15:23Z</time>
      </trkpt>
      <trkpt lat="46.00242" lon="6.47415">
        <ele>2052</ele>
        <time>2010-12-11 10:15:27Z</time>
      </trkpt>
      <trkpt lat="46.00244" lon="6.4741">
        <ele>2052</ele>
        <time>2010-12-11 10:15:31Z</time>
      </trkpt>
      <trkpt lat="46.00244" lon="6.47409">
        <ele>2053</ele>
        <time>2010-12-11 10:15:35Z</time>
      </trkpt>
      <trkpt lat="46.00245" lon="6.47403">
        <ele>2056</ele>
        <time>2010-12-11 10:15:39Z</time>
      </trkpt>
      <trkpt lat="46.00245" lon="6.47403">
        <ele>2056</ele>
        <time>2010-12-11 10:15:43Z</time>
      </trkpt>
      <trkpt lat="46.00246" lon="6.47402">
        <ele>2057</ele>
        <time>2010-12-11 10:15:47Z</time>
      </trkpt>
      <trkpt lat="46.00248" lon="6.47404">
        <ele>2059</ele>
        <time>2010-12-11 10:15:51Z</time>
      </trkpt>
      <trkpt lat="46.00249" lon="6.47405">
        <ele>2060</ele>
        <time>2010-12-11 10:15:55Z</time>
      </trkpt>
      <trkpt lat="46.00251" lon="6.47407">
        <ele>2063</ele>
        <time>2010-12-11 10:15:59Z</time>
      </trkpt>
      <trkpt lat="46.00252" lon="6.47408">
        <ele>2063</ele>
        <time>2010-12-11 10:16:03Z</time>
      </trkpt>
      <trkpt lat="46.00254" lon="6.47407">
        <ele>2061</ele>
        <time>2010-12-11 10:16:07Z</time>
      </trkpt>
      <trkpt lat="46.00255" lon="6.47405">
        <ele>2061</ele>
        <time>2010-12-11 10:16:11Z</time>
      </trkpt>
      <trkpt lat="46.00256" lon="6.47403">
        <ele>2062</ele>
        <time>2010-12-11 10:16:15Z</time>
      </trkpt>
      <trkpt lat="46.00256" lon="6.474">
        <ele>2063</ele>
        <time>2010-12-11 10:16:19Z</time>
      </trkpt>
      <trkpt lat="46.00256" lon="6.47397">
        <ele>2064</ele>
        <time>2010-12-11 10:16:23Z</time>
      </trkpt>
      <trkpt lat="46.00256" lon="6.47391">
        <ele>2063</ele>
        <time>2010-12-11 10:16:27Z</time>
      </trkpt>
      <trkpt lat="46.00256" lon="6.47387">
        <ele>2063</ele>
        <time>2010-12-11 10:16:31Z</time>
      </trkpt>
      <trkpt lat="46.00257" lon="6.4738">
        <ele>2064</ele>
        <time>2010-12-11 10:16:35Z</time>
      </trkpt>
      <trkpt lat="46.00257" lon="6.47375">
        <ele>2065</ele>
        <time>2010-12-11 10:16:39Z</time>
      </trkpt>
      <trkpt lat="46.00257" lon="6.47372">
        <ele>2064</ele>
        <time>2010-12-11 10:16:43Z</time>
      </trkpt>
      <trkpt lat="46.00258" lon="6.47372">
        <ele>2063</ele>
        <time>2010-12-11 10:16:47Z</time>
      </trkpt>
      <trkpt lat="46.0026" lon="6.47374">
        <ele>2062</ele>
        <time>2010-12-11 10:16:51Z</time>
      </trkpt>
      <trkpt lat="46.00261" lon="6.47375">
        <ele>2062</ele>
        <time>2010-12-11 10:16:55Z</time>
      </trkpt>
      <trkpt lat="46.00263" lon="6.47377">
        <ele>2064</ele>
        <time>2010-12-11 10:16:59Z</time>
      </trkpt>
      <trkpt lat="46.00265" lon="6.47381">
        <ele>2065</ele>
        <time>2010-12-11 10:17:03Z</time>
      </trkpt>
      <trkpt lat="46.00265" lon="6.47382">
        <ele>2066</ele>
        <time>2010-12-11 10:17:07Z</time>
      </trkpt>
      <trkpt lat="46.00268" lon="6.47384">
        <ele>2070</ele>
        <time>2010-12-11 10:17:11Z</time>
      </trkpt>
      <trkpt lat="46.0027" lon="6.47384">
        <ele>2074</ele>
        <time>2010-12-11 10:17:15Z</time>
      </trkpt>
      <trkpt lat="46.00272" lon="6.47383">
        <ele>2076</ele>
        <time>2010-12-11 10:17:19Z</time>
      </trkpt>
      <trkpt lat="46.00275" lon="6.47382">
        <ele>2077</ele>
        <time>2010-12-11 10:17:23Z</time>
      </trkpt>
      <trkpt lat="46.00278" lon="6.4738">
        <ele>2078</ele>
        <time>2010-12-11 10:17:27Z</time>
      </trkpt>
      <trkpt lat="46.00281" lon="6.47379">
        <ele>2079</ele>
        <time>2010-12-11 10:17:31Z</time>
      </trkpt>
      <trkpt lat="46.00285" lon="6.47376">
        <ele>2080</ele>
        <time>2010-12-11 10:17:35Z</time>
      </trkpt>
      <trkpt lat="46.00288" lon="6.47374">
        <ele>2081</ele>
        <time>2010-12-11 10:17:39Z</time>
      </trkpt>
      <trkpt lat="46.00291" lon="6.47372">
        <ele>2080</ele>
        <time>2010-12-11 10:17:43Z</time>
      </trkpt>
      <trkpt lat="46.00296" lon="6.4737">
        <ele>2080</ele>
        <time>2010-12-11 10:17:47Z</time>
      </trkpt>
      <trkpt lat="46.00298" lon="6.4737">
        <ele>2079</ele>
        <time>2010-12-11 10:17:51Z</time>
      </trkpt>
      <trkpt lat="46.00301" lon="6.4737">
        <ele>2079</ele>
        <time>2010-12-11 10:17:55Z</time>
      </trkpt>
      <trkpt lat="46.00303" lon="6.4737">
        <ele>2080</ele>
        <time>2010-12-11 10:17:59Z</time>
      </trkpt>
      <trkpt lat="46.00304" lon="6.4737">
        <ele>2080</ele>
        <time>2010-12-11 10:18:03Z</time>
      </trkpt>
      <trkpt lat="46.00306" lon="6.47371">
        <ele>2080</ele>
        <time>2010-12-11 10:18:07Z</time>
      </trkpt>
      <trkpt lat="46.00308" lon="6.4737">
        <ele>2082</ele>
        <time>2010-12-11 10:18:11Z</time>
      </trkpt>
      <trkpt lat="46.00309" lon="6.47369">
        <ele>2083</ele>
        <time>2010-12-11 10:18:15Z</time>
      </trkpt>
      <trkpt lat="46.0031" lon="6.47368">
        <ele>2083</ele>
        <time>2010-12-11 10:18:19Z</time>
      </trkpt>
      <trkpt lat="46.0031" lon="6.47367">
        <ele>2083</ele>
        <time>2010-12-11 10:18:23Z</time>
      </trkpt>
      <trkpt lat="46.00311" lon="6.47365">
        <ele>2082</ele>
        <time>2010-12-11 10:18:27Z</time>
      </trkpt>
      <trkpt lat="46.00312" lon="6.47364">
        <ele>2080</ele>
        <time>2010-12-11 10:18:31Z</time>
      </trkpt>
      <trkpt lat="46.00313" lon="6.47364">
        <ele>2078</ele>
        <time>2010-12-11 10:18:35Z</time>
      </trkpt>
      <trkpt lat="46.00316" lon="6.47364">
        <ele>2079</ele>
        <time>2010-12-11 10:18:39Z</time>
      </trkpt>
      <trkpt lat="46.00318" lon="6.47365">
        <ele>2081</ele>
        <time>2010-12-11 10:18:43Z</time>
      </trkpt>
      <trkpt lat="46.00322" lon="6.47365">
        <ele>2083</ele>
        <time>2010-12-11 10:18:47Z</time>
      </trkpt>
      <trkpt lat="46.00326" lon="6.47365">
        <ele>2083</ele>
        <time>2010-12-11 10:18:51Z</time>
      </trkpt>
      <trkpt lat="46.00329" lon="6.47365">
        <ele>2085</ele>
        <time>2010-12-11 10:18:55Z</time>
      </trkpt>
      <trkpt lat="46.00333" lon="6.47365">
        <ele>2084</ele>
        <time>2010-12-11 10:18:59Z</time>
      </trkpt>
      <trkpt lat="46.00336" lon="6.47365">
        <ele>2085</ele>
        <time>2010-12-11 10:19:03Z</time>
      </trkpt>
      <trkpt lat="46.00337" lon="6.47365">
        <ele>2085</ele>
        <time>2010-12-11 10:19:07Z</time>
      </trkpt>
      <trkpt lat="46.00342" lon="6.47364">
        <ele>2086</ele>
        <time>2010-12-11 10:19:11Z</time>
      </trkpt>
      <trkpt lat="46.00345" lon="6.47364">
        <ele>2086</ele>
        <time>2010-12-11 10:19:15Z</time>
      </trkpt>
      <trkpt lat="46.00347" lon="6.47363">
        <ele>2089</ele>
        <time>2010-12-11 10:19:19Z</time>
      </trkpt>
      <trkpt lat="46.00349" lon="6.47362">
        <ele>2090</ele>
        <time>2010-12-11 10:19:23Z</time>
      </trkpt>
      <trkpt lat="46.00351" lon="6.47361">
        <ele>2089</ele>
        <time>2010-12-11 10:19:27Z</time>
      </trkpt>
      <trkpt lat="46.00353" lon="6.4736">
        <ele>2088</ele>
        <time>2010-12-11 10:19:31Z</time>
      </trkpt>
      <trkpt lat="46.00355" lon="6.47358">
        <ele>2090</ele>
        <time>2010-12-11 10:19:35Z</time>
      </trkpt>
      <trkpt lat="46.00357" lon="6.47356">
        <ele>2091</ele>
        <time>2010-12-11 10:19:39Z</time>
      </trkpt>
      <trkpt lat="46.00358" lon="6.47355">
        <ele>2093</ele>
        <time>2010-12-11 10:19:43Z</time>
      </trkpt>
      <trkpt lat="46.00359" lon="6.47354">
        <ele>2092</ele>
        <time>2010-12-11 10:19:47Z</time>
      </trkpt>
      <trkpt lat="46.00359" lon="6.47353">
        <ele>2094</ele>
        <time>2010-12-11 10:19:51Z</time>
      </trkpt>
      <trkpt lat="46.00359" lon="6.47353">
        <ele>2099</ele>
        <time>2010-12-11 10:19:55Z</time>
      </trkpt>
      <trkpt lat="46.00359" lon="6.47353">
        <ele>2100</ele>
        <time>2010-12-11 10:19:59Z</time>
      </trkpt>
      <trkpt lat="46.00359" lon="6.47352">
        <ele>2102</ele>
        <time>2010-12-11 10:20:03Z</time>
      </trkpt>
      <trkpt lat="46.00359" lon="6.47352">
        <ele>2103</ele>
        <time>2010-12-11 10:20:07Z</time>
      </trkpt>
      <trkpt lat="46.00359" lon="6.47352">
        <ele>2103</ele>
        <time>2010-12-11 10:20:11Z</time>
      </trkpt>
      <trkpt lat="46.00359" lon="6.47352">
        <ele>2099</ele>
        <time>2010-12-11 10:20:15Z</time>
      </trkpt>
      <trkpt lat="46.00359" lon="6.47352">
        <ele>2096</ele>
        <time>2010-12-11 10:20:19Z</time>
      </trkpt>
      <trkpt lat="46.00358" lon="6.47353">
        <ele>2096</ele>
        <time>2010-12-11 10:20:23Z</time>
      </trkpt>
      <trkpt lat="46.00358" lon="6.47353">
        <ele>2097</ele>
        <time>2010-12-11 10:20:27Z</time>
      </trkpt>
      <trkpt lat="46.00358" lon="6.47353">
        <ele>2099</ele>
        <time>2010-12-11 10:20:31Z</time>
      </trkpt>
      <trkpt lat="46.00359" lon="6.47353">
        <ele>2097</ele>
        <time>2010-12-11 10:20:35Z</time>
      </trkpt>
      <trkpt lat="46.00359" lon="6.47353">
        <ele>2094</ele>
        <time>2010-12-11 10:20:39Z</time>
      </trkpt>
      <trkpt lat="46.00359" lon="6.47354">
        <ele>2091</ele>
        <time>2010-12-11 10:20:43Z</time>
      </trkpt>
      <trkpt lat="46.00359" lon="6.47354">
        <ele>2090</ele>
        <time>2010-12-11 10:20:47Z</time>
      </trkpt>
      <trkpt lat="46.00359" lon="6.47355">
        <ele>2091</ele>
        <time>2010-12-11 10:20:51Z</time>
      </trkpt>
      <trkpt lat="46.0036" lon="6.47355">
        <ele>2093</ele>
        <time>2010-12-11 10:20:55Z</time>
      </trkpt>
      <trkpt lat="46.0036" lon="6.47355">
        <ele>2095</ele>
        <time>2010-12-11 10:20:59Z</time>
      </trkpt>
      <trkpt lat="46.0036" lon="6.47354">
        <ele>2096</ele>
        <time>2010-12-11 10:21:03Z</time>
      </trkpt>
      <trkpt lat="46.00358" lon="6.47353">
        <ele>2099</ele>
        <time>2010-12-11 10:21:07Z</time>
      </trkpt>
      <trkpt lat="46.00357" lon="6.47353">
        <ele>2100</ele>
        <time>2010-12-11 10:21:11Z</time>
      </trkpt>
      <trkpt lat="46.00356" lon="6.47352">
        <ele>2100</ele>
        <time>2010-12-11 10:21:15Z</time>
      </trkpt>
      <trkpt lat="46.00356" lon="6.47352">
        <ele>2100</ele>
        <time>2010-12-11 10:21:19Z</time>
      </trkpt>
      <trkpt lat="46.00356" lon="6.47352">
        <ele>2100</ele>
        <time>2010-12-11 10:21:23Z</time>
      </trkpt>
      <trkpt lat="46.00357" lon="6.47351">
        <ele>2104</ele>
        <time>2010-12-11 10:21:27Z</time>
      </trkpt>
      <trkpt lat="46.00357" lon="6.4735">
        <ele>2105</ele>
        <time>2010-12-11 10:21:31Z</time>
      </trkpt>
      <trkpt lat="46.00357" lon="6.4735">
        <ele>2107</ele>
        <time>2010-12-11 10:21:35Z</time>
      </trkpt>
      <trkpt lat="46.00357" lon="6.4735">
        <ele>2107</ele>
        <time>2010-12-11 10:21:39Z</time>
      </trkpt>
      <trkpt lat="46.00357" lon="6.4735">
        <ele>2107</ele>
        <time>2010-12-11 10:21:43Z</time>
      </trkpt>
      <trkpt lat="46.00357" lon="6.4735">
        <ele>2107</ele>
        <time>2010-12-11 10:21:47Z</time>
      </trkpt>
      <trkpt lat="46.00358" lon="6.47348">
        <ele>2108</ele>
        <time>2010-12-11 10:21:51Z</time>
      </trkpt>
      <trkpt lat="46.00358" lon="6.47346">
        <ele>2108</ele>
        <time>2010-12-11 10:21:55Z</time>
      </trkpt>
      <trkpt lat="46.00359" lon="6.47346">
        <ele>2108</ele>
        <time>2010-12-11 10:21:59Z</time>
      </trkpt>
      <trkpt lat="46.00359" lon="6.47342">
        <ele>2110</ele>
        <time>2010-12-11 10:22:03Z</time>
      </trkpt>
      <trkpt lat="46.0036" lon="6.47339">
        <ele>2110</ele>
        <time>2010-12-11 10:22:07Z</time>
      </trkpt>
      <trkpt lat="46.00361" lon="6.47335">
        <ele>2111</ele>
        <time>2010-12-11 10:22:11Z</time>
      </trkpt>
      <trkpt lat="46.00363" lon="6.47332">
        <ele>2112</ele>
        <time>2010-12-11 10:22:15Z</time>
      </trkpt>
      <trkpt lat="46.00364" lon="6.47331">
        <ele>2113</ele>
        <time>2010-12-11 10:22:19Z</time>
      </trkpt>
      <trkpt lat="46.00366" lon="6.47329">
        <ele>2114</ele>
        <time>2010-12-11 10:22:23Z</time>
      </trkpt>
      <trkpt lat="46.00368" lon="6.47328">
        <ele>2114</ele>
        <time>2010-12-11 10:22:27Z</time>
      </trkpt>
      <trkpt lat="46.00369" lon="6.47329">
        <ele>2113</ele>
        <time>2010-12-11 10:22:31Z</time>
      </trkpt>
      <trkpt lat="46.00372" lon="6.47331">
        <ele>2112</ele>
        <time>2010-12-11 10:22:35Z</time>
      </trkpt>
      <trkpt lat="46.00375" lon="6.47336">
        <ele>2112</ele>
        <time>2010-12-11 10:22:39Z</time>
      </trkpt>
      <trkpt lat="46.00377" lon="6.47341">
        <ele>2111</ele>
        <time>2010-12-11 10:22:43Z</time>
      </trkpt>
      <trkpt lat="46.00377" lon="6.47344">
        <ele>2110</ele>
        <time>2010-12-11 10:22:47Z</time>
      </trkpt>
      <trkpt lat="46.00378" lon="6.47345">
        <ele>2109</ele>
        <time>2010-12-11 10:22:51Z</time>
      </trkpt>
      <trkpt lat="46.00379" lon="6.47344">
        <ele>2108</ele>
        <time>2010-12-11 10:22:55Z</time>
      </trkpt>
      <trkpt lat="46.00381" lon="6.47343">
        <ele>2109</ele>
        <time>2010-12-11 10:22:59Z</time>
      </trkpt>
      <trkpt lat="46.00383" lon="6.4734">
        <ele>2109</ele>
        <time>2010-12-11 10:23:03Z</time>
      </trkpt>
      <trkpt lat="46.00384" lon="6.47339">
        <ele>2111</ele>
        <time>2010-12-11 10:23:07Z</time>
      </trkpt>
      <trkpt lat="46.00385" lon="6.47337">
        <ele>2108</ele>
        <time>2010-12-11 10:23:11Z</time>
      </trkpt>
      <trkpt lat="46.00386" lon="6.47335">
        <ele>2106</ele>
        <time>2010-12-11 10:23:15Z</time>
      </trkpt>
      <trkpt lat="46.00386" lon="6.47334">
        <ele>2106</ele>
        <time>2010-12-11 10:23:19Z</time>
      </trkpt>
      <trkpt lat="46.00388" lon="6.47332">
        <ele>2105</ele>
        <time>2010-12-11 10:23:23Z</time>
      </trkpt>
      <trkpt lat="46.00391" lon="6.4733">
        <ele>2106</ele>
        <time>2010-12-11 10:23:27Z</time>
      </trkpt>
      <trkpt lat="46.00392" lon="6.47329">
        <ele>2104</ele>
        <time>2010-12-11 10:23:31Z</time>
      </trkpt>
      <trkpt lat="46.00394" lon="6.47326">
        <ele>2105</ele>
        <time>2010-12-11 10:23:35Z</time>
      </trkpt>
      <trkpt lat="46.00396" lon="6.47323">
        <ele>2108</ele>
        <time>2010-12-11 10:23:39Z</time>
      </trkpt>
      <trkpt lat="46.00398" lon="6.47321">
        <ele>2109</ele>
        <time>2010-12-11 10:23:43Z</time>
      </trkpt>
      <trkpt lat="46.00399" lon="6.47319">
        <ele>2109</ele>
        <time>2010-12-11 10:23:47Z</time>
      </trkpt>
      <trkpt lat="46.004" lon="6.47318">
        <ele>2109</ele>
        <time>2010-12-11 10:23:51Z</time>
      </trkpt>
      <trkpt lat="46.00402" lon="6.47316">
        <ele>2110</ele>
        <time>2010-12-11 10:23:55Z</time>
      </trkpt>
      <trkpt lat="46.00404" lon="6.47315">
        <ele>2110</ele>
        <time>2010-12-11 10:23:59Z</time>
      </trkpt>
      <trkpt lat="46.00406" lon="6.47312">
        <ele>2110</ele>
        <time>2010-12-11 10:24:03Z</time>
      </trkpt>
      <trkpt lat="46.00408" lon="6.47309">
        <ele>2111</ele>
        <time>2010-12-11 10:24:07Z</time>
      </trkpt>
      <trkpt lat="46.0041" lon="6.47307">
        <ele>2112</ele>
        <time>2010-12-11 10:24:11Z</time>
      </trkpt>
      <trkpt lat="46.00413" lon="6.47304">
        <ele>2113</ele>
        <time>2010-12-11 10:24:15Z</time>
      </trkpt>
      <trkpt lat="46.00416" lon="6.47302">
        <ele>2114</ele>
        <time>2010-12-11 10:24:19Z</time>
      </trkpt>
      <trkpt lat="46.00416" lon="6.47302">
        <ele>2114</ele>
        <time>2010-12-11 10:24:23Z</time>
      </trkpt>
      <trkpt lat="46.00416" lon="6.47302">
        <ele>2114</ele>
        <time>2010-12-11 10:24:27Z</time>
      </trkpt>
      <trkpt lat="46.00423" lon="6.47295">
        <ele>2114</ele>
        <time>2010-12-11 10:24:31Z</time>
      </trkpt>
      <trkpt lat="46.00425" lon="6.47292">
        <ele>2113</ele>
        <time>2010-12-11 10:24:35Z</time>
      </trkpt>
      <trkpt lat="46.00427" lon="6.47291">
        <ele>2113</ele>
        <time>2010-12-11 10:24:39Z</time>
      </trkpt>
      <trkpt lat="46.0043" lon="6.47287">
        <ele>2115</ele>
        <time>2010-12-11 10:24:43Z</time>
      </trkpt>
      <trkpt lat="46.00431" lon="6.47283">
        <ele>2116</ele>
        <time>2010-12-11 10:24:47Z</time>
      </trkpt>
      <trkpt lat="46.00433" lon="6.4728">
        <ele>2118</ele>
        <time>2010-12-11 10:24:51Z</time>
      </trkpt>
      <trkpt lat="46.00435" lon="6.47276">
        <ele>2118</ele>
        <time>2010-12-11 10:24:55Z</time>
      </trkpt>
      <trkpt lat="46.00437" lon="6.47273">
        <ele>2118</ele>
        <time>2010-12-11 10:24:59Z</time>
      </trkpt>
      <trkpt lat="46.00438" lon="6.4727">
        <ele>2116</ele>
        <time>2010-12-11 10:25:03Z</time>
      </trkpt>
      <trkpt lat="46.0044" lon="6.47268">
        <ele>2117</ele>
        <time>2010-12-11 10:25:07Z</time>
      </trkpt>
      <trkpt lat="46.00441" lon="6.47265">
        <ele>2117</ele>
        <time>2010-12-11 10:25:11Z</time>
      </trkpt>
      <trkpt lat="46.00442" lon="6.47262">
        <ele>2116</ele>
        <time>2010-12-11 10:25:15Z</time>
      </trkpt>
      <trkpt lat="46.00443" lon="6.4726">
        <ele>2118</ele>
        <time>2010-12-11 10:25:19Z</time>
      </trkpt>
      <trkpt lat="46.00445" lon="6.47256">
        <ele>2121</ele>
        <time>2010-12-11 10:25:23Z</time>
      </trkpt>
      <trkpt lat="46.00445" lon="6.47253">
        <ele>2122</ele>
        <time>2010-12-11 10:25:27Z</time>
      </trkpt>
      <trkpt lat="46.00446" lon="6.4725">
        <ele>2123</ele>
        <time>2010-12-11 10:25:31Z</time>
      </trkpt>
      <trkpt lat="46.00447" lon="6.47249">
        <ele>2123</ele>
        <time>2010-12-11 10:25:35Z</time>
      </trkpt>
      <trkpt lat="46.00448" lon="6.47245">
        <ele>2123</ele>
        <time>2010-12-11 10:25:39Z</time>
      </trkpt>
      <trkpt lat="46.00449" lon="6.47243">
        <ele>2122</ele>
        <time>2010-12-11 10:25:43Z</time>
      </trkpt>
      <trkpt lat="46.00449" lon="6.4724">
        <ele>2123</ele>
        <time>2010-12-11 10:25:47Z</time>
      </trkpt>
      <trkpt lat="46.0045" lon="6.47238">
        <ele>2123</ele>
        <time>2010-12-11 10:25:51Z</time>
      </trkpt>
      <trkpt lat="46.00451" lon="6.47235">
        <ele>2122</ele>
        <time>2010-12-11 10:25:55Z</time>
      </trkpt>
      <trkpt lat="46.00451" lon="6.47235">
        <ele>2122</ele>
        <time>2010-12-11 10:25:59Z</time>
      </trkpt>
      <trkpt lat="46.00455" lon="6.47229">
        <ele>2122</ele>
        <time>2010-12-11 10:26:03Z</time>
      </trkpt>
      <trkpt lat="46.00457" lon="6.47226">
        <ele>2124</ele>
        <time>2010-12-11 10:26:07Z</time>
      </trkpt>
      <trkpt lat="46.00459" lon="6.47224">
        <ele>2125</ele>
        <time>2010-12-11 10:26:11Z</time>
      </trkpt>
      <trkpt lat="46.00459" lon="6.47222">
        <ele>2125</ele>
        <time>2010-12-11 10:26:15Z</time>
      </trkpt>
      <trkpt lat="46.0046" lon="6.4722">
        <ele>2127</ele>
        <time>2010-12-11 10:26:19Z</time>
      </trkpt>
      <trkpt lat="46.00462" lon="6.47217">
        <ele>2127</ele>
        <time>2010-12-11 10:26:23Z</time>
      </trkpt>
      <trkpt lat="46.00463" lon="6.47215">
        <ele>2129</ele>
        <time>2010-12-11 10:26:27Z</time>
      </trkpt>
      <trkpt lat="46.00464" lon="6.47213">
        <ele>2128</ele>
        <time>2010-12-11 10:26:31Z</time>
      </trkpt>
      <trkpt lat="46.00465" lon="6.47211">
        <ele>2126</ele>
        <time>2010-12-11 10:26:35Z</time>
      </trkpt>
      <trkpt lat="46.00465" lon="6.47208">
        <ele>2129</ele>
        <time>2010-12-11 10:26:39Z</time>
      </trkpt>
      <trkpt lat="46.00465" lon="6.47205">
        <ele>2128</ele>
        <time>2010-12-11 10:26:43Z</time>
      </trkpt>
      <trkpt lat="46.00465" lon="6.47203">
        <ele>2129</ele>
        <time>2010-12-11 10:26:47Z</time>
      </trkpt>
      <trkpt lat="46.00466" lon="6.47201">
        <ele>2130</ele>
        <time>2010-12-11 10:26:51Z</time>
      </trkpt>
      <trkpt lat="46.00466" lon="6.472">
        <ele>2132</ele>
        <time>2010-12-11 10:26:55Z</time>
      </trkpt>
      <trkpt lat="46.00467" lon="6.47197">
        <ele>2132</ele>
        <time>2010-12-11 10:26:59Z</time>
      </trkpt>
      <trkpt lat="46.00468" lon="6.47195">
        <ele>2133</ele>
        <time>2010-12-11 10:27:03Z</time>
      </trkpt>
      <trkpt lat="46.00469" lon="6.47191">
        <ele>2133</ele>
        <time>2010-12-11 10:27:07Z</time>
      </trkpt>
      <trkpt lat="46.0047" lon="6.47188">
        <ele>2134</ele>
        <time>2010-12-11 10:27:11Z</time>
      </trkpt>
      <trkpt lat="46.00471" lon="6.47185">
        <ele>2135</ele>
        <time>2010-12-11 10:27:15Z</time>
      </trkpt>
      <trkpt lat="46.00472" lon="6.47183">
        <ele>2137</ele>
        <time>2010-12-11 10:27:19Z</time>
      </trkpt>
      <trkpt lat="46.00472" lon="6.47182">
        <ele>2138</ele>
        <time>2010-12-11 10:27:23Z</time>
      </trkpt>
      <trkpt lat="46.00472" lon="6.47182">
        <ele>2138</ele>
        <time>2010-12-11 10:27:27Z</time>
      </trkpt>
      <trkpt lat="46.00475" lon="6.47183">
        <ele>2147</ele>
        <time>2010-12-11 10:27:31Z</time>
      </trkpt>
      <trkpt lat="46.00479" lon="6.47187">
        <ele>2147</ele>
        <time>2010-12-11 10:27:35Z</time>
      </trkpt>
      <trkpt lat="46.00481" lon="6.47192">
        <ele>2148</ele>
        <time>2010-12-11 10:27:39Z</time>
      </trkpt>
      <trkpt lat="46.00483" lon="6.47194">
        <ele>2149</ele>
        <time>2010-12-11 10:27:43Z</time>
      </trkpt>
      <trkpt lat="46.00485" lon="6.47197">
        <ele>2150</ele>
        <time>2010-12-11 10:27:47Z</time>
      </trkpt>
      <trkpt lat="46.00486" lon="6.47199">
        <ele>2150</ele>
        <time>2010-12-11 10:27:51Z</time>
      </trkpt>
      <trkpt lat="46.00487" lon="6.47199">
        <ele>2150</ele>
        <time>2010-12-11 10:27:55Z</time>
      </trkpt>
      <trkpt lat="46.00488" lon="6.472">
        <ele>2150</ele>
        <time>2010-12-11 10:27:59Z</time>
      </trkpt>
      <trkpt lat="46.00488" lon="6.472">
        <ele>2152</ele>
        <time>2010-12-11 10:28:03Z</time>
      </trkpt>
      <trkpt lat="46.00488" lon="6.472">
        <ele>2154</ele>
        <time>2010-12-11 10:28:07Z</time>
      </trkpt>
      <trkpt lat="46.00488" lon="6.472">
        <ele>2154</ele>
        <time>2010-12-11 10:28:11Z</time>
      </trkpt>
      <trkpt lat="46.00488" lon="6.47199">
        <ele>2153</ele>
        <time>2010-12-11 10:28:15Z</time>
      </trkpt>
      <trkpt lat="46.00497" lon="6.47222">
        <ele>2188</ele>
        <time>2010-12-11 10:35:08Z</time>
      </trkpt>
      <trkpt lat="46.00497" lon="6.47222">
        <ele>2188</ele>
        <time>2010-12-11 10:35:12Z</time>
      </trkpt>
      <trkpt lat="46.00497" lon="6.47222">
        <ele>2188</ele>
        <time>2010-12-11 10:35:16Z</time>
      </trkpt>
      <trkpt lat="46.00497" lon="6.47222">
        <ele>2188</ele>
        <time>2010-12-11 10:35:20Z</time>
      </trkpt>
      <trkpt lat="46.00497" lon="6.47222">
        <ele>2188</ele>
        <time>2010-12-11 10:35:24Z</time>
      </trkpt>
      <trkpt lat="46.00497" lon="6.47222">
        <ele>2188</ele>
        <time>2010-12-11 10:35:28Z</time>
      </trkpt>
      <trkpt lat="46.00497" lon="6.47222">
        <ele>2188</ele>
        <time>2010-12-11 10:35:32Z</time>
      </trkpt>
      <trkpt lat="46.00484" lon="6.47197">
        <ele>2161</ele>
        <time>2010-12-11 10:35:36Z</time>
      </trkpt>
      <trkpt lat="46.0048" lon="6.47197">
        <ele>2162</ele>
        <time>2010-12-11 10:35:40Z</time>
      </trkpt>
      <trkpt lat="46.0048" lon="6.47197">
        <ele>2162</ele>
        <time>2010-12-11 10:35:44Z</time>
      </trkpt>
      <trkpt lat="46.0048" lon="6.47197">
        <ele>2162</ele>
        <time>2010-12-11 10:35:48Z</time>
      </trkpt>
      <trkpt lat="46.00481" lon="6.47198">
        <ele>2166</ele>
        <time>2010-12-11 10:35:52Z</time>
      </trkpt>
      <trkpt lat="46.00481" lon="6.472">
        <ele>2170</ele>
        <time>2010-12-11 10:35:56Z</time>
      </trkpt>
      <trkpt lat="46.00482" lon="6.47202">
        <ele>2172</ele>
        <time>2010-12-11 10:36:00Z</time>
      </trkpt>
      <trkpt lat="46.00484" lon="6.47205">
        <ele>2173</ele>
        <time>2010-12-11 10:36:04Z</time>
      </trkpt>
      <trkpt lat="46.00486" lon="6.47208">
        <ele>2170</ele>
        <time>2010-12-11 10:36:08Z</time>
      </trkpt>
      <trkpt lat="46.00486" lon="6.47209">
        <ele>2172</ele>
        <time>2010-12-11 10:36:12Z</time>
      </trkpt>
      <trkpt lat="46.00487" lon="6.47211">
        <ele>2173</ele>
        <time>2010-12-11 10:36:16Z</time>
      </trkpt>
      <trkpt lat="46.00487" lon="6.47213">
        <ele>2175</ele>
        <time>2010-12-11 10:36:20Z</time>
      </trkpt>
      <trkpt lat="46.00488" lon="6.47214">
        <ele>2174</ele>
        <time>2010-12-11 10:36:24Z</time>
      </trkpt>
      <trkpt lat="46.00488" lon="6.47214">
        <ele>2179</ele>
        <time>2010-12-11 10:36:28Z</time>
      </trkpt>
      <trkpt lat="46.00488" lon="6.47214">
        <ele>2178</ele>
        <time>2010-12-11 10:36:32Z</time>
      </trkpt>
      <trkpt lat="46.00488" lon="6.47214">
        <ele>2176</ele>
        <time>2010-12-11 10:36:36Z</time>
      </trkpt>
      <trkpt lat="46.00488" lon="6.47214">
        <ele>2175</ele>
        <time>2010-12-11 10:36:40Z</time>
      </trkpt>
      <trkpt lat="46.00488" lon="6.47214">
        <ele>2174</ele>
        <time>2010-12-11 10:36:44Z</time>
      </trkpt>
      <trkpt lat="46.00488" lon="6.47214">
        <ele>2174</ele>
        <time>2010-12-11 10:36:48Z</time>
      </trkpt>
      <trkpt lat="46.00489" lon="6.47214">
        <ele>2175</ele>
        <time>2010-12-11 10:36:52Z</time>
      </trkpt>
      <trkpt lat="46.00489" lon="6.47214">
        <ele>2178</ele>
        <time>2010-12-11 10:36:56Z</time>
      </trkpt>
      <trkpt lat="46.0049" lon="6.47215">
        <ele>2179</ele>
        <time>2010-12-11 10:37:00Z</time>
      </trkpt>
      <trkpt lat="46.0049" lon="6.47216">
        <ele>2180</ele>
        <time>2010-12-11 10:37:04Z</time>
      </trkpt>
      <trkpt lat="46.00491" lon="6.47219">
        <ele>2181</ele>
        <time>2010-12-11 10:37:08Z</time>
      </trkpt>
      <trkpt lat="46.00491" lon="6.47219">
        <ele>2181</ele>
        <time>2010-12-11 10:37:12Z</time>
      </trkpt>
      <trkpt lat="46.00492" lon="6.47224">
        <ele>2182</ele>
        <time>2010-12-11 10:37:16Z</time>
      </trkpt>
      <trkpt lat="46.00493" lon="6.47228">
        <ele>2183</ele>
        <time>2010-12-11 10:37:20Z</time>
      </trkpt>
      <trkpt lat="46.00493" lon="6.47232">
        <ele>2184</ele>
        <time>2010-12-11 10:37:24Z</time>
      </trkpt>
      <trkpt lat="46.00494" lon="6.47234">
        <ele>2180</ele>
        <time>2010-12-11 10:37:28Z</time>
      </trkpt>
      <trkpt lat="46.00495" lon="6.47234">
        <ele>2179</ele>
        <time>2010-12-11 10:37:32Z</time>
      </trkpt>
      <trkpt lat="46.00497" lon="6.47233">
        <ele>2174</ele>
        <time>2010-12-11 10:37:36Z</time>
      </trkpt>
      <trkpt lat="46.005" lon="6.47231">
        <ele>2173</ele>
        <time>2010-12-11 10:37:40Z</time>
      </trkpt>
      <trkpt lat="46.00503" lon="6.47229">
        <ele>2174</ele>
        <time>2010-12-11 10:37:44Z</time>
      </trkpt>
      <trkpt lat="46.00506" lon="6.47227">
        <ele>2176</ele>
        <time>2010-12-11 10:37:48Z</time>
      </trkpt>
      <trkpt lat="46.00507" lon="6.47224">
        <ele>2178</ele>
        <time>2010-12-11 10:37:52Z</time>
      </trkpt>
      <trkpt lat="46.00509" lon="6.47221">
        <ele>2177</ele>
        <time>2010-12-11 10:37:56Z</time>
      </trkpt>
      <trkpt lat="46.0051" lon="6.47217">
        <ele>2179</ele>
        <time>2010-12-11 10:38:00Z</time>
      </trkpt>
      <trkpt lat="46.00511" lon="6.47214">
        <ele>2180</ele>
        <time>2010-12-11 10:38:04Z</time>
      </trkpt>
      <trkpt lat="46.00512" lon="6.47212">
        <ele>2180</ele>
        <time>2010-12-11 10:38:08Z</time>
      </trkpt>
      <trkpt lat="46.00512" lon="6.47212">
        <ele>2180</ele>
        <time>2010-12-11 10:38:12Z</time>
      </trkpt>
      <trkpt lat="46.00512" lon="6.47209">
        <ele>2180</ele>
        <time>2010-12-11 10:38:16Z</time>
      </trkpt>
      <trkpt lat="46.00513" lon="6.47208">
        <ele>2180</ele>
        <time>2010-12-11 10:38:20Z</time>
      </trkpt>
      <trkpt lat="46.00514" lon="6.47206">
        <ele>2179</ele>
        <time>2010-12-11 10:38:24Z</time>
      </trkpt>
      <trkpt lat="46.00514" lon="6.47204">
        <ele>2180</ele>
        <time>2010-12-11 10:38:28Z</time>
      </trkpt>
      <trkpt lat="46.00515" lon="6.47202">
        <ele>2182</ele>
        <time>2010-12-11 10:38:32Z</time>
      </trkpt>
      <trkpt lat="46.00517" lon="6.47199">
        <ele>2181</ele>
        <time>2010-12-11 10:38:36Z</time>
      </trkpt>
      <trkpt lat="46.00518" lon="6.47197">
        <ele>2180</ele>
        <time>2010-12-11 10:38:40Z</time>
      </trkpt>
      <trkpt lat="46.00518" lon="6.47195">
        <ele>2179</ele>
        <time>2010-12-11 10:38:44Z</time>
      </trkpt>
      <trkpt lat="46.0052" lon="6.47193">
        <ele>2180</ele>
        <time>2010-12-11 10:38:48Z</time>
      </trkpt>
      <trkpt lat="46.00521" lon="6.4719">
        <ele>2183</ele>
        <time>2010-12-11 10:38:52Z</time>
      </trkpt>
      <trkpt lat="46.00522" lon="6.47191">
        <ele>2185</ele>
        <time>2010-12-11 10:38:56Z</time>
      </trkpt>
      <trkpt lat="46.00523" lon="6.47192">
        <ele>2185</ele>
        <time>2010-12-11 10:39:00Z</time>
      </trkpt>
      <trkpt lat="46.00525" lon="6.47193">
        <ele>2186</ele>
        <time>2010-12-11 10:39:04Z</time>
      </trkpt>
      <trkpt lat="46.00526" lon="6.47195">
        <ele>2188</ele>
        <time>2010-12-11 10:39:08Z</time>
      </trkpt>
      <trkpt lat="46.00526" lon="6.47196">
        <ele>2189</ele>
        <time>2010-12-11 10:39:12Z</time>
      </trkpt>
      <trkpt lat="46.00527" lon="6.47198">
        <ele>2191</ele>
        <time>2010-12-11 10:39:16Z</time>
      </trkpt>
      <trkpt lat="46.00528" lon="6.47199">
        <ele>2190</ele>
        <time>2010-12-11 10:39:20Z</time>
      </trkpt>
      <trkpt lat="46.00529" lon="6.472">
        <ele>2191</ele>
        <time>2010-12-11 10:39:24Z</time>
      </trkpt>
      <trkpt lat="46.0053" lon="6.47202">
        <ele>2192</ele>
        <time>2010-12-11 10:39:28Z</time>
      </trkpt>
      <trkpt lat="46.00531" lon="6.47205">
        <ele>2192</ele>
        <time>2010-12-11 10:39:32Z</time>
      </trkpt>
      <trkpt lat="46.00531" lon="6.47208">
        <ele>2192</ele>
        <time>2010-12-11 10:39:36Z</time>
      </trkpt>
      <trkpt lat="46.0053" lon="6.47213">
        <ele>2193</ele>
        <time>2010-12-11 10:39:40Z</time>
      </trkpt>
      <trkpt lat="46.00529" lon="6.47215">
        <ele>2195</ele>
        <time>2010-12-11 10:39:44Z</time>
      </trkpt>
      <trkpt lat="46.00529" lon="6.47217">
        <ele>2194</ele>
        <time>2010-12-11 10:39:48Z</time>
      </trkpt>
      <trkpt lat="46.0053" lon="6.47221">
        <ele>2194</ele>
        <time>2010-12-11 10:39:52Z</time>
      </trkpt>
      <trkpt lat="46.00531" lon="6.47225">
        <ele>2197</ele>
        <time>2010-12-11 10:39:56Z</time>
      </trkpt>
      <trkpt lat="46.00533" lon="6.47229">
        <ele>2196</ele>
        <time>2010-12-11 10:40:00Z</time>
      </trkpt>
      <trkpt lat="46.00533" lon="6.47231">
        <ele>2196</ele>
        <time>2010-12-11 10:40:04Z</time>
      </trkpt>
      <trkpt lat="46.00535" lon="6.47233">
        <ele>2196</ele>
        <time>2010-12-11 10:40:08Z</time>
      </trkpt>
      <trkpt lat="46.00535" lon="6.47234">
        <ele>2197</ele>
        <time>2010-12-11 10:40:12Z</time>
      </trkpt>
      <trkpt lat="46.00534" lon="6.47233">
        <ele>2200</ele>
        <time>2010-12-11 10:40:16Z</time>
      </trkpt>
      <trkpt lat="46.00533" lon="6.47232">
        <ele>2204</ele>
        <time>2010-12-11 10:40:20Z</time>
      </trkpt>
      <trkpt lat="46.0053" lon="6.47232">
        <ele>2206</ele>
        <time>2010-12-11 10:40:24Z</time>
      </trkpt>
      <trkpt lat="46.0053" lon="6.47231">
        <ele>2206</ele>
        <time>2010-12-11 10:40:28Z</time>
      </trkpt>
      <trkpt lat="46.00529" lon="6.47232">
        <ele>2206</ele>
        <time>2010-12-11 10:40:32Z</time>
      </trkpt>
      <trkpt lat="46.00529" lon="6.47232">
        <ele>2207</ele>
        <time>2010-12-11 10:40:36Z</time>
      </trkpt>
      <trkpt lat="46.00529" lon="6.47236">
        <ele>2207</ele>
        <time>2010-12-11 10:40:40Z</time>
      </trkpt>
      <trkpt lat="46.00529" lon="6.47242">
        <ele>2209</ele>
        <time>2010-12-11 10:40:44Z</time>
      </trkpt>
      <trkpt lat="46.0053" lon="6.47245">
        <ele>2209</ele>
        <time>2010-12-11 10:40:48Z</time>
      </trkpt>
      <trkpt lat="46.00531" lon="6.47249">
        <ele>2210</ele>
        <time>2010-12-11 10:40:52Z</time>
      </trkpt>
      <trkpt lat="46.00533" lon="6.47252">
        <ele>2210</ele>
        <time>2010-12-11 10:40:56Z</time>
      </trkpt>
      <trkpt lat="46.00535" lon="6.47256">
        <ele>2212</ele>
        <time>2010-12-11 10:41:00Z</time>
      </trkpt>
      <trkpt lat="46.00538" lon="6.47257">
        <ele>2212</ele>
        <time>2010-12-11 10:41:04Z</time>
      </trkpt>
      <trkpt lat="46.0054" lon="6.47257">
        <ele>2213</ele>
        <time>2010-12-11 10:41:08Z</time>
      </trkpt>
      <trkpt lat="46.00539" lon="6.47255">
        <ele>2214</ele>
        <time>2010-12-11 10:41:12Z</time>
      </trkpt>
      <trkpt lat="46.00543" lon="6.47251">
        <ele>2216</ele>
        <time>2010-12-11 10:41:16Z</time>
      </trkpt>
      <trkpt lat="46.00545" lon="6.47249">
        <ele>2217</ele>
        <time>2010-12-11 10:41:20Z</time>
      </trkpt>
      <trkpt lat="46.00545" lon="6.47247">
        <ele>2217</ele>
        <time>2010-12-11 10:41:24Z</time>
      </trkpt>
      <trkpt lat="46.00547" lon="6.47245">
        <ele>2219</ele>
        <time>2010-12-11 10:41:28Z</time>
      </trkpt>
      <trkpt lat="46.00547" lon="6.47243">
        <ele>2220</ele>
        <time>2010-12-11 10:41:32Z</time>
      </trkpt>
      <trkpt lat="46.00548" lon="6.47241">
        <ele>2221</ele>
        <time>2010-12-11 10:41:36Z</time>
      </trkpt>
      <trkpt lat="46.00548" lon="6.4724">
        <ele>2220</ele>
        <time>2010-12-11 10:41:40Z</time>
      </trkpt>
      <trkpt lat="46.00549" lon="6.47238">
        <ele>2222</ele>
        <time>2010-12-11 10:41:44Z</time>
      </trkpt>
      <trkpt lat="46.00549" lon="6.47238">
        <ele>2222</ele>
        <time>2010-12-11 10:41:48Z</time>
      </trkpt>
      <trkpt lat="46.00551" lon="6.47234">
        <ele>2227</ele>
        <time>2010-12-11 10:41:52Z</time>
      </trkpt>
      <trkpt lat="46.00551" lon="6.47234">
        <ele>2227</ele>
        <time>2010-12-11 10:41:56Z</time>
      </trkpt>
      <trkpt lat="46.00552" lon="6.47232">
        <ele>2228</ele>
        <time>2010-12-11 10:42:00Z</time>
      </trkpt>
      <trkpt lat="46.00554" lon="6.4723">
        <ele>2228</ele>
        <time>2010-12-11 10:42:04Z</time>
      </trkpt>
      <trkpt lat="46.00555" lon="6.47225">
        <ele>2227</ele>
        <time>2010-12-11 10:42:08Z</time>
      </trkpt>
      <trkpt lat="46.00558" lon="6.4722">
        <ele>2227</ele>
        <time>2010-12-11 10:42:12Z</time>
      </trkpt>
      <trkpt lat="46.00559" lon="6.47215">
        <ele>2227</ele>
        <time>2010-12-11 10:42:16Z</time>
      </trkpt>
      <trkpt lat="46.00561" lon="6.4721">
        <ele>2226</ele>
        <time>2010-12-11 10:42:20Z</time>
      </trkpt>
      <trkpt lat="46.00562" lon="6.47208">
        <ele>2226</ele>
        <time>2010-12-11 10:42:24Z</time>
      </trkpt>
      <trkpt lat="46.00563" lon="6.47204">
        <ele>2227</ele>
        <time>2010-12-11 10:42:28Z</time>
      </trkpt>
      <trkpt lat="46.00565" lon="6.472">
        <ele>2227</ele>
        <time>2010-12-11 10:42:32Z</time>
      </trkpt>
      <trkpt lat="46.00565" lon="6.47198">
        <ele>2227</ele>
        <time>2010-12-11 10:42:36Z</time>
      </trkpt>
      <trkpt lat="46.00565" lon="6.47196">
        <ele>2230</ele>
        <time>2010-12-11 10:42:40Z</time>
      </trkpt>
      <trkpt lat="46.00565" lon="6.47196">
        <ele>2230</ele>
        <time>2010-12-11 10:42:44Z</time>
      </trkpt>
      <trkpt lat="46.00564" lon="6.47195">
        <ele>2230</ele>
        <time>2010-12-11 10:42:48Z</time>
      </trkpt>
      <trkpt lat="46.00563" lon="6.47197">
        <ele>2233</ele>
        <time>2010-12-11 10:42:52Z</time>
      </trkpt>
      <trkpt lat="46.00563" lon="6.47198">
        <ele>2234</ele>
        <time>2010-12-11 10:42:56Z</time>
      </trkpt>
      <trkpt lat="46.00563" lon="6.47199">
        <ele>2235</ele>
        <time>2010-12-11 10:43:00Z</time>
      </trkpt>
      <trkpt lat="46.00565" lon="6.47204">
        <ele>2235</ele>
        <time>2010-12-11 10:43:04Z</time>
      </trkpt>
      <trkpt lat="46.00566" lon="6.4721">
        <ele>2237</ele>
        <time>2010-12-11 10:43:08Z</time>
      </trkpt>
      <trkpt lat="46.00566" lon="6.4721">
        <ele>2237</ele>
        <time>2010-12-11 10:43:12Z</time>
      </trkpt>
      <trkpt lat="46.00568" lon="6.47222">
        <ele>2238</ele>
        <time>2010-12-11 10:43:16Z</time>
      </trkpt>
      <trkpt lat="46.00569" lon="6.47231">
        <ele>2240</ele>
        <time>2010-12-11 10:43:20Z</time>
      </trkpt>
      <trkpt lat="46.00569" lon="6.47231">
        <ele>2241</ele>
        <time>2010-12-11 10:43:24Z</time>
      </trkpt>
      <trkpt lat="46.00567" lon="6.47226">
        <ele>2245</ele>
        <time>2010-12-11 10:43:28Z</time>
      </trkpt>
      <trkpt lat="46.00567" lon="6.47226">
        <ele>2246</ele>
        <time>2010-12-11 10:43:32Z</time>
      </trkpt>
      <trkpt lat="46.00567" lon="6.47226">
        <ele>2246</ele>
        <time>2010-12-11 10:43:36Z</time>
      </trkpt>
      <trkpt lat="46.00567" lon="6.47226">
        <ele>2246</ele>
        <time>2010-12-11 10:43:40Z</time>
      </trkpt>
      <trkpt lat="46.00568" lon="6.47232">
        <ele>2250</ele>
        <time>2010-12-11 10:43:44Z</time>
      </trkpt>
      <trkpt lat="46.00568" lon="6.47233">
        <ele>2250</ele>
        <time>2010-12-11 10:43:48Z</time>
      </trkpt>
      <trkpt lat="46.00567" lon="6.47235">
        <ele>2250</ele>
        <time>2010-12-11 10:43:52Z</time>
      </trkpt>
      <trkpt lat="46.00567" lon="6.47235">
        <ele>2250</ele>
        <time>2010-12-11 10:43:56Z</time>
      </trkpt>
      <trkpt lat="46.00569" lon="6.47237">
        <ele>2252</ele>
        <time>2010-12-11 10:44:00Z</time>
      </trkpt>
      <trkpt lat="46.00569" lon="6.47237">
        <ele>2252</ele>
        <time>2010-12-11 10:44:04Z</time>
      </trkpt>
      <trkpt lat="46.00569" lon="6.47237">
        <ele>2252</ele>
        <time>2010-12-11 10:44:08Z</time>
      </trkpt>
      <trkpt lat="46.00569" lon="6.47237">
        <ele>2252</ele>
        <time>2010-12-11 10:44:12Z</time>
      </trkpt>
      <trkpt lat="46.00569" lon="6.47237">
        <ele>2252</ele>
        <time>2010-12-11 10:44:16Z</time>
      </trkpt>
      <trkpt lat="46.00569" lon="6.47237">
        <ele>2252</ele>
        <time>2010-12-11 10:44:20Z</time>
      </trkpt>
      <trkpt lat="46.00569" lon="6.47237">
        <ele>2252</ele>
        <time>2010-12-11 10:44:24Z</time>
      </trkpt>
      <trkpt lat="46.00578" lon="6.47224">
        <ele>2254</ele>
        <time>2010-12-11 10:44:28Z</time>
      </trkpt>
      <trkpt lat="46.0058" lon="6.47222">
        <ele>2255</ele>
        <time>2010-12-11 10:44:32Z</time>
      </trkpt>
      <trkpt lat="46.00581" lon="6.4722">
        <ele>2254</ele>
        <time>2010-12-11 10:44:36Z</time>
      </trkpt>
      <trkpt lat="46.00581" lon="6.4722">
        <ele>2254</ele>
        <time>2010-12-11 10:44:40Z</time>
      </trkpt>
      <trkpt lat="46.00581" lon="6.4722">
        <ele>2254</ele>
        <time>2010-12-11 10:44:44Z</time>
      </trkpt>
      <trkpt lat="46.00581" lon="6.4722">
        <ele>2254</ele>
        <time>2010-12-11 10:44:48Z</time>
      </trkpt>
      <trkpt lat="46.00581" lon="6.4721">
        <ele>2255</ele>
        <time>2010-12-11 10:44:52Z</time>
      </trkpt>
      <trkpt lat="46.00581" lon="6.4721">
        <ele>2255</ele>
        <time>2010-12-11 10:44:56Z</time>
      </trkpt>
      <trkpt lat="46.00581" lon="6.4721">
        <ele>2255</ele>
        <time>2010-12-11 10:45:00Z</time>
      </trkpt>
      <trkpt lat="46.0058" lon="6.47199">
        <ele>2256</ele>
        <time>2010-12-11 10:45:04Z</time>
      </trkpt>
      <trkpt lat="46.0058" lon="6.47199">
        <ele>2256</ele>
        <time>2010-12-11 10:45:08Z</time>
      </trkpt>
      <trkpt lat="46.0058" lon="6.47199">
        <ele>2256</ele>
        <time>2010-12-11 10:45:12Z</time>
      </trkpt>
      <trkpt lat="46.0058" lon="6.47199">
        <ele>2256</ele>
        <time>2010-12-11 10:45:16Z</time>
      </trkpt>
      <trkpt lat="46.0058" lon="6.47199">
        <ele>2256</ele>
        <time>2010-12-11 10:45:20Z</time>
      </trkpt>
      <trkpt lat="46.0058" lon="6.47199">
        <ele>2256</ele>
        <time>2010-12-11 10:45:24Z</time>
      </trkpt>
      <trkpt lat="46.0058" lon="6.47199">
        <ele>2256</ele>
        <time>2010-12-11 10:45:28Z</time>
      </trkpt>
      <trkpt lat="46.0058" lon="6.47199">
        <ele>2256</ele>
        <time>2010-12-11 10:45:32Z</time>
      </trkpt>
      <trkpt lat="46.0058" lon="6.47199">
        <ele>2256</ele>
        <time>2010-12-11 10:45:36Z</time>
      </trkpt>
      <trkpt lat="46.00583" lon="6.47169">
        <ele>2253</ele>
        <time>2010-12-11 10:45:40Z</time>
      </trkpt>
      <trkpt lat="46.00583" lon="6.47169">
        <ele>2253</ele>
        <time>2010-12-11 10:45:44Z</time>
      </trkpt>
      <trkpt lat="46.00583" lon="6.47157">
        <ele>2254</ele>
        <time>2010-12-11 10:45:48Z</time>
      </trkpt>
      <trkpt lat="46.00583" lon="6.47151">
        <ele>2253</ele>
        <time>2010-12-11 10:45:52Z</time>
      </trkpt>
      <trkpt lat="46.00583" lon="6.47146">
        <ele>2253</ele>
        <time>2010-12-11 10:45:56Z</time>
      </trkpt>
      <trkpt lat="46.00583" lon="6.47144">
        <ele>2252</ele>
        <time>2010-12-11 10:46:00Z</time>
      </trkpt>
      <trkpt lat="46.00583" lon="6.47144">
        <ele>2252</ele>
        <time>2010-12-11 10:46:04Z</time>
      </trkpt>
      <trkpt lat="46.00583" lon="6.47144">
        <ele>2252</ele>
        <time>2010-12-11 10:46:08Z</time>
      </trkpt>
      <trkpt lat="46.00583" lon="6.47144">
        <ele>2252</ele>
        <time>2010-12-11 10:46:12Z</time>
      </trkpt>
      <trkpt lat="46.00583" lon="6.47144">
        <ele>2252</ele>
        <time>2010-12-11 10:46:16Z</time>
      </trkpt>
      <trkpt lat="46.00583" lon="6.47144">
        <ele>2252</ele>
        <time>2010-12-11 10:46:20Z</time>
      </trkpt>
      <trkpt lat="46.00583" lon="6.47144">
        <ele>2252</ele>
        <time>2010-12-11 10:46:24Z</time>
      </trkpt>
      <trkpt lat="46.0058" lon="6.47105">
        <ele>2254</ele>
        <time>2010-12-11 10:46:28Z</time>
      </trkpt>
      <trkpt lat="46.0058" lon="6.47105">
        <ele>2254</ele>
        <time>2010-12-11 10:46:32Z</time>
      </trkpt>
      <trkpt lat="46.0058" lon="6.47105">
        <ele>2254</ele>
        <time>2010-12-11 10:46:36Z</time>
      </trkpt>
      <trkpt lat="46.00577" lon="6.47092">
        <ele>2252</ele>
        <time>2010-12-11 10:46:40Z</time>
      </trkpt>
      <trkpt lat="46.00578" lon="6.47089">
        <ele>2252</ele>
        <time>2010-12-11 10:46:44Z</time>
      </trkpt>
      <trkpt lat="46.00578" lon="6.47087">
        <ele>2253</ele>
        <time>2010-12-11 10:46:48Z</time>
      </trkpt>
      <trkpt lat="46.00578" lon="6.47087">
        <ele>2253</ele>
        <time>2010-12-11 10:46:52Z</time>
      </trkpt>
      <trkpt lat="46.00578" lon="6.47087">
        <ele>2253</ele>
        <time>2010-12-11 10:46:56Z</time>
      </trkpt>
      <trkpt lat="46.00578" lon="6.47087">
        <ele>2253</ele>
        <time>2010-12-11 10:47:00Z</time>
      </trkpt>
      <trkpt lat="46.00574" lon="6.47085">
        <ele>2256</ele>
        <time>2010-12-11 10:47:04Z</time>
      </trkpt>
      <trkpt lat="46.00574" lon="6.47085">
        <ele>2257</ele>
        <time>2010-12-11 10:47:08Z</time>
      </trkpt>
      <trkpt lat="46.00574" lon="6.47085">
        <ele>2257</ele>
        <time>2010-12-11 10:47:12Z</time>
      </trkpt>
      <trkpt lat="46.00575" lon="6.47087">
        <ele>2259</ele>
        <time>2010-12-11 10:47:16Z</time>
      </trkpt>
      <trkpt lat="46.00575" lon="6.47087">
        <ele>2259</ele>
        <time>2010-12-11 10:47:20Z</time>
      </trkpt>
      <trkpt lat="46.00577" lon="6.4709">
        <ele>2262</ele>
        <time>2010-12-11 10:47:24Z</time>
      </trkpt>
      <trkpt lat="46.00577" lon="6.4709">
        <ele>2262</ele>
        <time>2010-12-11 10:47:28Z</time>
      </trkpt>
      <trkpt lat="46.00577" lon="6.4709">
        <ele>2262</ele>
        <time>2010-12-11 10:47:32Z</time>
      </trkpt>
      <trkpt lat="46.00576" lon="6.47088">
        <ele>2262</ele>
        <time>2010-12-11 10:47:36Z</time>
      </trkpt>
      <trkpt lat="46.00576" lon="6.47085">
        <ele>2263</ele>
        <time>2010-12-11 10:47:40Z</time>
      </trkpt>
      <trkpt lat="46.00576" lon="6.47082">
        <ele>2265</ele>
        <time>2010-12-11 10:47:44Z</time>
      </trkpt>
      <trkpt lat="46.00575" lon="6.47079">
        <ele>2266</ele>
        <time>2010-12-11 10:47:48Z</time>
      </trkpt>
      <trkpt lat="46.00575" lon="6.47076">
        <ele>2265</ele>
        <time>2010-12-11 10:47:52Z</time>
      </trkpt>
      <trkpt lat="46.00575" lon="6.47076">
        <ele>2266</ele>
        <time>2010-12-11 10:47:56Z</time>
      </trkpt>
      <trkpt lat="46.00575" lon="6.47076">
        <ele>2266</ele>
        <time>2010-12-11 10:48:00Z</time>
      </trkpt>
      <trkpt lat="46.00575" lon="6.47076">
        <ele>2266</ele>
        <time>2010-12-11 10:48:04Z</time>
      </trkpt>
      <trkpt lat="46.00575" lon="6.47076">
        <ele>2266</ele>
        <time>2010-12-11 10:48:08Z</time>
      </trkpt>
      <trkpt lat="46.00575" lon="6.47076">
        <ele>2266</ele>
        <time>2010-12-11 10:48:12Z</time>
      </trkpt>
      <trkpt lat="46.00576" lon="6.47077">
        <ele>2267</ele>
        <time>2010-12-11 10:48:16Z</time>
      </trkpt>
      <trkpt lat="46.00576" lon="6.47077">
        <ele>2267</ele>
        <time>2010-12-11 10:48:20Z</time>
      </trkpt>
      <trkpt lat="46.00577" lon="6.47077">
        <ele>2268</ele>
        <time>2010-12-11 10:48:24Z</time>
      </trkpt>
      <trkpt lat="46.00577" lon="6.47075">
        <ele>2269</ele>
        <time>2010-12-11 10:48:28Z</time>
      </trkpt>
      <trkpt lat="46.00578" lon="6.47074">
        <ele>2270</ele>
        <time>2010-12-11 10:48:32Z</time>
      </trkpt>
      <trkpt lat="46.00578" lon="6.47074">
        <ele>2269</ele>
        <time>2010-12-11 10:48:36Z</time>
      </trkpt>
      <trkpt lat="46.00579" lon="6.47072">
        <ele>2269</ele>
        <time>2010-12-11 10:48:40Z</time>
      </trkpt>
      <trkpt lat="46.0058" lon="6.4707">
        <ele>2268</ele>
        <time>2010-12-11 10:48:44Z</time>
      </trkpt>
      <trkpt lat="46.00581" lon="6.47068">
        <ele>2268</ele>
        <time>2010-12-11 10:48:48Z</time>
      </trkpt>
      <trkpt lat="46.00582" lon="6.47067">
        <ele>2269</ele>
        <time>2010-12-11 10:48:52Z</time>
      </trkpt>
      <trkpt lat="46.00582" lon="6.47067">
        <ele>2269</ele>
        <time>2010-12-11 10:48:56Z</time>
      </trkpt>
      <trkpt lat="46.00583" lon="6.47066">
        <ele>2268</ele>
        <time>2010-12-11 10:49:00Z</time>
      </trkpt>
      <trkpt lat="46.00583" lon="6.47065">
        <ele>2269</ele>
        <time>2010-12-11 10:49:04Z</time>
      </trkpt>
      <trkpt lat="46.00583" lon="6.47064">
        <ele>2271</ele>
        <time>2010-12-11 10:49:08Z</time>
      </trkpt>
      <trkpt lat="46.00584" lon="6.47062">
        <ele>2274</ele>
        <time>2010-12-11 10:49:12Z</time>
      </trkpt>
      <trkpt lat="46.00584" lon="6.4706">
        <ele>2275</ele>
        <time>2010-12-11 10:49:16Z</time>
      </trkpt>
      <trkpt lat="46.00584" lon="6.47051">
        <ele>2278</ele>
        <time>2010-12-11 10:49:20Z</time>
      </trkpt>
      <trkpt lat="46.00584" lon="6.47045">
        <ele>2280</ele>
        <time>2010-12-11 10:49:24Z</time>
      </trkpt>
      <trkpt lat="46.00584" lon="6.4704">
        <ele>2280</ele>
        <time>2010-12-11 10:49:28Z</time>
      </trkpt>
      <trkpt lat="46.00585" lon="6.47035">
        <ele>2283</ele>
        <time>2010-12-11 10:49:32Z</time>
      </trkpt>
      <trkpt lat="46.00585" lon="6.47033">
        <ele>2284</ele>
        <time>2010-12-11 10:49:36Z</time>
      </trkpt>
      <trkpt lat="46.00587" lon="6.47029">
        <ele>2285</ele>
        <time>2010-12-11 10:49:40Z</time>
      </trkpt>
      <trkpt lat="46.00588" lon="6.47025">
        <ele>2286</ele>
        <time>2010-12-11 10:49:44Z</time>
      </trkpt>
      <trkpt lat="46.00589" lon="6.47022">
        <ele>2285</ele>
        <time>2010-12-11 10:49:48Z</time>
      </trkpt>
      <trkpt lat="46.0059" lon="6.47019">
        <ele>2286</ele>
        <time>2010-12-11 10:49:52Z</time>
      </trkpt>
      <trkpt lat="46.00591" lon="6.47016">
        <ele>2286</ele>
        <time>2010-12-11 10:49:56Z</time>
      </trkpt>
      <trkpt lat="46.00591" lon="6.47013">
        <ele>2286</ele>
        <time>2010-12-11 10:50:00Z</time>
      </trkpt>
      <trkpt lat="46.00592" lon="6.47011">
        <ele>2287</ele>
        <time>2010-12-11 10:50:04Z</time>
      </trkpt>
      <trkpt lat="46.00592" lon="6.47009">
        <ele>2286</ele>
        <time>2010-12-11 10:50:08Z</time>
      </trkpt>
      <trkpt lat="46.00593" lon="6.47005">
        <ele>2288</ele>
        <time>2010-12-11 10:50:12Z</time>
      </trkpt>
      <trkpt lat="46.00593" lon="6.47002">
        <ele>2289</ele>
        <time>2010-12-11 10:50:16Z</time>
      </trkpt>
      <trkpt lat="46.00593" lon="6.47002">
        <ele>2289</ele>
        <time>2010-12-11 10:50:20Z</time>
      </trkpt>
      <trkpt lat="46.00594" lon="6.46994">
        <ele>2289</ele>
        <time>2010-12-11 10:50:24Z</time>
      </trkpt>
      <trkpt lat="46.00594" lon="6.46994">
        <ele>2289</ele>
        <time>2010-12-11 10:50:28Z</time>
      </trkpt>
      <trkpt lat="46.00594" lon="6.46988">
        <ele>2289</ele>
        <time>2010-12-11 10:50:32Z</time>
      </trkpt>
      <trkpt lat="46.00594" lon="6.46986">
        <ele>2288</ele>
        <time>2010-12-11 10:50:36Z</time>
      </trkpt>
      <trkpt lat="46.00594" lon="6.46981">
        <ele>2289</ele>
        <time>2010-12-11 10:50:40Z</time>
      </trkpt>
      <trkpt lat="46.00594" lon="6.46977">
        <ele>2289</ele>
        <time>2010-12-11 10:50:44Z</time>
      </trkpt>
      <trkpt lat="46.00593" lon="6.46972">
        <ele>2289</ele>
        <time>2010-12-11 10:50:48Z</time>
      </trkpt>
      <trkpt lat="46.00592" lon="6.46969">
        <ele>2288</ele>
        <time>2010-12-11 10:50:52Z</time>
      </trkpt>
      <trkpt lat="46.00591" lon="6.46966">
        <ele>2289</ele>
        <time>2010-12-11 10:50:56Z</time>
      </trkpt>
      <trkpt lat="46.00589" lon="6.46959">
        <ele>2292</ele>
        <time>2010-12-11 10:51:00Z</time>
      </trkpt>
      <trkpt lat="46.00589" lon="6.46958">
        <ele>2292</ele>
        <time>2010-12-11 10:51:04Z</time>
      </trkpt>
      <trkpt lat="46.00587" lon="6.46951">
        <ele>2294</ele>
        <time>2010-12-11 10:51:08Z</time>
      </trkpt>
      <trkpt lat="46.00586" lon="6.46946">
        <ele>2294</ele>
        <time>2010-12-11 10:51:12Z</time>
      </trkpt>
      <trkpt lat="46.00584" lon="6.46943">
        <ele>2295</ele>
        <time>2010-12-11 10:51:16Z</time>
      </trkpt>
      <trkpt lat="46.00583" lon="6.46939">
        <ele>2295</ele>
        <time>2010-12-11 10:51:20Z</time>
      </trkpt>
      <trkpt lat="46.00583" lon="6.46937">
        <ele>2295</ele>
        <time>2010-12-11 10:51:24Z</time>
      </trkpt>
      <trkpt lat="46.00583" lon="6.46933">
        <ele>2295</ele>
        <time>2010-12-11 10:51:28Z</time>
      </trkpt>
      <trkpt lat="46.00582" lon="6.4693">
        <ele>2294</ele>
        <time>2010-12-11 10:51:32Z</time>
      </trkpt>
      <trkpt lat="46.0058" lon="6.46926">
        <ele>2295</ele>
        <time>2010-12-11 10:51:36Z</time>
      </trkpt>
      <trkpt lat="46.00578" lon="6.4692">
        <ele>2297</ele>
        <time>2010-12-11 10:51:40Z</time>
      </trkpt>
      <trkpt lat="46.00576" lon="6.46917">
        <ele>2298</ele>
        <time>2010-12-11 10:51:44Z</time>
      </trkpt>
      <trkpt lat="46.00572" lon="6.46911">
        <ele>2299</ele>
        <time>2010-12-11 10:51:48Z</time>
      </trkpt>
      <trkpt lat="46.00568" lon="6.46905">
        <ele>2299</ele>
        <time>2010-12-11 10:51:52Z</time>
      </trkpt>
      <trkpt lat="46.00566" lon="6.46901">
        <ele>2299</ele>
        <time>2010-12-11 10:51:56Z</time>
      </trkpt>
      <trkpt lat="46.00563" lon="6.46896">
        <ele>2300</ele>
        <time>2010-12-11 10:52:00Z</time>
      </trkpt>
      <trkpt lat="46.00561" lon="6.46892">
        <ele>2302</ele>
        <time>2010-12-11 10:52:04Z</time>
      </trkpt>
      <trkpt lat="46.00559" lon="6.46889">
        <ele>2303</ele>
        <time>2010-12-11 10:52:08Z</time>
      </trkpt>
      <trkpt lat="46.00557" lon="6.46886">
        <ele>2304</ele>
        <time>2010-12-11 10:52:12Z</time>
      </trkpt>
      <trkpt lat="46.00554" lon="6.46882">
        <ele>2304</ele>
        <time>2010-12-11 10:52:16Z</time>
      </trkpt>
      <trkpt lat="46.00554" lon="6.46882">
        <ele>2304</ele>
        <time>2010-12-11 10:52:20Z</time>
      </trkpt>
      <trkpt lat="46.00548" lon="6.46872">
        <ele>2309</ele>
        <time>2010-12-11 10:52:24Z</time>
      </trkpt>
      <trkpt lat="46.00545" lon="6.46868">
        <ele>2310</ele>
        <time>2010-12-11 10:52:28Z</time>
      </trkpt>
      <trkpt lat="46.00541" lon="6.46864">
        <ele>2310</ele>
        <time>2010-12-11 10:52:32Z</time>
      </trkpt>
      <trkpt lat="46.00539" lon="6.46862">
        <ele>2311</ele>
        <time>2010-12-11 10:52:36Z</time>
      </trkpt>
      <trkpt lat="46.00536" lon="6.46861">
        <ele>2314</ele>
        <time>2010-12-11 10:52:40Z</time>
      </trkpt>
      <trkpt lat="46.00535" lon="6.46861">
        <ele>2315</ele>
        <time>2010-12-11 10:52:44Z</time>
      </trkpt>
      <trkpt lat="46.00535" lon="6.46862">
        <ele>2314</ele>
        <time>2010-12-11 10:52:48Z</time>
      </trkpt>
      <trkpt lat="46.00534" lon="6.46862">
        <ele>2315</ele>
        <time>2010-12-11 10:52:52Z</time>
      </trkpt>
      <trkpt lat="46.00534" lon="6.46862">
        <ele>2316</ele>
        <time>2010-12-11 10:52:56Z</time>
      </trkpt>
      <trkpt lat="46.00534" lon="6.46863">
        <ele>2316</ele>
        <time>2010-12-11 10:53:00Z</time>
      </trkpt>
      <trkpt lat="46.00534" lon="6.46863">
        <ele>2316</ele>
        <time>2010-12-11 10:53:04Z</time>
      </trkpt>
      <trkpt lat="46.00535" lon="6.46863">
        <ele>2316</ele>
        <time>2010-12-11 10:53:08Z</time>
      </trkpt>
      <trkpt lat="46.0053" lon="6.46842">
        <ele>2296</ele>
        <time>2010-12-11 11:00:35Z</time>
      </trkpt>
      <trkpt lat="46.0053" lon="6.46842">
        <ele>2296</ele>
        <time>2010-12-11 11:00:39Z</time>
      </trkpt>
      <trkpt lat="46.0053" lon="6.46842">
        <ele>2296</ele>
        <time>2010-12-11 11:00:43Z</time>
      </trkpt>
      <trkpt lat="46.0053" lon="6.46842">
        <ele>2296</ele>
        <time>2010-12-11 11:00:47Z</time>
      </trkpt>
      <trkpt lat="46.0053" lon="6.46842">
        <ele>2296</ele>
        <time>2010-12-11 11:00:51Z</time>
      </trkpt>
      <trkpt lat="46.0053" lon="6.46842">
        <ele>2296</ele>
        <time>2010-12-11 11:00:55Z</time>
      </trkpt>
      <trkpt lat="46.0053" lon="6.46842">
        <ele>2296</ele>
        <time>2010-12-11 11:00:59Z</time>
      </trkpt>
      <trkpt lat="46.00539" lon="6.46863">
        <ele>2306</ele>
        <time>2010-12-11 11:01:03Z</time>
      </trkpt>
      <trkpt lat="46.00539" lon="6.46861">
        <ele>2306</ele>
        <time>2010-12-11 11:01:07Z</time>
      </trkpt>
      <trkpt lat="46.00539" lon="6.46858">
        <ele>2306</ele>
        <time>2010-12-11 11:01:11Z</time>
      </trkpt>
      <trkpt lat="46.00539" lon="6.46857">
        <ele>2306</ele>
        <time>2010-12-11 11:01:15Z</time>
      </trkpt>
      <trkpt lat="46.00538" lon="6.46855">
        <ele>2307</ele>
        <time>2010-12-11 11:01:19Z</time>
      </trkpt>
      <trkpt lat="46.00538" lon="6.46855">
        <ele>2307</ele>
        <time>2010-12-11 11:01:23Z</time>
      </trkpt>
      <trkpt lat="46.00536" lon="6.4685">
        <ele>2308</ele>
        <time>2010-12-11 11:01:27Z</time>
      </trkpt>
      <trkpt lat="46.00536" lon="6.46849">
        <ele>2308</ele>
        <time>2010-12-11 11:01:31Z</time>
      </trkpt>
      <trkpt lat="46.00534" lon="6.46847">
        <ele>2308</ele>
        <time>2010-12-11 11:01:35Z</time>
      </trkpt>
      <trkpt lat="46.00533" lon="6.46845">
        <ele>2308</ele>
        <time>2010-12-11 11:01:39Z</time>
      </trkpt>
      <trkpt lat="46.00531" lon="6.46841">
        <ele>2308</ele>
        <time>2010-12-11 11:01:43Z</time>
      </trkpt>
      <trkpt lat="46.0053" lon="6.46837">
        <ele>2308</ele>
        <time>2010-12-11 11:01:47Z</time>
      </trkpt>
      <trkpt lat="46.00528" lon="6.46831">
        <ele>2308</ele>
        <time>2010-12-11 11:01:51Z</time>
      </trkpt>
      <trkpt lat="46.00527" lon="6.46826">
        <ele>2309</ele>
        <time>2010-12-11 11:01:55Z</time>
      </trkpt>
      <trkpt lat="46.00526" lon="6.46823">
        <ele>2310</ele>
        <time>2010-12-11 11:01:59Z</time>
      </trkpt>
      <trkpt lat="46.00525" lon="6.4682">
        <ele>2310</ele>
        <time>2010-12-11 11:02:03Z</time>
      </trkpt>
      <trkpt lat="46.00524" lon="6.46817">
        <ele>2310</ele>
        <time>2010-12-11 11:02:07Z</time>
      </trkpt>
      <trkpt lat="46.00523" lon="6.46815">
        <ele>2309</ele>
        <time>2010-12-11 11:02:11Z</time>
      </trkpt>
      <trkpt lat="46.00522" lon="6.46811">
        <ele>2310</ele>
        <time>2010-12-11 11:02:15Z</time>
      </trkpt>
      <trkpt lat="46.00521" lon="6.46808">
        <ele>2309</ele>
        <time>2010-12-11 11:02:19Z</time>
      </trkpt>
      <trkpt lat="46.00521" lon="6.46807">
        <ele>2307</ele>
        <time>2010-12-11 11:02:23Z</time>
      </trkpt>
      <trkpt lat="46.0052" lon="6.46806">
        <ele>2306</ele>
        <time>2010-12-11 11:02:27Z</time>
      </trkpt>
      <trkpt lat="46.0052" lon="6.46806">
        <ele>2307</ele>
        <time>2010-12-11 11:02:31Z</time>
      </trkpt>
      <trkpt lat="46.0052" lon="6.46805">
        <ele>2307</ele>
        <time>2010-12-11 11:02:35Z</time>
      </trkpt>
      <trkpt lat="46.00519" lon="6.46804">
        <ele>2307</ele>
        <time>2010-12-11 11:02:39Z</time>
      </trkpt>
      <trkpt lat="46.00518" lon="6.46802">
        <ele>2307</ele>
        <time>2010-12-11 11:02:43Z</time>
      </trkpt>
      <trkpt lat="46.00518" lon="6.46802">
        <ele>2306</ele>
        <time>2010-12-11 11:02:47Z</time>
      </trkpt>
      <trkpt lat="46.00518" lon="6.46802">
        <ele>2306</ele>
        <time>2010-12-11 11:02:51Z</time>
      </trkpt>
      <trkpt lat="46.00518" lon="6.46802">
        <ele>2306</ele>
        <time>2010-12-11 11:02:55Z</time>
      </trkpt>
      <trkpt lat="46.00518" lon="6.46801">
        <ele>2306</ele>
        <time>2010-12-11 11:02:59Z</time>
      </trkpt>
      <trkpt lat="46.00517" lon="6.468">
        <ele>2307</ele>
        <time>2010-12-11 11:03:03Z</time>
      </trkpt>
      <trkpt lat="46.00517" lon="6.468">
        <ele>2305</ele>
        <time>2010-12-11 11:03:07Z</time>
      </trkpt>
      <trkpt lat="46.00517" lon="6.46801">
        <ele>2305</ele>
        <time>2010-12-11 11:03:11Z</time>
      </trkpt>
      <trkpt lat="46.00517" lon="6.46802">
        <ele>2305</ele>
        <time>2010-12-11 11:03:15Z</time>
      </trkpt>
      <trkpt lat="46.00517" lon="6.46802">
        <ele>2305</ele>
        <time>2010-12-11 11:03:19Z</time>
      </trkpt>
      <trkpt lat="46.00517" lon="6.46802">
        <ele>2306</ele>
        <time>2010-12-11 11:03:23Z</time>
      </trkpt>
      <trkpt lat="46.00516" lon="6.46801">
        <ele>2306</ele>
        <time>2010-12-11 11:03:27Z</time>
      </trkpt>
      <trkpt lat="46.00516" lon="6.46801">
        <ele>2306</ele>
        <time>2010-12-11 11:03:31Z</time>
      </trkpt>
      <trkpt lat="46.00515" lon="6.46801">
        <ele>2306</ele>
        <time>2010-12-11 11:03:35Z</time>
      </trkpt>
      <trkpt lat="46.00515" lon="6.46801">
        <ele>2306</ele>
        <time>2010-12-11 11:03:39Z</time>
      </trkpt>
      <trkpt lat="46.00515" lon="6.46801">
        <ele>2306</ele>
        <time>2010-12-11 11:03:43Z</time>
      </trkpt>
      <trkpt lat="46.00515" lon="6.46801">
        <ele>2306</ele>
        <time>2010-12-11 11:03:47Z</time>
      </trkpt>
      <trkpt lat="46.00513" lon="6.46802">
        <ele>2306</ele>
        <time>2010-12-11 11:03:51Z</time>
      </trkpt>
      <trkpt lat="46.00513" lon="6.46802">
        <ele>2306</ele>
        <time>2010-12-11 11:03:55Z</time>
      </trkpt>
      <trkpt lat="46.00512" lon="6.46802">
        <ele>2307</ele>
        <time>2010-12-11 11:03:59Z</time>
      </trkpt>
      <trkpt lat="46.00512" lon="6.46802">
        <ele>2307</ele>
        <time>2010-12-11 11:04:03Z</time>
      </trkpt>
      <trkpt lat="46.00512" lon="6.46802">
        <ele>2307</ele>
        <time>2010-12-11 11:04:07Z</time>
      </trkpt>
      <trkpt lat="46.00512" lon="6.46802">
        <ele>2307</ele>
        <time>2010-12-11 11:04:11Z</time>
      </trkpt>
      <trkpt lat="46.00512" lon="6.46803">
        <ele>2308</ele>
        <time>2010-12-11 11:04:15Z</time>
      </trkpt>
      <trkpt lat="46.00511" lon="6.46803">
        <ele>2306</ele>
        <time>2010-12-11 11:04:19Z</time>
      </trkpt>
      <trkpt lat="46.00511" lon="6.46809">
        <ele>2306</ele>
        <time>2010-12-11 11:04:23Z</time>
      </trkpt>
      <trkpt lat="46.00512" lon="6.4682">
        <ele>2306</ele>
        <time>2010-12-11 11:04:27Z</time>
      </trkpt>
      <trkpt lat="46.00512" lon="6.46821">
        <ele>2306</ele>
        <time>2010-12-11 11:04:31Z</time>
      </trkpt>
      <trkpt lat="46.00499" lon="6.46834">
        <ele>2305</ele>
        <time>2010-12-11 11:04:35Z</time>
      </trkpt>
      <trkpt lat="46.00485" lon="6.46844">
        <ele>2303</ele>
        <time>2010-12-11 11:04:39Z</time>
      </trkpt>
      <trkpt lat="46.00472" lon="6.46851">
        <ele>2300</ele>
        <time>2010-12-11 11:04:43Z</time>
      </trkpt>
      <trkpt lat="46.00462" lon="6.46854">
        <ele>2300</ele>
        <time>2010-12-11 11:04:47Z</time>
      </trkpt>
      <trkpt lat="46.00456" lon="6.46857">
        <ele>2297</ele>
        <time>2010-12-11 11:04:51Z</time>
      </trkpt>
      <trkpt lat="46.0045" lon="6.46855">
        <ele>2295</ele>
        <time>2010-12-11 11:04:55Z</time>
      </trkpt>
      <trkpt lat="46.00439" lon="6.46851">
        <ele>2293</ele>
        <time>2010-12-11 11:04:59Z</time>
      </trkpt>
      <trkpt lat="46.00429" lon="6.4684">
        <ele>2291</ele>
        <time>2010-12-11 11:05:03Z</time>
      </trkpt>
      <trkpt lat="46.00413" lon="6.46829">
        <ele>2289</ele>
        <time>2010-12-11 11:05:07Z</time>
      </trkpt>
      <trkpt lat="46.00398" lon="6.46838">
        <ele>2286</ele>
        <time>2010-12-11 11:05:11Z</time>
      </trkpt>
      <trkpt lat="46.0038" lon="6.46854">
        <ele>2280</ele>
        <time>2010-12-11 11:05:15Z</time>
      </trkpt>
      <trkpt lat="46.00361" lon="6.46849">
        <ele>2272</ele>
        <time>2010-12-11 11:05:19Z</time>
      </trkpt>
      <trkpt lat="46.00342" lon="6.46851">
        <ele>2265</ele>
        <time>2010-12-11 11:05:23Z</time>
      </trkpt>
      <trkpt lat="46.00322" lon="6.46851">
        <ele>2252</ele>
        <time>2010-12-11 11:05:27Z</time>
      </trkpt>
      <trkpt lat="46.00316" lon="6.46837">
        <ele>2238</ele>
        <time>2010-12-11 11:05:31Z</time>
      </trkpt>
      <trkpt lat="46.00316" lon="6.46837">
        <ele>2238</ele>
        <time>2010-12-11 11:05:35Z</time>
      </trkpt>
      <trkpt lat="46.00304" lon="6.46809">
        <ele>2226</ele>
        <time>2010-12-11 11:05:39Z</time>
      </trkpt>
      <trkpt lat="46.00292" lon="6.46782">
        <ele>2218</ele>
        <time>2010-12-11 11:05:43Z</time>
      </trkpt>
      <trkpt lat="46.00279" lon="6.46737">
        <ele>2210</ele>
        <time>2010-12-11 11:05:47Z</time>
      </trkpt>
      <trkpt lat="46.00266" lon="6.46704">
        <ele>2207</ele>
        <time>2010-12-11 11:05:51Z</time>
      </trkpt>
      <trkpt lat="46.00259" lon="6.46677">
        <ele>2205</ele>
        <time>2010-12-11 11:05:55Z</time>
      </trkpt>
      <trkpt lat="46.00259" lon="6.46677">
        <ele>2205</ele>
        <time>2010-12-11 11:05:59Z</time>
      </trkpt>
      <trkpt lat="46.00258" lon="6.4667">
        <ele>2201</ele>
        <time>2010-12-11 11:06:03Z</time>
      </trkpt>
      <trkpt lat="46.00258" lon="6.4667">
        <ele>2201</ele>
        <time>2010-12-11 11:06:07Z</time>
      </trkpt>
      <trkpt lat="46.00258" lon="6.4667">
        <ele>2201</ele>
        <time>2010-12-11 11:06:11Z</time>
      </trkpt>
      <trkpt lat="46.00258" lon="6.4667">
        <ele>2201</ele>
        <time>2010-12-11 11:06:15Z</time>
      </trkpt>
      <trkpt lat="46.00259" lon="6.46654">
        <ele>2187</ele>
        <time>2010-12-11 11:06:19Z</time>
      </trkpt>
      <trkpt lat="46.00259" lon="6.46654">
        <ele>2187</ele>
        <time>2010-12-11 11:06:23Z</time>
      </trkpt>
      <trkpt lat="46.00259" lon="6.46654">
        <ele>2187</ele>
        <time>2010-12-11 11:06:27Z</time>
      </trkpt>
      <trkpt lat="46.00259" lon="6.46654">
        <ele>2187</ele>
        <time>2010-12-11 11:06:31Z</time>
      </trkpt>
      <trkpt lat="46.00259" lon="6.46654">
        <ele>2187</ele>
        <time>2010-12-11 11:06:35Z</time>
      </trkpt>
      <trkpt lat="46.00259" lon="6.46654">
        <ele>2187</ele>
        <time>2010-12-11 11:06:39Z</time>
      </trkpt>
      <trkpt lat="46.00259" lon="6.46654">
        <ele>2187</ele>
        <time>2010-12-11 11:06:43Z</time>
      </trkpt>
      <trkpt lat="46.00259" lon="6.46654">
        <ele>2187</ele>
        <time>2010-12-11 11:06:47Z</time>
      </trkpt>
      <trkpt lat="46.00259" lon="6.46654">
        <ele>2187</ele>
        <time>2010-12-11 11:06:51Z</time>
      </trkpt>
      <trkpt lat="46.00259" lon="6.46654">
        <ele>2187</ele>
        <time>2010-12-11 11:06:55Z</time>
      </trkpt>
      <trkpt lat="46.00259" lon="6.46654">
        <ele>2187</ele>
        <time>2010-12-11 11:06:59Z</time>
      </trkpt>
      <trkpt lat="46.00259" lon="6.46654">
        <ele>2187</ele>
        <time>2010-12-11 11:07:03Z</time>
      </trkpt>
      <trkpt lat="46.00259" lon="6.46654">
        <ele>2187</ele>
        <time>2010-12-11 11:07:07Z</time>
      </trkpt>
      <trkpt lat="46.00259" lon="6.46654">
        <ele>2187</ele>
        <time>2010-12-11 11:07:11Z</time>
      </trkpt>
      <trkpt lat="46.00259" lon="6.46654">
        <ele>2187</ele>
        <time>2010-12-11 11:07:15Z</time>
      </trkpt>
      <trkpt lat="46.00259" lon="6.46654">
        <ele>2187</ele>
        <time>2010-12-11 11:07:19Z</time>
      </trkpt>
      <trkpt lat="46.00259" lon="6.46654">
        <ele>2187</ele>
        <time>2010-12-11 11:07:23Z</time>
      </trkpt>
      <trkpt lat="46.00259" lon="6.46654">
        <ele>2187</ele>
        <time>2010-12-11 11:07:27Z</time>
      </trkpt>
      <trkpt lat="46.00259" lon="6.46654">
        <ele>2187</ele>
        <time>2010-12-11 11:07:31Z</time>
      </trkpt>
      <trkpt lat="46.00259" lon="6.46654">
        <ele>2187</ele>
        <time>2010-12-11 11:07:35Z</time>
      </trkpt>
      <trkpt lat="46.00259" lon="6.46654">
        <ele>2187</ele>
        <time>2010-12-11 11:07:39Z</time>
      </trkpt>
      <trkpt lat="46.00259" lon="6.46654">
        <ele>2187</ele>
        <time>2010-12-11 11:07:43Z</time>
      </trkpt>
      <trkpt lat="46.00259" lon="6.46654">
        <ele>2187</ele>
        <time>2010-12-11 11:07:47Z</time>
      </trkpt>
      <trkpt lat="46.00259" lon="6.46654">
        <ele>2187</ele>
        <time>2010-12-11 11:07:51Z</time>
      </trkpt>
      <trkpt lat="46.00259" lon="6.46654">
        <ele>2187</ele>
        <time>2010-12-11 11:07:55Z</time>
      </trkpt>
      <trkpt lat="46.00259" lon="6.46654">
        <ele>2187</ele>
        <time>2010-12-11 11:07:59Z</time>
      </trkpt>
      <trkpt lat="46.00259" lon="6.46654">
        <ele>2187</ele>
        <time>2010-12-11 11:08:03Z</time>
      </trkpt>
      <trkpt lat="46.00259" lon="6.46654">
        <ele>2187</ele>
        <time>2010-12-11 11:08:07Z</time>
      </trkpt>
      <trkpt lat="46.00259" lon="6.46654">
        <ele>2187</ele>
        <time>2010-12-11 11:08:11Z</time>
      </trkpt>
      <trkpt lat="46.00259" lon="6.46654">
        <ele>2187</ele>
        <time>2010-12-11 11:08:15Z</time>
      </trkpt>
      <trkpt lat="46.00259" lon="6.46654">
        <ele>2187</ele>
        <time>2010-12-11 11:08:19Z</time>
      </trkpt>
      <trkpt lat="46.00259" lon="6.46654">
        <ele>2187</ele>
        <time>2010-12-11 11:08:23Z</time>
      </trkpt>
      <trkpt lat="46.00259" lon="6.46654">
        <ele>2187</ele>
        <time>2010-12-11 11:08:27Z</time>
      </trkpt>
      <trkpt lat="46.00259" lon="6.46654">
        <ele>2187</ele>
        <time>2010-12-11 11:08:31Z</time>
      </trkpt>
      <trkpt lat="46.00259" lon="6.46654">
        <ele>2187</ele>
        <time>2010-12-11 11:08:35Z</time>
      </trkpt>
      <trkpt lat="46.00264" lon="6.4664">
        <ele>2168</ele>
        <time>2010-12-11 11:08:39Z</time>
      </trkpt>
      <trkpt lat="46.00265" lon="6.46639">
        <ele>2168</ele>
        <time>2010-12-11 11:08:43Z</time>
      </trkpt>
      <trkpt lat="46.00266" lon="6.46641">
        <ele>2160</ele>
        <time>2010-12-11 11:08:47Z</time>
      </trkpt>
      <trkpt lat="46.00266" lon="6.46643">
        <ele>2163</ele>
        <time>2010-12-11 11:08:51Z</time>
      </trkpt>
      <trkpt lat="46.00266" lon="6.46643">
        <ele>2164</ele>
        <time>2010-12-11 11:08:55Z</time>
      </trkpt>
      <trkpt lat="46.00265" lon="6.46643">
        <ele>2159</ele>
        <time>2010-12-11 11:08:59Z</time>
      </trkpt>
      <trkpt lat="46.00264" lon="6.46642">
        <ele>2157</ele>
        <time>2010-12-11 11:09:03Z</time>
      </trkpt>
      <trkpt lat="46.00263" lon="6.46641">
        <ele>2157</ele>
        <time>2010-12-11 11:09:07Z</time>
      </trkpt>
      <trkpt lat="46.00263" lon="6.46641">
        <ele>2157</ele>
        <time>2010-12-11 11:09:11Z</time>
      </trkpt>
      <trkpt lat="46.00263" lon="6.46641">
        <ele>2157</ele>
        <time>2010-12-11 11:09:15Z</time>
      </trkpt>
      <trkpt lat="46.00261" lon="6.46639">
        <ele>2160</ele>
        <time>2010-12-11 11:09:19Z</time>
      </trkpt>
      <trkpt lat="46.00261" lon="6.46639">
        <ele>2160</ele>
        <time>2010-12-11 11:09:23Z</time>
      </trkpt>
      <trkpt lat="46.00261" lon="6.46639">
        <ele>2159</ele>
        <time>2010-12-11 11:09:27Z</time>
      </trkpt>
      <trkpt lat="46.00261" lon="6.46639">
        <ele>2159</ele>
        <time>2010-12-11 11:09:31Z</time>
      </trkpt>
      <trkpt lat="46.00261" lon="6.46639">
        <ele>2159</ele>
        <time>2010-12-11 11:09:35Z</time>
      </trkpt>
      <trkpt lat="46.00263" lon="6.46643">
        <ele>2158</ele>
        <time>2010-12-11 11:09:39Z</time>
      </trkpt>
      <trkpt lat="46.00263" lon="6.46643">
        <ele>2158</ele>
        <time>2010-12-11 11:09:43Z</time>
      </trkpt>
      <trkpt lat="46.00264" lon="6.46644">
        <ele>2160</ele>
        <time>2010-12-11 11:09:47Z</time>
      </trkpt>
      <trkpt lat="46.00263" lon="6.46644">
        <ele>2161</ele>
        <time>2010-12-11 11:09:51Z</time>
      </trkpt>
      <trkpt lat="46.00263" lon="6.46644">
        <ele>2161</ele>
        <time>2010-12-11 11:09:55Z</time>
      </trkpt>
      <trkpt lat="46.00263" lon="6.46644">
        <ele>2161</ele>
        <time>2010-12-11 11:09:59Z</time>
      </trkpt>
      <trkpt lat="46.00263" lon="6.46644">
        <ele>2161</ele>
        <time>2010-12-11 11:10:03Z</time>
      </trkpt>
      <trkpt lat="46.0026" lon="6.46638">
        <ele>2159</ele>
        <time>2010-12-11 11:10:07Z</time>
      </trkpt>
      <trkpt lat="46.00259" lon="6.46635">
        <ele>2159</ele>
        <time>2010-12-11 11:10:11Z</time>
      </trkpt>
      <trkpt lat="46.00259" lon="6.46635">
        <ele>2159</ele>
        <time>2010-12-11 11:10:15Z</time>
      </trkpt>
      <trkpt lat="46.00259" lon="6.46635">
        <ele>2159</ele>
        <time>2010-12-11 11:10:19Z</time>
      </trkpt>
      <trkpt lat="46.00257" lon="6.4663">
        <ele>2155</ele>
        <time>2010-12-11 11:10:23Z</time>
      </trkpt>
      <trkpt lat="46.00254" lon="6.46621">
        <ele>2154</ele>
        <time>2010-12-11 11:10:27Z</time>
      </trkpt>
      <trkpt lat="46.00252" lon="6.46618">
        <ele>2154</ele>
        <time>2010-12-11 11:10:31Z</time>
      </trkpt>
      <trkpt lat="46.0025" lon="6.46613">
        <ele>2153</ele>
        <time>2010-12-11 11:10:35Z</time>
      </trkpt>
      <trkpt lat="46.00248" lon="6.46604">
        <ele>2151</ele>
        <time>2010-12-11 11:10:39Z</time>
      </trkpt>
      <trkpt lat="46.00247" lon="6.466">
        <ele>2151</ele>
        <time>2010-12-11 11:10:43Z</time>
      </trkpt>
      <trkpt lat="46.00245" lon="6.46595">
        <ele>2152</ele>
        <time>2010-12-11 11:10:47Z</time>
      </trkpt>
      <trkpt lat="46.00243" lon="6.46592">
        <ele>2153</ele>
        <time>2010-12-11 11:10:51Z</time>
      </trkpt>
      <trkpt lat="46.00242" lon="6.46592">
        <ele>2154</ele>
        <time>2010-12-11 11:10:55Z</time>
      </trkpt>
      <trkpt lat="46.00241" lon="6.46592">
        <ele>2158</ele>
        <time>2010-12-11 11:10:59Z</time>
      </trkpt>
      <trkpt lat="46.0024" lon="6.46593">
        <ele>2158</ele>
        <time>2010-12-11 11:11:03Z</time>
      </trkpt>
      <trkpt lat="46.00239" lon="6.46593">
        <ele>2154</ele>
        <time>2010-12-11 11:11:07Z</time>
      </trkpt>
      <trkpt lat="46.00239" lon="6.46593">
        <ele>2154</ele>
        <time>2010-12-11 11:11:11Z</time>
      </trkpt>
      <trkpt lat="46.00237" lon="6.4659">
        <ele>2143</ele>
        <time>2010-12-11 11:11:15Z</time>
      </trkpt>
      <trkpt lat="46.00237" lon="6.46589">
        <ele>2145</ele>
        <time>2010-12-11 11:11:19Z</time>
      </trkpt>
      <trkpt lat="46.00235" lon="6.46587">
        <ele>2147</ele>
        <time>2010-12-11 11:11:23Z</time>
      </trkpt>
      <trkpt lat="46.00234" lon="6.46587">
        <ele>2150</ele>
        <time>2010-12-11 11:11:27Z</time>
      </trkpt>
      <trkpt lat="46.00234" lon="6.46587">
        <ele>2151</ele>
        <time>2010-12-11 11:11:31Z</time>
      </trkpt>
      <trkpt lat="46.00234" lon="6.46586">
        <ele>2152</ele>
        <time>2010-12-11 11:11:35Z</time>
      </trkpt>
      <trkpt lat="46.00232" lon="6.46583">
        <ele>2154</ele>
        <time>2010-12-11 11:11:39Z</time>
      </trkpt>
      <trkpt lat="46.00232" lon="6.46581">
        <ele>2154</ele>
        <time>2010-12-11 11:11:43Z</time>
      </trkpt>
      <trkpt lat="46.00229" lon="6.46571">
        <ele>2153</ele>
        <time>2010-12-11 11:11:47Z</time>
      </trkpt>
      <trkpt lat="46.00229" lon="6.46569">
        <ele>2154</ele>
        <time>2010-12-11 11:11:51Z</time>
      </trkpt>
      <trkpt lat="46.00229" lon="6.46567">
        <ele>2153</ele>
        <time>2010-12-11 11:11:55Z</time>
      </trkpt>
      <trkpt lat="46.00228" lon="6.46565">
        <ele>2154</ele>
        <time>2010-12-11 11:11:59Z</time>
      </trkpt>
      <trkpt lat="46.00226" lon="6.46563">
        <ele>2154</ele>
        <time>2010-12-11 11:12:03Z</time>
      </trkpt>
      <trkpt lat="46.00224" lon="6.46559">
        <ele>2154</ele>
        <time>2010-12-11 11:12:07Z</time>
      </trkpt>
      <trkpt lat="46.00222" lon="6.46555">
        <ele>2153</ele>
        <time>2010-12-11 11:12:11Z</time>
      </trkpt>
      <trkpt lat="46.00219" lon="6.46551">
        <ele>2154</ele>
        <time>2010-12-11 11:12:15Z</time>
      </trkpt>
      <trkpt lat="46.00219" lon="6.4655">
        <ele>2154</ele>
        <time>2010-12-11 11:12:19Z</time>
      </trkpt>
      <trkpt lat="46.00214" lon="6.46544">
        <ele>2155</ele>
        <time>2010-12-11 11:12:23Z</time>
      </trkpt>
      <trkpt lat="46.00212" lon="6.4654">
        <ele>2154</ele>
        <time>2010-12-11 11:12:27Z</time>
      </trkpt>
      <trkpt lat="46.00209" lon="6.46536">
        <ele>2155</ele>
        <time>2010-12-11 11:12:31Z</time>
      </trkpt>
      <trkpt lat="46.00208" lon="6.46532">
        <ele>2156</ele>
        <time>2010-12-11 11:12:35Z</time>
      </trkpt>
      <trkpt lat="46.00204" lon="6.46526">
        <ele>2157</ele>
        <time>2010-12-11 11:12:39Z</time>
      </trkpt>
      <trkpt lat="46.00203" lon="6.46526">
        <ele>2159</ele>
        <time>2010-12-11 11:12:43Z</time>
      </trkpt>
      <trkpt lat="46.002" lon="6.46521">
        <ele>2159</ele>
        <time>2010-12-11 11:12:47Z</time>
      </trkpt>
      <trkpt lat="46.00194" lon="6.46514">
        <ele>2161</ele>
        <time>2010-12-11 11:12:51Z</time>
      </trkpt>
      <trkpt lat="46.00191" lon="6.4651">
        <ele>2161</ele>
        <time>2010-12-11 11:12:55Z</time>
      </trkpt>
      <trkpt lat="46.00188" lon="6.46507">
        <ele>2160</ele>
        <time>2010-12-11 11:12:59Z</time>
      </trkpt>
      <trkpt lat="46.00186" lon="6.46502">
        <ele>2161</ele>
        <time>2010-12-11 11:13:03Z</time>
      </trkpt>
      <trkpt lat="46.00183" lon="6.46498">
        <ele>2160</ele>
        <time>2010-12-11 11:13:07Z</time>
      </trkpt>
      <trkpt lat="46.00182" lon="6.46495">
        <ele>2160</ele>
        <time>2010-12-11 11:13:11Z</time>
      </trkpt>
      <trkpt lat="46.0018" lon="6.46491">
        <ele>2160</ele>
        <time>2010-12-11 11:13:15Z</time>
      </trkpt>
      <trkpt lat="46.00178" lon="6.46487">
        <ele>2162</ele>
        <time>2010-12-11 11:13:19Z</time>
      </trkpt>
      <trkpt lat="46.00176" lon="6.46484">
        <ele>2162</ele>
        <time>2010-12-11 11:13:23Z</time>
      </trkpt>
      <trkpt lat="46.00175" lon="6.46482">
        <ele>2162</ele>
        <time>2010-12-11 11:13:27Z</time>
      </trkpt>
      <trkpt lat="46.00173" lon="6.4648">
        <ele>2163</ele>
        <time>2010-12-11 11:13:31Z</time>
      </trkpt>
      <trkpt lat="46.00171" lon="6.46479">
        <ele>2163</ele>
        <time>2010-12-11 11:13:35Z</time>
      </trkpt>
      <trkpt lat="46.00169" lon="6.46477">
        <ele>2163</ele>
        <time>2010-12-11 11:13:39Z</time>
      </trkpt>
      <trkpt lat="46.00168" lon="6.46475">
        <ele>2162</ele>
        <time>2010-12-11 11:13:43Z</time>
      </trkpt>
      <trkpt lat="46.00167" lon="6.46474">
        <ele>2161</ele>
        <time>2010-12-11 11:13:47Z</time>
      </trkpt>
      <trkpt lat="46.00163" lon="6.46468">
        <ele>2163</ele>
        <time>2010-12-11 11:13:51Z</time>
      </trkpt>
      <trkpt lat="46.00161" lon="6.46464">
        <ele>2163</ele>
        <time>2010-12-11 11:13:55Z</time>
      </trkpt>
      <trkpt lat="46.00159" lon="6.4646">
        <ele>2162</ele>
        <time>2010-12-11 11:13:59Z</time>
      </trkpt>
      <trkpt lat="46.00155" lon="6.46456">
        <ele>2163</ele>
        <time>2010-12-11 11:14:03Z</time>
      </trkpt>
      <trkpt lat="46.00152" lon="6.46452">
        <ele>2166</ele>
        <time>2010-12-11 11:14:07Z</time>
      </trkpt>
      <trkpt lat="46.00151" lon="6.46451">
        <ele>2166</ele>
        <time>2010-12-11 11:14:11Z</time>
      </trkpt>
      <trkpt lat="46.00147" lon="6.46447">
        <ele>2169</ele>
        <time>2010-12-11 11:14:15Z</time>
      </trkpt>
      <trkpt lat="46.00144" lon="6.46445">
        <ele>2170</ele>
        <time>2010-12-11 11:14:19Z</time>
      </trkpt>
      <trkpt lat="46.00143" lon="6.46443">
        <ele>2171</ele>
        <time>2010-12-11 11:14:23Z</time>
      </trkpt>
      <trkpt lat="46.0014" lon="6.46442">
        <ele>2172</ele>
        <time>2010-12-11 11:14:27Z</time>
      </trkpt>
      <trkpt lat="46.00139" lon="6.46442">
        <ele>2173</ele>
        <time>2010-12-11 11:14:31Z</time>
      </trkpt>
      <trkpt lat="46.00137" lon="6.46441">
        <ele>2172</ele>
        <time>2010-12-11 11:14:35Z</time>
      </trkpt>
      <trkpt lat="46.00133" lon="6.46439">
        <ele>2172</ele>
        <time>2010-12-11 11:14:39Z</time>
      </trkpt>
      <trkpt lat="46.00131" lon="6.46439">
        <ele>2174</ele>
        <time>2010-12-11 11:14:43Z</time>
      </trkpt>
      <trkpt lat="46.00128" lon="6.46439">
        <ele>2176</ele>
        <time>2010-12-11 11:14:47Z</time>
      </trkpt>
      <trkpt lat="46.00127" lon="6.46438">
        <ele>2176</ele>
        <time>2010-12-11 11:14:51Z</time>
      </trkpt>
      <trkpt lat="46.00129" lon="6.46435">
        <ele>2177</ele>
        <time>2010-12-11 11:14:55Z</time>
      </trkpt>
      <trkpt lat="46.00132" lon="6.46432">
        <ele>2178</ele>
        <time>2010-12-11 11:14:59Z</time>
      </trkpt>
      <trkpt lat="46.00134" lon="6.4643">
        <ele>2180</ele>
        <time>2010-12-11 11:15:03Z</time>
      </trkpt>
      <trkpt lat="46.00138" lon="6.46426">
        <ele>2181</ele>
        <time>2010-12-11 11:15:07Z</time>
      </trkpt>
      <trkpt lat="46.0014" lon="6.46424">
        <ele>2182</ele>
        <time>2010-12-11 11:15:11Z</time>
      </trkpt>
      <trkpt lat="46.00141" lon="6.46423">
        <ele>2183</ele>
        <time>2010-12-11 11:15:15Z</time>
      </trkpt>
      <trkpt lat="46.00142" lon="6.46423">
        <ele>2184</ele>
        <time>2010-12-11 11:15:19Z</time>
      </trkpt>
      <trkpt lat="46.00147" lon="6.46423">
        <ele>2187</ele>
        <time>2010-12-11 11:15:23Z</time>
      </trkpt>
      <trkpt lat="46.00149" lon="6.46423">
        <ele>2188</ele>
        <time>2010-12-11 11:15:27Z</time>
      </trkpt>
      <trkpt lat="46.00149" lon="6.46423">
        <ele>2188</ele>
        <time>2010-12-11 11:15:31Z</time>
      </trkpt>
      <trkpt lat="46.00152" lon="6.46421">
        <ele>2188</ele>
        <time>2010-12-11 11:15:35Z</time>
      </trkpt>
      <trkpt lat="46.0015" lon="6.46417">
        <ele>2189</ele>
        <time>2010-12-11 11:15:39Z</time>
      </trkpt>
      <trkpt lat="46.00148" lon="6.46413">
        <ele>2190</ele>
        <time>2010-12-11 11:15:43Z</time>
      </trkpt>
      <trkpt lat="46.00147" lon="6.46412">
        <ele>2190</ele>
        <time>2010-12-11 11:15:47Z</time>
      </trkpt>
      <trkpt lat="46.00143" lon="6.46403">
        <ele>2188</ele>
        <time>2010-12-11 11:15:51Z</time>
      </trkpt>
      <trkpt lat="46.00142" lon="6.464">
        <ele>2189</ele>
        <time>2010-12-11 11:15:55Z</time>
      </trkpt>
      <trkpt lat="46.00139" lon="6.46396">
        <ele>2190</ele>
        <time>2010-12-11 11:15:59Z</time>
      </trkpt>
      <trkpt lat="46.00136" lon="6.46394">
        <ele>2191</ele>
        <time>2010-12-11 11:16:03Z</time>
      </trkpt>
      <trkpt lat="46.00134" lon="6.46393">
        <ele>2191</ele>
        <time>2010-12-11 11:16:07Z</time>
      </trkpt>
      <trkpt lat="46.00132" lon="6.46392">
        <ele>2192</ele>
        <time>2010-12-11 11:16:11Z</time>
      </trkpt>
      <trkpt lat="46.00128" lon="6.46391">
        <ele>2193</ele>
        <time>2010-12-11 11:16:15Z</time>
      </trkpt>
      <trkpt lat="46.00127" lon="6.4639">
        <ele>2195</ele>
        <time>2010-12-11 11:16:19Z</time>
      </trkpt>
      <trkpt lat="46.00124" lon="6.46389">
        <ele>2195</ele>
        <time>2010-12-11 11:16:23Z</time>
      </trkpt>
      <trkpt lat="46.00123" lon="6.46388">
        <ele>2195</ele>
        <time>2010-12-11 11:16:27Z</time>
      </trkpt>
      <trkpt lat="46.00121" lon="6.46387">
        <ele>2196</ele>
        <time>2010-12-11 11:16:31Z</time>
      </trkpt>
      <trkpt lat="46.00119" lon="6.46387">
        <ele>2196</ele>
        <time>2010-12-11 11:16:35Z</time>
      </trkpt>
      <trkpt lat="46.00117" lon="6.46386">
        <ele>2196</ele>
        <time>2010-12-11 11:16:39Z</time>
      </trkpt>
      <trkpt lat="46.00115" lon="6.46386">
        <ele>2197</ele>
        <time>2010-12-11 11:16:43Z</time>
      </trkpt>
      <trkpt lat="46.00114" lon="6.46386">
        <ele>2197</ele>
        <time>2010-12-11 11:16:47Z</time>
      </trkpt>
      <trkpt lat="46.00114" lon="6.46386">
        <ele>2197</ele>
        <time>2010-12-11 11:16:51Z</time>
      </trkpt>
      <trkpt lat="46.00109" lon="6.46386">
        <ele>2194</ele>
        <time>2010-12-11 11:16:55Z</time>
      </trkpt>
      <trkpt lat="46.00106" lon="6.46385">
        <ele>2194</ele>
        <time>2010-12-11 11:16:59Z</time>
      </trkpt>
      <trkpt lat="46.00104" lon="6.46384">
        <ele>2195</ele>
        <time>2010-12-11 11:17:03Z</time>
      </trkpt>
      <trkpt lat="46.00102" lon="6.46382">
        <ele>2196</ele>
        <time>2010-12-11 11:17:07Z</time>
      </trkpt>
      <trkpt lat="46.00101" lon="6.46382">
        <ele>2197</ele>
        <time>2010-12-11 11:17:11Z</time>
      </trkpt>
      <trkpt lat="46.001" lon="6.46384">
        <ele>2202</ele>
        <time>2010-12-11 11:17:15Z</time>
      </trkpt>
      <trkpt lat="46.00101" lon="6.46384">
        <ele>2202</ele>
        <time>2010-12-11 11:17:19Z</time>
      </trkpt>
      <trkpt lat="46.00101" lon="6.46385">
        <ele>2200</ele>
        <time>2010-12-11 11:17:23Z</time>
      </trkpt>
      <trkpt lat="46.001" lon="6.46386">
        <ele>2199</ele>
        <time>2010-12-11 11:17:27Z</time>
      </trkpt>
      <trkpt lat="46.00098" lon="6.46385">
        <ele>2196</ele>
        <time>2010-12-11 11:17:31Z</time>
      </trkpt>
      <trkpt lat="46.00097" lon="6.46385">
        <ele>2197</ele>
        <time>2010-12-11 11:17:35Z</time>
      </trkpt>
      <trkpt lat="46.00094" lon="6.46384">
        <ele>2197</ele>
        <time>2010-12-11 11:17:39Z</time>
      </trkpt>
      <trkpt lat="46.00092" lon="6.46383">
        <ele>2199</ele>
        <time>2010-12-11 11:17:43Z</time>
      </trkpt>
      <trkpt lat="46.00089" lon="6.46382">
        <ele>2201</ele>
        <time>2010-12-11 11:17:47Z</time>
      </trkpt>
      <trkpt lat="46.00085" lon="6.46383">
        <ele>2202</ele>
        <time>2010-12-11 11:17:51Z</time>
      </trkpt>
      <trkpt lat="46.0008" lon="6.46386">
        <ele>2204</ele>
        <time>2010-12-11 11:17:55Z</time>
      </trkpt>
      <trkpt lat="46.00077" lon="6.46385">
        <ele>2205</ele>
        <time>2010-12-11 11:17:59Z</time>
      </trkpt>
      <trkpt lat="46.00075" lon="6.46383">
        <ele>2205</ele>
        <time>2010-12-11 11:18:03Z</time>
      </trkpt>
      <trkpt lat="46.00072" lon="6.46381">
        <ele>2206</ele>
        <time>2010-12-11 11:18:07Z</time>
      </trkpt>
      <trkpt lat="46.00069" lon="6.46378">
        <ele>2207</ele>
        <time>2010-12-11 11:18:11Z</time>
      </trkpt>
      <trkpt lat="46.00068" lon="6.46377">
        <ele>2208</ele>
        <time>2010-12-11 11:18:15Z</time>
      </trkpt>
      <trkpt lat="46.00066" lon="6.46374">
        <ele>2209</ele>
        <time>2010-12-11 11:18:19Z</time>
      </trkpt>
      <trkpt lat="46.00065" lon="6.46372">
        <ele>2210</ele>
        <time>2010-12-11 11:18:23Z</time>
      </trkpt>
      <trkpt lat="46.00063" lon="6.46369">
        <ele>2210</ele>
        <time>2010-12-11 11:18:27Z</time>
      </trkpt>
      <trkpt lat="46.0006" lon="6.46365">
        <ele>2211</ele>
        <time>2010-12-11 11:18:31Z</time>
      </trkpt>
      <trkpt lat="46.0006" lon="6.46365">
        <ele>2211</ele>
        <time>2010-12-11 11:18:35Z</time>
      </trkpt>
      <trkpt lat="46.0006" lon="6.46365">
        <ele>2211</ele>
        <time>2010-12-11 11:18:39Z</time>
      </trkpt>
      <trkpt lat="46.00059" lon="6.4636">
        <ele>2216</ele>
        <time>2010-12-11 11:18:43Z</time>
      </trkpt>
      <trkpt lat="46.00059" lon="6.46359">
        <ele>2216</ele>
        <time>2010-12-11 11:18:47Z</time>
      </trkpt>
      <trkpt lat="46.00059" lon="6.46359">
        <ele>2216</ele>
        <time>2010-12-11 11:18:51Z</time>
      </trkpt>
      <trkpt lat="46.00059" lon="6.46359">
        <ele>2216</ele>
        <time>2010-12-11 11:18:55Z</time>
      </trkpt>
      <trkpt lat="46.0006" lon="6.46355">
        <ele>2215</ele>
        <time>2010-12-11 11:18:59Z</time>
      </trkpt>
      <trkpt lat="46.0006" lon="6.46355">
        <ele>2215</ele>
        <time>2010-12-11 11:19:03Z</time>
      </trkpt>
      <trkpt lat="46.00062" lon="6.46353">
        <ele>2222</ele>
        <time>2010-12-11 11:19:07Z</time>
      </trkpt>
      <trkpt lat="46.00065" lon="6.46353">
        <ele>2224</ele>
        <time>2010-12-11 11:19:11Z</time>
      </trkpt>
      <trkpt lat="46.00068" lon="6.46352">
        <ele>2225</ele>
        <time>2010-12-11 11:19:15Z</time>
      </trkpt>
      <trkpt lat="46.0007" lon="6.46352">
        <ele>2226</ele>
        <time>2010-12-11 11:19:19Z</time>
      </trkpt>
      <trkpt lat="46.0007" lon="6.46352">
        <ele>2226</ele>
        <time>2010-12-11 11:19:23Z</time>
      </trkpt>
      <trkpt lat="46.00074" lon="6.4635">
        <ele>2227</ele>
        <time>2010-12-11 11:19:27Z</time>
      </trkpt>
      <trkpt lat="46.00077" lon="6.46348">
        <ele>2228</ele>
        <time>2010-12-11 11:19:31Z</time>
      </trkpt>
      <trkpt lat="46.00079" lon="6.46346">
        <ele>2229</ele>
        <time>2010-12-11 11:19:35Z</time>
      </trkpt>
      <trkpt lat="46.00082" lon="6.46344">
        <ele>2231</ele>
        <time>2010-12-11 11:19:39Z</time>
      </trkpt>
      <trkpt lat="46.00084" lon="6.46344">
        <ele>2231</ele>
        <time>2010-12-11 11:19:43Z</time>
      </trkpt>
      <trkpt lat="46.00085" lon="6.46343">
        <ele>2232</ele>
        <time>2010-12-11 11:19:47Z</time>
      </trkpt>
      <trkpt lat="46.00091" lon="6.46341">
        <ele>2234</ele>
        <time>2010-12-11 11:19:51Z</time>
      </trkpt>
      <trkpt lat="46.00095" lon="6.4634">
        <ele>2235</ele>
        <time>2010-12-11 11:19:55Z</time>
      </trkpt>
      <trkpt lat="46.00097" lon="6.4634">
        <ele>2236</ele>
        <time>2010-12-11 11:19:59Z</time>
      </trkpt>
      <trkpt lat="46.00097" lon="6.4634">
        <ele>2236</ele>
        <time>2010-12-11 11:20:03Z</time>
      </trkpt>
      <trkpt lat="46.001" lon="6.46339">
        <ele>2236</ele>
        <time>2010-12-11 11:20:07Z</time>
      </trkpt>
      <trkpt lat="46.00101" lon="6.46339">
        <ele>2239</ele>
        <time>2010-12-11 11:20:11Z</time>
      </trkpt>
      <trkpt lat="46.00102" lon="6.46339">
        <ele>2236</ele>
        <time>2010-12-11 11:20:15Z</time>
      </trkpt>
      <trkpt lat="46.00103" lon="6.46338">
        <ele>2237</ele>
        <time>2010-12-11 11:20:19Z</time>
      </trkpt>
      <trkpt lat="46.00103" lon="6.46338">
        <ele>2237</ele>
        <time>2010-12-11 11:20:23Z</time>
      </trkpt>
      <trkpt lat="46.00103" lon="6.46338">
        <ele>2237</ele>
        <time>2010-12-11 11:20:27Z</time>
      </trkpt>
      <trkpt lat="46.00106" lon="6.46337">
        <ele>2239</ele>
        <time>2010-12-11 11:20:31Z</time>
      </trkpt>
      <trkpt lat="46.00107" lon="6.46336">
        <ele>2239</ele>
        <time>2010-12-11 11:20:35Z</time>
      </trkpt>
      <trkpt lat="46.0011" lon="6.46335">
        <ele>2240</ele>
        <time>2010-12-11 11:20:39Z</time>
      </trkpt>
      <trkpt lat="46.00113" lon="6.46334">
        <ele>2240</ele>
        <time>2010-12-11 11:20:43Z</time>
      </trkpt>
      <trkpt lat="46.00114" lon="6.46333">
        <ele>2241</ele>
        <time>2010-12-11 11:20:47Z</time>
      </trkpt>
      <trkpt lat="46.00118" lon="6.46331">
        <ele>2243</ele>
        <time>2010-12-11 11:20:51Z</time>
      </trkpt>
      <trkpt lat="46.0012" lon="6.4633">
        <ele>2244</ele>
        <time>2010-12-11 11:20:55Z</time>
      </trkpt>
      <trkpt lat="46.0012" lon="6.4633">
        <ele>2244</ele>
        <time>2010-12-11 11:20:59Z</time>
      </trkpt>
      <trkpt lat="46.00124" lon="6.46328">
        <ele>2245</ele>
        <time>2010-12-11 11:21:03Z</time>
      </trkpt>
      <trkpt lat="46.00127" lon="6.46326">
        <ele>2246</ele>
        <time>2010-12-11 11:21:07Z</time>
      </trkpt>
      <trkpt lat="46.00131" lon="6.46324">
        <ele>2247</ele>
        <time>2010-12-11 11:21:11Z</time>
      </trkpt>
      <trkpt lat="46.00131" lon="6.46323">
        <ele>2247</ele>
        <time>2010-12-11 11:21:15Z</time>
      </trkpt>
      <trkpt lat="46.00134" lon="6.46317">
        <ele>2248</ele>
        <time>2010-12-11 11:21:19Z</time>
      </trkpt>
      <trkpt lat="46.00135" lon="6.46316">
        <ele>2249</ele>
        <time>2010-12-11 11:21:23Z</time>
      </trkpt>
      <trkpt lat="46.00136" lon="6.46318">
        <ele>2254</ele>
        <time>2010-12-11 11:21:27Z</time>
      </trkpt>
      <trkpt lat="46.00136" lon="6.46318">
        <ele>2254</ele>
        <time>2010-12-11 11:21:31Z</time>
      </trkpt>
      <trkpt lat="46.00135" lon="6.46318">
        <ele>2253</ele>
        <time>2010-12-11 11:21:35Z</time>
      </trkpt>
      <trkpt lat="46.00132" lon="6.46313">
        <ele>2251</ele>
        <time>2010-12-11 11:21:39Z</time>
      </trkpt>
      <trkpt lat="46.00129" lon="6.46308">
        <ele>2249</ele>
        <time>2010-12-11 11:21:43Z</time>
      </trkpt>
      <trkpt lat="46.00126" lon="6.46304">
        <ele>2250</ele>
        <time>2010-12-11 11:21:47Z</time>
      </trkpt>
      <trkpt lat="46.00122" lon="6.46302">
        <ele>2251</ele>
        <time>2010-12-11 11:21:51Z</time>
      </trkpt>
      <trkpt lat="46.00118" lon="6.463">
        <ele>2252</ele>
        <time>2010-12-11 11:21:55Z</time>
      </trkpt>
      <trkpt lat="46.00114" lon="6.46298">
        <ele>2253</ele>
        <time>2010-12-11 11:21:59Z</time>
      </trkpt>
      <trkpt lat="46.00112" lon="6.46297">
        <ele>2253</ele>
        <time>2010-12-11 11:22:03Z</time>
      </trkpt>
      <trkpt lat="46.00109" lon="6.46296">
        <ele>2253</ele>
        <time>2010-12-11 11:22:07Z</time>
      </trkpt>
      <trkpt lat="46.00106" lon="6.46293">
        <ele>2252</ele>
        <time>2010-12-11 11:22:11Z</time>
      </trkpt>
      <trkpt lat="46.00103" lon="6.46291">
        <ele>2251</ele>
        <time>2010-12-11 11:22:15Z</time>
      </trkpt>
      <trkpt lat="46.001" lon="6.46289">
        <ele>2252</ele>
        <time>2010-12-11 11:22:19Z</time>
      </trkpt>
      <trkpt lat="46.00098" lon="6.46289">
        <ele>2253</ele>
        <time>2010-12-11 11:22:23Z</time>
      </trkpt>
      <trkpt lat="46.00097" lon="6.46288">
        <ele>2256</ele>
        <time>2010-12-11 11:22:27Z</time>
      </trkpt>
      <trkpt lat="46.00095" lon="6.46288">
        <ele>2257</ele>
        <time>2010-12-11 11:22:31Z</time>
      </trkpt>
      <trkpt lat="46.00093" lon="6.46288">
        <ele>2257</ele>
        <time>2010-12-11 11:22:35Z</time>
      </trkpt>
      <trkpt lat="46.00092" lon="6.46287">
        <ele>2258</ele>
        <time>2010-12-11 11:22:39Z</time>
      </trkpt>
      <trkpt lat="46.00089" lon="6.46287">
        <ele>2259</ele>
        <time>2010-12-11 11:22:43Z</time>
      </trkpt>
      <trkpt lat="46.00086" lon="6.46286">
        <ele>2260</ele>
        <time>2010-12-11 11:22:47Z</time>
      </trkpt>
      <trkpt lat="46.00085" lon="6.46285">
        <ele>2260</ele>
        <time>2010-12-11 11:22:51Z</time>
      </trkpt>
      <trkpt lat="46.00084" lon="6.46283">
        <ele>2260</ele>
        <time>2010-12-11 11:22:55Z</time>
      </trkpt>
      <trkpt lat="46.00085" lon="6.46283">
        <ele>2261</ele>
        <time>2010-12-11 11:22:59Z</time>
      </trkpt>
      <trkpt lat="46.00087" lon="6.46282">
        <ele>2260</ele>
        <time>2010-12-11 11:23:03Z</time>
      </trkpt>
      <trkpt lat="46.00089" lon="6.46281">
        <ele>2260</ele>
        <time>2010-12-11 11:23:07Z</time>
      </trkpt>
      <trkpt lat="46.00089" lon="6.46281">
        <ele>2260</ele>
        <time>2010-12-11 11:23:11Z</time>
      </trkpt>
      <trkpt lat="46.00092" lon="6.46279">
        <ele>2260</ele>
        <time>2010-12-11 11:23:15Z</time>
      </trkpt>
      <trkpt lat="46.00094" lon="6.46278">
        <ele>2261</ele>
        <time>2010-12-11 11:23:19Z</time>
      </trkpt>
      <trkpt lat="46.00095" lon="6.46277">
        <ele>2262</ele>
        <time>2010-12-11 11:23:23Z</time>
      </trkpt>
      <trkpt lat="46.00096" lon="6.46276">
        <ele>2260</ele>
        <time>2010-12-11 11:23:27Z</time>
      </trkpt>
      <trkpt lat="46.00096" lon="6.46275">
        <ele>2260</ele>
        <time>2010-12-11 11:23:31Z</time>
      </trkpt>
      <trkpt lat="46.00095" lon="6.46273">
        <ele>2260</ele>
        <time>2010-12-11 11:23:35Z</time>
      </trkpt>
      <trkpt lat="46.00094" lon="6.46272">
        <ele>2262</ele>
        <time>2010-12-11 11:23:39Z</time>
      </trkpt>
      <trkpt lat="46.00092" lon="6.4627">
        <ele>2262</ele>
        <time>2010-12-11 11:23:43Z</time>
      </trkpt>
      <trkpt lat="46.0009" lon="6.46269">
        <ele>2264</ele>
        <time>2010-12-11 11:23:47Z</time>
      </trkpt>
      <trkpt lat="46.0009" lon="6.46269">
        <ele>2266</ele>
        <time>2010-12-11 11:23:51Z</time>
      </trkpt>
      <trkpt lat="46.0009" lon="6.46269">
        <ele>2266</ele>
        <time>2010-12-11 11:23:55Z</time>
      </trkpt>
      <trkpt lat="46.00092" lon="6.46268">
        <ele>2269</ele>
        <time>2010-12-11 11:23:59Z</time>
      </trkpt>
      <trkpt lat="46.00093" lon="6.46268">
        <ele>2269</ele>
        <time>2010-12-11 11:24:03Z</time>
      </trkpt>
      <trkpt lat="46.00095" lon="6.46268">
        <ele>2269</ele>
        <time>2010-12-11 11:24:07Z</time>
      </trkpt>
      <trkpt lat="46.00097" lon="6.46268">
        <ele>2268</ele>
        <time>2010-12-11 11:24:11Z</time>
      </trkpt>
      <trkpt lat="46.00097" lon="6.46266">
        <ele>2269</ele>
        <time>2010-12-11 11:24:15Z</time>
      </trkpt>
      <trkpt lat="46.00097" lon="6.46263">
        <ele>2270</ele>
        <time>2010-12-11 11:24:19Z</time>
      </trkpt>
      <trkpt lat="46.00096" lon="6.46261">
        <ele>2270</ele>
        <time>2010-12-11 11:24:23Z</time>
      </trkpt>
      <trkpt lat="46.00094" lon="6.46258">
        <ele>2270</ele>
        <time>2010-12-11 11:24:27Z</time>
      </trkpt>
      <trkpt lat="46.00092" lon="6.46256">
        <ele>2271</ele>
        <time>2010-12-11 11:24:31Z</time>
      </trkpt>
      <trkpt lat="46.0009" lon="6.46255">
        <ele>2272</ele>
        <time>2010-12-11 11:24:35Z</time>
      </trkpt>
      <trkpt lat="46.00087" lon="6.46254">
        <ele>2273</ele>
        <time>2010-12-11 11:24:39Z</time>
      </trkpt>
      <trkpt lat="46.00086" lon="6.46254">
        <ele>2273</ele>
        <time>2010-12-11 11:24:43Z</time>
      </trkpt>
      <trkpt lat="46.00084" lon="6.46252">
        <ele>2274</ele>
        <time>2010-12-11 11:24:47Z</time>
      </trkpt>
      <trkpt lat="46.00083" lon="6.46251">
        <ele>2274</ele>
        <time>2010-12-11 11:24:51Z</time>
      </trkpt>
      <trkpt lat="46.00084" lon="6.46248">
        <ele>2278</ele>
        <time>2010-12-11 11:24:55Z</time>
      </trkpt>
      <trkpt lat="46.00086" lon="6.46246">
        <ele>2279</ele>
        <time>2010-12-11 11:24:59Z</time>
      </trkpt>
      <trkpt lat="46.00088" lon="6.46245">
        <ele>2278</ele>
        <time>2010-12-11 11:25:03Z</time>
      </trkpt>
      <trkpt lat="46.00089" lon="6.46243">
        <ele>2276</ele>
        <time>2010-12-11 11:25:07Z</time>
      </trkpt>
      <trkpt lat="46.0009" lon="6.4624">
        <ele>2275</ele>
        <time>2010-12-11 11:25:11Z</time>
      </trkpt>
      <trkpt lat="46.0009" lon="6.46236">
        <ele>2277</ele>
        <time>2010-12-11 11:25:15Z</time>
      </trkpt>
      <trkpt lat="46.00089" lon="6.46233">
        <ele>2278</ele>
        <time>2010-12-11 11:25:19Z</time>
      </trkpt>
      <trkpt lat="46.00088" lon="6.46231">
        <ele>2278</ele>
        <time>2010-12-11 11:25:23Z</time>
      </trkpt>
      <trkpt lat="46.00086" lon="6.46229">
        <ele>2279</ele>
        <time>2010-12-11 11:25:27Z</time>
      </trkpt>
      <trkpt lat="46.00085" lon="6.46229">
        <ele>2279</ele>
        <time>2010-12-11 11:25:31Z</time>
      </trkpt>
      <trkpt lat="46.00082" lon="6.46228">
        <ele>2281</ele>
        <time>2010-12-11 11:25:35Z</time>
      </trkpt>
      <trkpt lat="46.00081" lon="6.46228">
        <ele>2283</ele>
        <time>2010-12-11 11:25:39Z</time>
      </trkpt>
      <trkpt lat="46.00081" lon="6.46228">
        <ele>2283</ele>
        <time>2010-12-11 11:25:43Z</time>
      </trkpt>
      <trkpt lat="46.00081" lon="6.46228">
        <ele>2283</ele>
        <time>2010-12-11 11:25:47Z</time>
      </trkpt>
      <trkpt lat="46.00033" lon="6.4637">
        <ele>2292</ele>
        <time>2010-12-11 11:35:02Z</time>
      </trkpt>
      <trkpt lat="46.00018" lon="6.46403">
        <ele>2285</ele>
        <time>2010-12-11 11:35:06Z</time>
      </trkpt>
      <trkpt lat="45.99997" lon="6.46434">
        <ele>2279</ele>
        <time>2010-12-11 11:35:10Z</time>
      </trkpt>
      <trkpt lat="45.99985" lon="6.46451">
        <ele>2274</ele>
        <time>2010-12-11 11:35:14Z</time>
      </trkpt>
      <trkpt lat="45.99979" lon="6.46461">
        <ele>2269</ele>
        <time>2010-12-11 11:35:18Z</time>
      </trkpt>
      <trkpt lat="45.99979" lon="6.46481">
        <ele>2264</ele>
        <time>2010-12-11 11:35:22Z</time>
      </trkpt>
      <trkpt lat="45.99979" lon="6.46505">
        <ele>2259</ele>
        <time>2010-12-11 11:35:26Z</time>
      </trkpt>
      <trkpt lat="45.9998" lon="6.46506">
        <ele>2259</ele>
        <time>2010-12-11 11:35:30Z</time>
      </trkpt>
      <trkpt lat="45.9998" lon="6.46506">
        <ele>2259</ele>
        <time>2010-12-11 11:35:34Z</time>
      </trkpt>
      <trkpt lat="45.9998" lon="6.46506">
        <ele>2259</ele>
        <time>2010-12-11 11:35:38Z</time>
      </trkpt>
      <trkpt lat="45.99987" lon="6.46542">
        <ele>2253</ele>
        <time>2010-12-11 11:35:42Z</time>
      </trkpt>
      <trkpt lat="45.9998" lon="6.46577">
        <ele>2251</ele>
        <time>2010-12-11 11:35:46Z</time>
      </trkpt>
      <trkpt lat="45.99972" lon="6.46608">
        <ele>2250</ele>
        <time>2010-12-11 11:35:50Z</time>
      </trkpt>
      <trkpt lat="45.99971" lon="6.46625">
        <ele>2247</ele>
        <time>2010-12-11 11:35:54Z</time>
      </trkpt>
      <trkpt lat="45.99971" lon="6.46645">
        <ele>2244</ele>
        <time>2010-12-11 11:35:58Z</time>
      </trkpt>
      <trkpt lat="45.9997" lon="6.46659">
        <ele>2244</ele>
        <time>2010-12-11 11:36:02Z</time>
      </trkpt>
      <trkpt lat="45.9997" lon="6.46659">
        <ele>2244</ele>
        <time>2010-12-11 11:36:06Z</time>
      </trkpt>
      <trkpt lat="45.99973" lon="6.46688">
        <ele>2241</ele>
        <time>2010-12-11 11:36:10Z</time>
      </trkpt>
      <trkpt lat="45.99975" lon="6.46717">
        <ele>2240</ele>
        <time>2010-12-11 11:36:14Z</time>
      </trkpt>
      <trkpt lat="45.99975" lon="6.46719">
        <ele>2240</ele>
        <time>2010-12-11 11:36:18Z</time>
      </trkpt>
      <trkpt lat="45.99975" lon="6.46719">
        <ele>2240</ele>
        <time>2010-12-11 11:36:22Z</time>
      </trkpt>
      <trkpt lat="45.9998" lon="6.46747">
        <ele>2233</ele>
        <time>2010-12-11 11:36:26Z</time>
      </trkpt>
      <trkpt lat="45.99984" lon="6.46772">
        <ele>2229</ele>
        <time>2010-12-11 11:36:30Z</time>
      </trkpt>
      <trkpt lat="45.99984" lon="6.46776">
        <ele>2228</ele>
        <time>2010-12-11 11:36:34Z</time>
      </trkpt>
      <trkpt lat="45.99984" lon="6.46776">
        <ele>2228</ele>
        <time>2010-12-11 11:36:38Z</time>
      </trkpt>
      <trkpt lat="45.99987" lon="6.4684">
        <ele>2224</ele>
        <time>2010-12-11 11:36:42Z</time>
      </trkpt>
      <trkpt lat="45.99986" lon="6.46874">
        <ele>2220</ele>
        <time>2010-12-11 11:36:46Z</time>
      </trkpt>
      <trkpt lat="45.99983" lon="6.46892">
        <ele>2217</ele>
        <time>2010-12-11 11:36:50Z</time>
      </trkpt>
      <trkpt lat="45.99982" lon="6.46904">
        <ele>2215</ele>
        <time>2010-12-11 11:36:54Z</time>
      </trkpt>
      <trkpt lat="45.99982" lon="6.46904">
        <ele>2215</ele>
        <time>2010-12-11 11:36:58Z</time>
      </trkpt>
      <trkpt lat="45.99978" lon="6.46945">
        <ele>2203</ele>
        <time>2010-12-11 11:37:02Z</time>
      </trkpt>
      <trkpt lat="45.99969" lon="6.46972">
        <ele>2197</ele>
        <time>2010-12-11 11:37:06Z</time>
      </trkpt>
      <trkpt lat="45.99965" lon="6.46995">
        <ele>2191</ele>
        <time>2010-12-11 11:37:10Z</time>
      </trkpt>
      <trkpt lat="45.99966" lon="6.4701">
        <ele>2186</ele>
        <time>2010-12-11 11:37:14Z</time>
      </trkpt>
      <trkpt lat="45.9997" lon="6.47029">
        <ele>2182</ele>
        <time>2010-12-11 11:37:18Z</time>
      </trkpt>
      <trkpt lat="45.99971" lon="6.47044">
        <ele>2179</ele>
        <time>2010-12-11 11:37:22Z</time>
      </trkpt>
      <trkpt lat="45.99971" lon="6.4706">
        <ele>2175</ele>
        <time>2010-12-11 11:37:26Z</time>
      </trkpt>
      <trkpt lat="45.99969" lon="6.47068">
        <ele>2174</ele>
        <time>2010-12-11 11:37:30Z</time>
      </trkpt>
      <trkpt lat="45.99969" lon="6.47068">
        <ele>2174</ele>
        <time>2010-12-11 11:37:34Z</time>
      </trkpt>
      <trkpt lat="45.99969" lon="6.47068">
        <ele>2174</ele>
        <time>2010-12-11 11:37:38Z</time>
      </trkpt>
      <trkpt lat="45.99969" lon="6.47068">
        <ele>2174</ele>
        <time>2010-12-11 11:37:42Z</time>
      </trkpt>
      <trkpt lat="45.99969" lon="6.47068">
        <ele>2174</ele>
        <time>2010-12-11 11:37:46Z</time>
      </trkpt>
      <trkpt lat="45.99958" lon="6.47102">
        <ele>2166</ele>
        <time>2010-12-11 11:37:50Z</time>
      </trkpt>
      <trkpt lat="45.99939" lon="6.47125">
        <ele>2163</ele>
        <time>2010-12-11 11:37:54Z</time>
      </trkpt>
      <trkpt lat="45.99937" lon="6.47141">
        <ele>2163</ele>
        <time>2010-12-11 11:37:58Z</time>
      </trkpt>
      <trkpt lat="45.99935" lon="6.47149">
        <ele>2162</ele>
        <time>2010-12-11 11:38:02Z</time>
      </trkpt>
      <trkpt lat="45.99921" lon="6.4716">
        <ele>2159</ele>
        <time>2010-12-11 11:38:06Z</time>
      </trkpt>
      <trkpt lat="45.99921" lon="6.4716">
        <ele>2159</ele>
        <time>2010-12-11 11:38:10Z</time>
      </trkpt>
      <trkpt lat="45.99921" lon="6.4716">
        <ele>2159</ele>
        <time>2010-12-11 11:38:14Z</time>
      </trkpt>
      <trkpt lat="45.99921" lon="6.4716">
        <ele>2159</ele>
        <time>2010-12-11 11:38:18Z</time>
      </trkpt>
      <trkpt lat="45.99921" lon="6.4716">
        <ele>2159</ele>
        <time>2010-12-11 11:38:22Z</time>
      </trkpt>
      <trkpt lat="45.99921" lon="6.4716">
        <ele>2159</ele>
        <time>2010-12-11 11:38:26Z</time>
      </trkpt>
      <trkpt lat="45.99921" lon="6.4716">
        <ele>2159</ele>
        <time>2010-12-11 11:38:30Z</time>
      </trkpt>
      <trkpt lat="45.99921" lon="6.4716">
        <ele>2159</ele>
        <time>2010-12-11 11:38:34Z</time>
      </trkpt>
      <trkpt lat="45.99921" lon="6.4716">
        <ele>2159</ele>
        <time>2010-12-11 11:38:38Z</time>
      </trkpt>
      <trkpt lat="45.99921" lon="6.4716">
        <ele>2159</ele>
        <time>2010-12-11 11:38:42Z</time>
      </trkpt>
      <trkpt lat="45.99899" lon="6.47191">
        <ele>2143</ele>
        <time>2010-12-11 11:38:46Z</time>
      </trkpt>
      <trkpt lat="45.99897" lon="6.47201">
        <ele>2138</ele>
        <time>2010-12-11 11:38:50Z</time>
      </trkpt>
      <trkpt lat="45.99894" lon="6.47223">
        <ele>2130</ele>
        <time>2010-12-11 11:38:54Z</time>
      </trkpt>
      <trkpt lat="45.99895" lon="6.47241">
        <ele>2116</ele>
        <time>2010-12-11 11:38:58Z</time>
      </trkpt>
      <trkpt lat="45.99894" lon="6.47261">
        <ele>2099</ele>
        <time>2010-12-11 11:39:02Z</time>
      </trkpt>
      <trkpt lat="45.99896" lon="6.47279">
        <ele>2088</ele>
        <time>2010-12-11 11:39:06Z</time>
      </trkpt>
      <trkpt lat="45.99891" lon="6.47295">
        <ele>2089</ele>
        <time>2010-12-11 11:39:10Z</time>
      </trkpt>
      <trkpt lat="45.99888" lon="6.47309">
        <ele>2086</ele>
        <time>2010-12-11 11:39:14Z</time>
      </trkpt>
      <trkpt lat="45.99876" lon="6.47315">
        <ele>2080</ele>
        <time>2010-12-11 11:39:18Z</time>
      </trkpt>
      <trkpt lat="45.99865" lon="6.47319">
        <ele>2063</ele>
        <time>2010-12-11 11:39:22Z</time>
      </trkpt>
      <trkpt lat="45.99861" lon="6.47334">
        <ele>2064</ele>
        <time>2010-12-11 11:39:26Z</time>
      </trkpt>
      <trkpt lat="45.99861" lon="6.47334">
        <ele>2064</ele>
        <time>2010-12-11 11:39:30Z</time>
      </trkpt>
      <trkpt lat="45.99861" lon="6.47334">
        <ele>2064</ele>
        <time>2010-12-11 11:39:34Z</time>
      </trkpt>
      <trkpt lat="45.99861" lon="6.47334">
        <ele>2064</ele>
        <time>2010-12-11 11:39:38Z</time>
      </trkpt>
      <trkpt lat="45.99861" lon="6.47334">
        <ele>2064</ele>
        <time>2010-12-11 11:39:42Z</time>
      </trkpt>
      <trkpt lat="45.99861" lon="6.47334">
        <ele>2064</ele>
        <time>2010-12-11 11:39:46Z</time>
      </trkpt>
      <trkpt lat="45.99881" lon="6.4734">
        <ele>2072</ele>
        <time>2010-12-11 11:39:50Z</time>
      </trkpt>
      <trkpt lat="45.99881" lon="6.4734">
        <ele>2072</ele>
        <time>2010-12-11 11:39:54Z</time>
      </trkpt>
      <trkpt lat="45.99881" lon="6.4734">
        <ele>2072</ele>
        <time>2010-12-11 11:39:58Z</time>
      </trkpt>
      <trkpt lat="45.99876" lon="6.4736">
        <ele>2059</ele>
        <time>2010-12-11 11:40:02Z</time>
      </trkpt>
      <trkpt lat="45.99879" lon="6.47373">
        <ele>2056</ele>
        <time>2010-12-11 11:40:06Z</time>
      </trkpt>
      <trkpt lat="45.99878" lon="6.47401">
        <ele>2049</ele>
        <time>2010-12-11 11:40:10Z</time>
      </trkpt>
      <trkpt lat="45.99881" lon="6.47421">
        <ele>2044</ele>
        <time>2010-12-11 11:40:14Z</time>
      </trkpt>
      <trkpt lat="45.99881" lon="6.47421">
        <ele>2044</ele>
        <time>2010-12-11 11:40:18Z</time>
      </trkpt>
      <trkpt lat="45.99881" lon="6.47421">
        <ele>2044</ele>
        <time>2010-12-11 11:40:22Z</time>
      </trkpt>
      <trkpt lat="45.99864" lon="6.47462">
        <ele>2027</ele>
        <time>2010-12-11 11:40:26Z</time>
      </trkpt>
      <trkpt lat="45.99851" lon="6.47486">
        <ele>2023</ele>
        <time>2010-12-11 11:40:30Z</time>
      </trkpt>
      <trkpt lat="45.99841" lon="6.47507">
        <ele>2015</ele>
        <time>2010-12-11 11:40:34Z</time>
      </trkpt>
      <trkpt lat="45.99836" lon="6.47524">
        <ele>2007</ele>
        <time>2010-12-11 11:40:38Z</time>
      </trkpt>
      <trkpt lat="45.99838" lon="6.47535">
        <ele>2000</ele>
        <time>2010-12-11 11:40:42Z</time>
      </trkpt>
      <trkpt lat="45.99847" lon="6.47544">
        <ele>1980</ele>
        <time>2010-12-11 11:40:46Z</time>
      </trkpt>
      <trkpt lat="45.99849" lon="6.47556">
        <ele>1971</ele>
        <time>2010-12-11 11:40:50Z</time>
      </trkpt>
      <trkpt lat="45.99844" lon="6.47567">
        <ele>1966</ele>
        <time>2010-12-11 11:40:54Z</time>
      </trkpt>
      <trkpt lat="45.99842" lon="6.4757">
        <ele>1959</ele>
        <time>2010-12-11 11:40:58Z</time>
      </trkpt>
      <trkpt lat="45.9984" lon="6.47585">
        <ele>1950</ele>
        <time>2010-12-11 11:41:02Z</time>
      </trkpt>
      <trkpt lat="45.99835" lon="6.47595">
        <ele>1937</ele>
        <time>2010-12-11 11:41:06Z</time>
      </trkpt>
      <trkpt lat="45.99835" lon="6.47595">
        <ele>1937</ele>
        <time>2010-12-11 11:41:10Z</time>
      </trkpt>
      <trkpt lat="45.99835" lon="6.47595">
        <ele>1937</ele>
        <time>2010-12-11 11:41:14Z</time>
      </trkpt>
      <trkpt lat="45.99835" lon="6.47595">
        <ele>1937</ele>
        <time>2010-12-11 11:41:18Z</time>
      </trkpt>
      <trkpt lat="45.99835" lon="6.47595">
        <ele>1937</ele>
        <time>2010-12-11 11:41:22Z</time>
      </trkpt>
      <trkpt lat="45.99835" lon="6.47595">
        <ele>1937</ele>
        <time>2010-12-11 11:41:26Z</time>
      </trkpt>
      <trkpt lat="45.99835" lon="6.47595">
        <ele>1937</ele>
        <time>2010-12-11 11:41:30Z</time>
      </trkpt>
      <trkpt lat="45.99835" lon="6.47595">
        <ele>1937</ele>
        <time>2010-12-11 11:41:34Z</time>
      </trkpt>
      <trkpt lat="45.99822" lon="6.47608">
        <ele>1912</ele>
        <time>2010-12-11 11:41:38Z</time>
      </trkpt>
      <trkpt lat="45.99822" lon="6.47608">
        <ele>1912</ele>
        <time>2010-12-11 11:41:42Z</time>
      </trkpt>
      <trkpt lat="45.99806" lon="6.47619">
        <ele>1904</ele>
        <time>2010-12-11 11:41:46Z</time>
      </trkpt>
      <trkpt lat="45.99788" lon="6.47625">
        <ele>1901</ele>
        <time>2010-12-11 11:41:50Z</time>
      </trkpt>
      <trkpt lat="45.99771" lon="6.47624">
        <ele>1899</ele>
        <time>2010-12-11 11:41:54Z</time>
      </trkpt>
      <trkpt lat="45.99759" lon="6.47627">
        <ele>1895</ele>
        <time>2010-12-11 11:41:58Z</time>
      </trkpt>
      <trkpt lat="45.99759" lon="6.47627">
        <ele>1895</ele>
        <time>2010-12-11 11:42:02Z</time>
      </trkpt>
      <trkpt lat="45.99759" lon="6.47627">
        <ele>1895</ele>
        <time>2010-12-11 11:42:06Z</time>
      </trkpt>
      <trkpt lat="45.99759" lon="6.47627">
        <ele>1895</ele>
        <time>2010-12-11 11:42:10Z</time>
      </trkpt>
      <trkpt lat="45.99759" lon="6.47627">
        <ele>1895</ele>
        <time>2010-12-11 11:42:14Z</time>
      </trkpt>
      <trkpt lat="45.99759" lon="6.47627">
        <ele>1895</ele>
        <time>2010-12-11 11:42:18Z</time>
      </trkpt>
      <trkpt lat="45.9975" lon="6.47631">
        <ele>1887</ele>
        <time>2010-12-11 11:42:22Z</time>
      </trkpt>
      <trkpt lat="45.99738" lon="6.47632">
        <ele>1885</ele>
        <time>2010-12-11 11:42:26Z</time>
      </trkpt>
      <trkpt lat="45.99707" lon="6.47636">
        <ele>1884</ele>
        <time>2010-12-11 11:42:30Z</time>
      </trkpt>
      <trkpt lat="45.99688" lon="6.47641">
        <ele>1882</ele>
        <time>2010-12-11 11:42:34Z</time>
      </trkpt>
      <trkpt lat="45.99688" lon="6.47641">
        <ele>1882</ele>
        <time>2010-12-11 11:42:38Z</time>
      </trkpt>
      <trkpt lat="45.99688" lon="6.47641">
        <ele>1882</ele>
        <time>2010-12-11 11:42:42Z</time>
      </trkpt>
      <trkpt lat="45.99688" lon="6.47641">
        <ele>1882</ele>
        <time>2010-12-11 11:42:46Z</time>
      </trkpt>
      <trkpt lat="45.99688" lon="6.47641">
        <ele>1882</ele>
        <time>2010-12-11 11:42:50Z</time>
      </trkpt>
      <trkpt lat="45.99666" lon="6.47641">
        <ele>1864</ele>
        <time>2010-12-11 11:42:54Z</time>
      </trkpt>
      <trkpt lat="45.99644" lon="6.47638">
        <ele>1863</ele>
        <time>2010-12-11 11:42:58Z</time>
      </trkpt>
      <trkpt lat="45.99644" lon="6.47638">
        <ele>1863</ele>
        <time>2010-12-11 11:43:02Z</time>
      </trkpt>
      <trkpt lat="45.99644" lon="6.47638">
        <ele>1863</ele>
        <time>2010-12-11 11:43:06Z</time>
      </trkpt>
      <trkpt lat="45.99624" lon="6.47612">
        <ele>1854</ele>
        <time>2010-12-11 11:43:10Z</time>
      </trkpt>
      <trkpt lat="45.99624" lon="6.47612">
        <ele>1854</ele>
        <time>2010-12-11 11:43:14Z</time>
      </trkpt>
      <trkpt lat="45.99624" lon="6.47612">
        <ele>1854</ele>
        <time>2010-12-11 11:43:18Z</time>
      </trkpt>
      <trkpt lat="45.99613" lon="6.47591">
        <ele>1847</ele>
        <time>2010-12-11 11:43:22Z</time>
      </trkpt>
      <trkpt lat="45.99613" lon="6.47591">
        <ele>1847</ele>
        <time>2010-12-11 11:43:26Z</time>
      </trkpt>
      <trkpt lat="45.99613" lon="6.47591">
        <ele>1847</ele>
        <time>2010-12-11 11:43:30Z</time>
      </trkpt>
      <trkpt lat="45.99613" lon="6.47591">
        <ele>1847</ele>
        <time>2010-12-11 11:43:34Z</time>
      </trkpt>
      <trkpt lat="45.99613" lon="6.47591">
        <ele>1847</ele>
        <time>2010-12-11 11:43:38Z</time>
      </trkpt>
      <trkpt lat="45.99613" lon="6.47591">
        <ele>1847</ele>
        <time>2010-12-11 11:43:42Z</time>
      </trkpt>
      <trkpt lat="45.99613" lon="6.47591">
        <ele>1847</ele>
        <time>2010-12-11 11:43:46Z</time>
      </trkpt>
      <trkpt lat="45.99605" lon="6.47567">
        <ele>1842</ele>
        <time>2010-12-11 11:43:50Z</time>
      </trkpt>
      <trkpt lat="45.99605" lon="6.47567">
        <ele>1842</ele>
        <time>2010-12-11 11:43:54Z</time>
      </trkpt>
      <trkpt lat="45.99605" lon="6.47567">
        <ele>1842</ele>
        <time>2010-12-11 11:43:58Z</time>
      </trkpt>
      <trkpt lat="45.99605" lon="6.47567">
        <ele>1842</ele>
        <time>2010-12-11 11:44:02Z</time>
      </trkpt>
      <trkpt lat="45.99605" lon="6.47567">
        <ele>1842</ele>
        <time>2010-12-11 11:44:06Z</time>
      </trkpt>
      <trkpt lat="45.99605" lon="6.47567">
        <ele>1842</ele>
        <time>2010-12-11 11:44:10Z</time>
      </trkpt>
      <trkpt lat="45.99605" lon="6.47567">
        <ele>1842</ele>
        <time>2010-12-11 11:44:14Z</time>
      </trkpt>
      <trkpt lat="45.99605" lon="6.47567">
        <ele>1842</ele>
        <time>2010-12-11 11:44:18Z</time>
      </trkpt>
      <trkpt lat="45.99605" lon="6.47567">
        <ele>1842</ele>
        <time>2010-12-11 11:44:22Z</time>
      </trkpt>
      <trkpt lat="45.99605" lon="6.47567">
        <ele>1842</ele>
        <time>2010-12-11 11:44:26Z</time>
      </trkpt>
      <trkpt lat="45.99605" lon="6.47567">
        <ele>1842</ele>
        <time>2010-12-11 11:44:30Z</time>
      </trkpt>
      <trkpt lat="45.99584" lon="6.47577">
        <ele>1826</ele>
        <time>2010-12-11 11:44:34Z</time>
      </trkpt>
      <trkpt lat="45.99582" lon="6.47582">
        <ele>1823</ele>
        <time>2010-12-11 11:44:38Z</time>
      </trkpt>
      <trkpt lat="45.99582" lon="6.47582">
        <ele>1823</ele>
        <time>2010-12-11 11:44:42Z</time>
      </trkpt>
      <trkpt lat="45.99582" lon="6.47582">
        <ele>1823</ele>
        <time>2010-12-11 11:44:46Z</time>
      </trkpt>
      <trkpt lat="45.99582" lon="6.47582">
        <ele>1823</ele>
        <time>2010-12-11 11:44:50Z</time>
      </trkpt>
      <trkpt lat="45.99582" lon="6.47582">
        <ele>1823</ele>
        <time>2010-12-11 11:44:54Z</time>
      </trkpt>
      <trkpt lat="45.99582" lon="6.47582">
        <ele>1823</ele>
        <time>2010-12-11 11:44:58Z</time>
      </trkpt>
      <trkpt lat="45.99582" lon="6.47582">
        <ele>1823</ele>
        <time>2010-12-11 11:45:02Z</time>
      </trkpt>
      <trkpt lat="45.99582" lon="6.47582">
        <ele>1823</ele>
        <time>2010-12-11 11:45:06Z</time>
      </trkpt>
      <trkpt lat="45.99582" lon="6.47582">
        <ele>1823</ele>
        <time>2010-12-11 11:45:10Z</time>
      </trkpt>
      <trkpt lat="45.99582" lon="6.47582">
        <ele>1823</ele>
        <time>2010-12-11 11:45:14Z</time>
      </trkpt>
      <trkpt lat="45.99569" lon="6.47571">
        <ele>1814</ele>
        <time>2010-12-11 11:45:18Z</time>
      </trkpt>
      <trkpt lat="45.99569" lon="6.47571">
        <ele>1814</ele>
        <time>2010-12-11 11:45:22Z</time>
      </trkpt>
      <trkpt lat="45.99569" lon="6.47571">
        <ele>1814</ele>
        <time>2010-12-11 11:45:26Z</time>
      </trkpt>
      <trkpt lat="45.99569" lon="6.47571">
        <ele>1814</ele>
        <time>2010-12-11 11:45:30Z</time>
      </trkpt>
      <trkpt lat="45.99567" lon="6.4755">
        <ele>1816</ele>
        <time>2010-12-11 11:45:34Z</time>
      </trkpt>
      <trkpt lat="45.99567" lon="6.4755">
        <ele>1816</ele>
        <time>2010-12-11 11:45:38Z</time>
      </trkpt>
      <trkpt lat="45.99567" lon="6.4755">
        <ele>1816</ele>
        <time>2010-12-11 11:45:42Z</time>
      </trkpt>
      <trkpt lat="45.99567" lon="6.4755">
        <ele>1816</ele>
        <time>2010-12-11 11:45:46Z</time>
      </trkpt>
      <trkpt lat="45.99567" lon="6.4755">
        <ele>1816</ele>
        <time>2010-12-11 11:45:50Z</time>
      </trkpt>
      <trkpt lat="45.99567" lon="6.4755">
        <ele>1816</ele>
        <time>2010-12-11 11:45:54Z</time>
      </trkpt>
      <trkpt lat="45.99566" lon="6.47525">
        <ele>1820</ele>
        <time>2010-12-11 11:45:58Z</time>
      </trkpt>
      <trkpt lat="45.99565" lon="6.47516">
        <ele>1821</ele>
        <time>2010-12-11 11:46:02Z</time>
      </trkpt>
      <trkpt lat="45.99565" lon="6.47514">
        <ele>1821</ele>
        <time>2010-12-11 11:46:06Z</time>
      </trkpt>
      <trkpt lat="45.99564" lon="6.47511">
        <ele>1820</ele>
        <time>2010-12-11 11:46:10Z</time>
      </trkpt>
      <trkpt lat="45.99564" lon="6.47509">
        <ele>1821</ele>
        <time>2010-12-11 11:46:14Z</time>
      </trkpt>
      <trkpt lat="45.99564" lon="6.47509">
        <ele>1821</ele>
        <time>2010-12-11 11:46:18Z</time>
      </trkpt>
      <trkpt lat="45.99563" lon="6.47505">
        <ele>1821</ele>
        <time>2010-12-11 11:46:22Z</time>
      </trkpt>
      <trkpt lat="45.99563" lon="6.47504">
        <ele>1822</ele>
        <time>2010-12-11 11:46:26Z</time>
      </trkpt>
      <trkpt lat="45.99563" lon="6.47504">
        <ele>1822</ele>
        <time>2010-12-11 11:46:30Z</time>
      </trkpt>
      <trkpt lat="45.99561" lon="6.475">
        <ele>1822</ele>
        <time>2010-12-11 11:46:34Z</time>
      </trkpt>
      <trkpt lat="45.99561" lon="6.47498">
        <ele>1822</ele>
        <time>2010-12-11 11:46:38Z</time>
      </trkpt>
      <trkpt lat="45.9956" lon="6.4749">
        <ele>1821</ele>
        <time>2010-12-11 11:46:42Z</time>
      </trkpt>
      <trkpt lat="45.99559" lon="6.47484">
        <ele>1821</ele>
        <time>2010-12-11 11:46:46Z</time>
      </trkpt>
      <trkpt lat="45.99559" lon="6.47484">
        <ele>1821</ele>
        <time>2010-12-11 11:46:50Z</time>
      </trkpt>
      <trkpt lat="45.99559" lon="6.47484">
        <ele>1821</ele>
        <time>2010-12-11 11:46:54Z</time>
      </trkpt>
      <trkpt lat="45.99559" lon="6.47484">
        <ele>1821</ele>
        <time>2010-12-11 11:46:58Z</time>
      </trkpt>
      <trkpt lat="45.99551" lon="6.4746">
        <ele>1819</ele>
        <time>2010-12-11 11:47:02Z</time>
      </trkpt>
      <trkpt lat="45.99548" lon="6.4745">
        <ele>1820</ele>
        <time>2010-12-11 11:47:06Z</time>
      </trkpt>
      <trkpt lat="45.99542" lon="6.47433">
        <ele>1819</ele>
        <time>2010-12-11 11:47:10Z</time>
      </trkpt>
      <trkpt lat="45.9953" lon="6.47401">
        <ele>1819</ele>
        <time>2010-12-11 11:47:14Z</time>
      </trkpt>
      <trkpt lat="45.99516" lon="6.47371">
        <ele>1818</ele>
        <time>2010-12-11 11:47:18Z</time>
      </trkpt>
      <trkpt lat="45.99501" lon="6.47352">
        <ele>1816</ele>
        <time>2010-12-11 11:47:22Z</time>
      </trkpt>
      <trkpt lat="45.99487" lon="6.47335">
        <ele>1814</ele>
        <time>2010-12-11 11:47:26Z</time>
      </trkpt>
      <trkpt lat="45.99482" lon="6.47333">
        <ele>1811</ele>
        <time>2010-12-11 11:47:30Z</time>
      </trkpt>
      <trkpt lat="45.99482" lon="6.47333">
        <ele>1811</ele>
        <time>2010-12-11 11:47:34Z</time>
      </trkpt>
      <trkpt lat="45.99482" lon="6.47333">
        <ele>1811</ele>
        <time>2010-12-11 11:47:38Z</time>
      </trkpt>
      <trkpt lat="45.99457" lon="6.47335">
        <ele>1806</ele>
        <time>2010-12-11 11:47:42Z</time>
      </trkpt>
      <trkpt lat="45.99435" lon="6.47332">
        <ele>1805</ele>
        <time>2010-12-11 11:47:46Z</time>
      </trkpt>
      <trkpt lat="45.9942" lon="6.47328">
        <ele>1801</ele>
        <time>2010-12-11 11:47:50Z</time>
      </trkpt>
      <trkpt lat="45.99396" lon="6.47322">
        <ele>1798</ele>
        <time>2010-12-11 11:47:54Z</time>
      </trkpt>
      <trkpt lat="45.99369" lon="6.47326">
        <ele>1794</ele>
        <time>2010-12-11 11:47:58Z</time>
      </trkpt>
      <trkpt lat="45.99347" lon="6.47322">
        <ele>1790</ele>
        <time>2010-12-11 11:48:02Z</time>
      </trkpt>
      <trkpt lat="45.99319" lon="6.47313">
        <ele>1788</ele>
        <time>2010-12-11 11:48:06Z</time>
      </trkpt>
      <trkpt lat="45.99274" lon="6.47301">
        <ele>1787</ele>
        <time>2010-12-11 11:48:10Z</time>
      </trkpt>
      <trkpt lat="45.99268" lon="6.47317">
        <ele>1783</ele>
        <time>2010-12-11 11:48:14Z</time>
      </trkpt>
      <trkpt lat="45.99254" lon="6.47341">
        <ele>1780</ele>
        <time>2010-12-11 11:48:18Z</time>
      </trkpt>
      <trkpt lat="45.99242" lon="6.47375">
        <ele>1777</ele>
        <time>2010-12-11 11:48:22Z</time>
      </trkpt>
      <trkpt lat="45.99236" lon="6.47389">
        <ele>1774</ele>
        <time>2010-12-11 11:48:26Z</time>
      </trkpt>
      <trkpt lat="45.99226" lon="6.47403">
        <ele>1769</ele>
        <time>2010-12-11 11:48:30Z</time>
      </trkpt>
      <trkpt lat="45.99225" lon="6.47407">
        <ele>1766</ele>
        <time>2010-12-11 11:48:34Z</time>
      </trkpt>
      <trkpt lat="45.99225" lon="6.47407">
        <ele>1766</ele>
        <time>2010-12-11 11:48:38Z</time>
      </trkpt>
      <trkpt lat="45.99225" lon="6.47407">
        <ele>1766</ele>
        <time>2010-12-11 11:48:42Z</time>
      </trkpt>
      <trkpt lat="45.99225" lon="6.47407">
        <ele>1766</ele>
        <time>2010-12-11 11:48:46Z</time>
      </trkpt>
      <trkpt lat="45.99225" lon="6.47407">
        <ele>1766</ele>
        <time>2010-12-11 11:48:50Z</time>
      </trkpt>
      <trkpt lat="45.99225" lon="6.47407">
        <ele>1766</ele>
        <time>2010-12-11 11:48:54Z</time>
      </trkpt>
      <trkpt lat="45.99225" lon="6.47407">
        <ele>1766</ele>
        <time>2010-12-11 11:48:58Z</time>
      </trkpt>
      <trkpt lat="45.99225" lon="6.47407">
        <ele>1766</ele>
        <time>2010-12-11 11:49:02Z</time>
      </trkpt>
      <trkpt lat="45.99225" lon="6.47407">
        <ele>1766</ele>
        <time>2010-12-11 11:49:06Z</time>
      </trkpt>
      <trkpt lat="45.99225" lon="6.47407">
        <ele>1766</ele>
        <time>2010-12-11 11:49:10Z</time>
      </trkpt>
      <trkpt lat="45.99225" lon="6.47407">
        <ele>1766</ele>
        <time>2010-12-11 11:49:14Z</time>
      </trkpt>
      <trkpt lat="45.99211" lon="6.47414">
        <ele>1755</ele>
        <time>2010-12-11 11:49:18Z</time>
      </trkpt>
      <trkpt lat="45.99211" lon="6.47414">
        <ele>1755</ele>
        <time>2010-12-11 11:49:22Z</time>
      </trkpt>
      <trkpt lat="45.99216" lon="6.4745">
        <ele>1748</ele>
        <time>2010-12-11 11:49:26Z</time>
      </trkpt>
      <trkpt lat="45.99221" lon="6.47489">
        <ele>1742</ele>
        <time>2010-12-11 11:49:30Z</time>
      </trkpt>
      <trkpt lat="45.99225" lon="6.47519">
        <ele>1738</ele>
        <time>2010-12-11 11:49:34Z</time>
      </trkpt>
      <trkpt lat="45.99223" lon="6.47544">
        <ele>1733</ele>
        <time>2010-12-11 11:49:38Z</time>
      </trkpt>
      <trkpt lat="45.99209" lon="6.47527">
        <ele>1730</ele>
        <time>2010-12-11 11:49:42Z</time>
      </trkpt>
      <trkpt lat="45.99201" lon="6.4752">
        <ele>1723</ele>
        <time>2010-12-11 11:49:46Z</time>
      </trkpt>
      <trkpt lat="45.99192" lon="6.47516">
        <ele>1719</ele>
        <time>2010-12-11 11:49:50Z</time>
      </trkpt>
      <trkpt lat="45.9916" lon="6.47474">
        <ele>1719</ele>
        <time>2010-12-11 11:49:54Z</time>
      </trkpt>
      <trkpt lat="45.99102" lon="6.47397">
        <ele>1718</ele>
        <time>2010-12-11 11:49:58Z</time>
      </trkpt>
      <trkpt lat="45.99065" lon="6.47368">
        <ele>1716</ele>
        <time>2010-12-11 11:50:02Z</time>
      </trkpt>
      <trkpt lat="45.9904" lon="6.4735">
        <ele>1715</ele>
        <time>2010-12-11 11:50:06Z</time>
      </trkpt>
      <trkpt lat="45.99031" lon="6.47345">
        <ele>1714</ele>
        <time>2010-12-11 11:50:10Z</time>
      </trkpt>
      <trkpt lat="45.9902" lon="6.47346">
        <ele>1712</ele>
        <time>2010-12-11 11:50:14Z</time>
      </trkpt>
      <trkpt lat="45.99003" lon="6.47347">
        <ele>1711</ele>
        <time>2010-12-11 11:50:18Z</time>
      </trkpt>
      <trkpt lat="45.98991" lon="6.47348">
        <ele>1710</ele>
        <time>2010-12-11 11:50:22Z</time>
      </trkpt>
      <trkpt lat="45.98972" lon="6.47351">
        <ele>1704</ele>
        <time>2010-12-11 11:50:26Z</time>
      </trkpt>
      <trkpt lat="45.9896" lon="6.47356">
        <ele>1695</ele>
        <time>2010-12-11 11:50:30Z</time>
      </trkpt>
      <trkpt lat="45.98951" lon="6.47363">
        <ele>1694</ele>
        <time>2010-12-11 11:50:34Z</time>
      </trkpt>
      <trkpt lat="45.98946" lon="6.47364">
        <ele>1694</ele>
        <time>2010-12-11 11:50:38Z</time>
      </trkpt>
      <trkpt lat="45.98946" lon="6.47364">
        <ele>1694</ele>
        <time>2010-12-11 11:50:42Z</time>
      </trkpt>
      <trkpt lat="45.98917" lon="6.47357">
        <ele>1690</ele>
        <time>2010-12-11 11:50:46Z</time>
      </trkpt>
      <trkpt lat="45.98901" lon="6.47346">
        <ele>1688</ele>
        <time>2010-12-11 11:50:50Z</time>
      </trkpt>
      <trkpt lat="45.98886" lon="6.47323">
        <ele>1687</ele>
        <time>2010-12-11 11:50:54Z</time>
      </trkpt>
      <trkpt lat="45.98869" lon="6.47294">
        <ele>1685</ele>
        <time>2010-12-11 11:50:58Z</time>
      </trkpt>
      <trkpt lat="45.98856" lon="6.47266">
        <ele>1682</ele>
        <time>2010-12-11 11:51:02Z</time>
      </trkpt>
      <trkpt lat="45.98851" lon="6.47236">
        <ele>1680</ele>
        <time>2010-12-11 11:51:06Z</time>
      </trkpt>
      <trkpt lat="45.98834" lon="6.47216">
        <ele>1679</ele>
        <time>2010-12-11 11:51:10Z</time>
      </trkpt>
      <trkpt lat="45.98818" lon="6.47219">
        <ele>1677</ele>
        <time>2010-12-11 11:51:14Z</time>
      </trkpt>
      <trkpt lat="45.98809" lon="6.47232">
        <ele>1671</ele>
        <time>2010-12-11 11:51:18Z</time>
      </trkpt>
      <trkpt lat="45.98798" lon="6.47225">
        <ele>1670</ele>
        <time>2010-12-11 11:51:22Z</time>
      </trkpt>
      <trkpt lat="45.98797" lon="6.47187">
        <ele>1667</ele>
        <time>2010-12-11 11:51:26Z</time>
      </trkpt>
      <trkpt lat="45.98793" lon="6.47156">
        <ele>1665</ele>
        <time>2010-12-11 11:51:30Z</time>
      </trkpt>
      <trkpt lat="45.98785" lon="6.4712">
        <ele>1659</ele>
        <time>2010-12-11 11:51:34Z</time>
      </trkpt>
      <trkpt lat="45.98773" lon="6.47087">
        <ele>1657</ele>
        <time>2010-12-11 11:51:38Z</time>
      </trkpt>
      <trkpt lat="45.98744" lon="6.47044">
        <ele>1652</ele>
        <time>2010-12-11 11:51:42Z</time>
      </trkpt>
      <trkpt lat="45.98723" lon="6.47019">
        <ele>1652</ele>
        <time>2010-12-11 11:51:46Z</time>
      </trkpt>
      <trkpt lat="45.98696" lon="6.46993">
        <ele>1653</ele>
        <time>2010-12-11 11:51:50Z</time>
      </trkpt>
      <trkpt lat="45.98672" lon="6.46952">
        <ele>1650</ele>
        <time>2010-12-11 11:51:54Z</time>
      </trkpt>
      <trkpt lat="45.98663" lon="6.46923">
        <ele>1648</ele>
        <time>2010-12-11 11:51:58Z</time>
      </trkpt>
      <trkpt lat="45.98654" lon="6.46875">
        <ele>1646</ele>
        <time>2010-12-11 11:52:02Z</time>
      </trkpt>
      <trkpt lat="45.98641" lon="6.46838">
        <ele>1645</ele>
        <time>2010-12-11 11:52:06Z</time>
      </trkpt>
      <trkpt lat="45.98626" lon="6.46794">
        <ele>1643</ele>
        <time>2010-12-11 11:52:10Z</time>
      </trkpt>
      <trkpt lat="45.98611" lon="6.46758">
        <ele>1642</ele>
        <time>2010-12-11 11:52:14Z</time>
      </trkpt>
      <trkpt lat="45.98597" lon="6.46724">
        <ele>1642</ele>
        <time>2010-12-11 11:52:18Z</time>
      </trkpt>
      <trkpt lat="45.98585" lon="6.46694">
        <ele>1639</ele>
        <time>2010-12-11 11:52:22Z</time>
      </trkpt>
      <trkpt lat="45.98565" lon="6.46657">
        <ele>1635</ele>
        <time>2010-12-11 11:52:26Z</time>
      </trkpt>
      <trkpt lat="45.98546" lon="6.4663">
        <ele>1633</ele>
        <time>2010-12-11 11:52:30Z</time>
      </trkpt>
      <trkpt lat="45.98526" lon="6.46609">
        <ele>1634</ele>
        <time>2010-12-11 11:52:34Z</time>
      </trkpt>
      <trkpt lat="45.98505" lon="6.46594">
        <ele>1634</ele>
        <time>2010-12-11 11:52:38Z</time>
      </trkpt>
      <trkpt lat="45.98481" lon="6.46582">
        <ele>1633</ele>
        <time>2010-12-11 11:52:42Z</time>
      </trkpt>
      <trkpt lat="45.98462" lon="6.46576">
        <ele>1630</ele>
        <time>2010-12-11 11:52:46Z</time>
      </trkpt>
      <trkpt lat="45.98439" lon="6.46572">
        <ele>1626</ele>
        <time>2010-12-11 11:52:50Z</time>
      </trkpt>
      <trkpt lat="45.98419" lon="6.4657">
        <ele>1620</ele>
        <time>2010-12-11 11:52:54Z</time>
      </trkpt>
      <trkpt lat="45.98399" lon="6.46566">
        <ele>1618</ele>
        <time>2010-12-11 11:52:58Z</time>
      </trkpt>
      <trkpt lat="45.98373" lon="6.46565">
        <ele>1615</ele>
        <time>2010-12-11 11:53:02Z</time>
      </trkpt>
      <trkpt lat="45.98355" lon="6.46561">
        <ele>1612</ele>
        <time>2010-12-11 11:53:06Z</time>
      </trkpt>
      <trkpt lat="45.98333" lon="6.46554">
        <ele>1610</ele>
        <time>2010-12-11 11:53:10Z</time>
      </trkpt>
      <trkpt lat="45.98304" lon="6.46551">
        <ele>1607</ele>
        <time>2010-12-11 11:53:14Z</time>
      </trkpt>
      <trkpt lat="45.98286" lon="6.46548">
        <ele>1606</ele>
        <time>2010-12-11 11:53:18Z</time>
      </trkpt>
      <trkpt lat="45.98267" lon="6.46544">
        <ele>1605</ele>
        <time>2010-12-11 11:53:22Z</time>
      </trkpt>
      <trkpt lat="45.98248" lon="6.4654">
        <ele>1604</ele>
        <time>2010-12-11 11:53:26Z</time>
      </trkpt>
      <trkpt lat="45.98232" lon="6.46542">
        <ele>1604</ele>
        <time>2010-12-11 11:53:30Z</time>
      </trkpt>
      <trkpt lat="45.9821" lon="6.46546">
        <ele>1602</ele>
        <time>2010-12-11 11:53:34Z</time>
      </trkpt>
      <trkpt lat="45.98188" lon="6.46549">
        <ele>1601</ele>
        <time>2010-12-11 11:53:38Z</time>
      </trkpt>
      <trkpt lat="45.98169" lon="6.46553">
        <ele>1600</ele>
        <time>2010-12-11 11:53:42Z</time>
      </trkpt>
      <trkpt lat="45.98145" lon="6.4656">
        <ele>1599</ele>
        <time>2010-12-11 11:53:46Z</time>
      </trkpt>
      <trkpt lat="45.98122" lon="6.46564">
        <ele>1599</ele>
        <time>2010-12-11 11:53:50Z</time>
      </trkpt>
      <trkpt lat="45.98102" lon="6.46569">
        <ele>1598</ele>
        <time>2010-12-11 11:53:54Z</time>
      </trkpt>
      <trkpt lat="45.98078" lon="6.46572">
        <ele>1598</ele>
        <time>2010-12-11 11:53:58Z</time>
      </trkpt>
      <trkpt lat="45.98054" lon="6.46576">
        <ele>1597</ele>
        <time>2010-12-11 11:54:02Z</time>
      </trkpt>
      <trkpt lat="45.98034" lon="6.46581">
        <ele>1597</ele>
        <time>2010-12-11 11:54:06Z</time>
      </trkpt>
      <trkpt lat="45.98011" lon="6.46591">
        <ele>1596</ele>
        <time>2010-12-11 11:54:10Z</time>
      </trkpt>
      <trkpt lat="45.9799" lon="6.46604">
        <ele>1595</ele>
        <time>2010-12-11 11:54:14Z</time>
      </trkpt>
      <trkpt lat="45.97973" lon="6.46618">
        <ele>1591</ele>
        <time>2010-12-11 11:54:18Z</time>
      </trkpt>
      <trkpt lat="45.9795" lon="6.46643">
        <ele>1584</ele>
        <time>2010-12-11 11:54:22Z</time>
      </trkpt>
      <trkpt lat="45.97927" lon="6.46665">
        <ele>1578</ele>
        <time>2010-12-11 11:54:26Z</time>
      </trkpt>
      <trkpt lat="45.97907" lon="6.46684">
        <ele>1572</ele>
        <time>2010-12-11 11:54:30Z</time>
      </trkpt>
      <trkpt lat="45.97888" lon="6.46708">
        <ele>1563</ele>
        <time>2010-12-11 11:54:34Z</time>
      </trkpt>
      <trkpt lat="45.97875" lon="6.46731">
        <ele>1552</ele>
        <time>2010-12-11 11:54:38Z</time>
      </trkpt>
      <trkpt lat="45.97863" lon="6.46753">
        <ele>1543</ele>
        <time>2010-12-11 11:54:42Z</time>
      </trkpt>
      <trkpt lat="45.97857" lon="6.46775">
        <ele>1534</ele>
        <time>2010-12-11 11:54:46Z</time>
      </trkpt>
      <trkpt lat="45.97854" lon="6.46787">
        <ele>1529</ele>
        <time>2010-12-11 11:54:50Z</time>
      </trkpt>
    </trkseg>
  </trk>
</gpx>